| time (UTC) | temp F | wind direction | speed knots | gust knots | rain 1hr in | rain 24hr in | rain mn in | humidity % | barometer mb |
| 20260831050503 | 85 | 355 | 3.5 | 7.8 | 0.00 | 0.00 | 0.00 | 22 | 1015.8 |
| 20260831050403 | 85 | 350 | 3.5 | 7.8 | 0.00 | 0.00 | 0.00 | 22 | 1015.8 |
| 20260831050303 | 85 | 350 | 3.5 | 7.8 | 0.00 | 0.00 | 0.00 | 23 | 1015.8 |
| 20260831050203 | 85 | 349 | 3.5 | 7.8 | 0.00 | 0.00 | 0.00 | 23 | 1015.8 |
| 20260831050103 | 85 | 347 | 3.5 | 8.7 | 0.00 | 0.00 | 0.00 | 24 | 1015.7 |
| 20260831050003 | 85 | 352 | 3.5 | 8.7 | 0.00 | 0.00 | 0.00 | 24 | 1015.7 |
| 20260831045903 | 85 | 360 | 3.5 | 8.7 | 0.00 | 0.00 | 0.00 | 25 | 1015.7 |
| 20260831045824 | 85 | 4 | 3.5 | 8.7 | 0.00 | 0.00 | 0.00 | 25 | 1015.7 |
| 20260831045704 | 85 | 4 | 3.5 | 8.7 | 0.00 | 0.00 | 0.00 | 26 | 1015.6 |
| 20260831045603 | 85 | 9 | 3.5 | 8.7 | 0.00 | 0.00 | 0.00 | 26 | 1015.6 |
| 20260831045503 | 85 | 14 | 3.5 | 8.7 | 0.00 | 0.00 | 0.00 | 26 | 1015.6 |
| 20260831045403 | 86 | 13 | 3.5 | 8.7 | 0.00 | 0.00 | 0.00 | 27 | 1015.6 |
| 20260831045306 | 86 | 21 | 3.5 | 8.7 | 0.00 | 0.00 | 0.00 | 27 | 1015.6 |
| 20260831045203 | 86 | 23 | 3.5 | 8.7 | 0.00 | 0.00 | 0.00 | 27 | 1015.5 |
| 20260831045103 | 86 | 30 | 3.5 | 8.7 | 0.00 | 0.00 | 0.00 | 28 | 1015.6 |
| 20260831045003 | 86 | 31 | 3.5 | 8.7 | 0.00 | 0.00 | 0.00 | 28 | 1015.5 |
| 20260831044903 | 86 | 30 | 3.5 | 7.0 | 0.00 | 0.00 | 0.00 | 28 | 1015.5 |
| 20260831044803 | 86 | 27 | 3.5 | 7.8 | 0.00 | 0.00 | 0.00 | 28 | 1015.5 |
| 20260831044724 | 86 | 24 | 3.5 | 7.8 | 0.00 | 0.00 | 0.00 | 29 | 1015.5 |
| 20260831044603 | 86 | 23 | 3.5 | 7.8 | 0.00 | 0.00 | 0.00 | 29 | 1015.5 |
| 20260831044503 | 86 | 17 | 3.5 | 7.8 | 0.00 | 0.00 | 0.00 | 29 | 1015.6 |
| 20260831044403 | 86 | 17 | 3.5 | 7.8 | 0.00 | 0.00 | 0.00 | 29 | 1015.6 |
| 20260831044303 | 86 | 11 | 3.5 | 7.8 | 0.00 | 0.00 | 0.00 | 30 | 1015.6 |
| 20260831044203 | 86 | 11 | 3.5 | 7.8 | 0.00 | 0.00 | 0.00 | 30 | 1015.5 |
| 20260831044124 | 86 | 6 | 3.5 | 7.8 | 0.00 | 0.00 | 0.00 | 30 | 1015.6 |
| 20260831044024 | 86 | 358 | 3.5 | 7.8 | 0.00 | 0.00 | 0.00 | 30 | 1015.6 |
| 20260831043903 | 86 | 348 | 3.5 | 7.8 | 0.00 | 0.00 | 0.00 | 30 | 1015.6 |
| 20260831043803 | 86 | 338 | 2.6 | 6.1 | 0.00 | 0.00 | 0.00 | 30 | 1015.6 |
| 20260831043703 | 86 | 334 | 2.6 | 6.1 | 0.00 | 0.00 | 0.00 | 30 | 1015.6 |
| 20260831043624 | 86 | 330 | 2.6 | 6.1 | 0.00 | 0.00 | 0.00 | 31 | 1015.6 |
| 20260831043503 | 86 | 329 | 2.6 | 6.1 | 0.00 | 0.00 | 0.00 | 31 | 1015.6 |
| 20260831043403 | 86 | 331 | 2.6 | 7.0 | 0.00 | 0.00 | 0.00 | 31 | 1015.6 |
| 20260831043303 | 86 | 335 | 2.6 | 7.0 | 0.00 | 0.00 | 0.00 | 31 | 1015.6 |
| 20260831043203 | 86 | 339 | 2.6 | 7.0 | 0.00 | 0.00 | 0.00 | 31 | 1015.6 |
| 20260831043103 | 86 | 347 | 2.6 | 7.0 | 0.00 | 0.00 | 0.00 | 31 | 1015.6 |
| 20260831043024 | 86 | 351 | 2.6 | 7.0 | 0.00 | 0.00 | 0.00 | 32 | 1015.5 |
| 20260831042903 | 86 | 4 | 2.6 | 7.0 | 0.00 | 0.00 | 0.00 | 32 | 1015.5 |
| 20260831042803 | 86 | 14 | 2.6 | 7.0 | 0.00 | 0.00 | 0.00 | 32 | 1015.4 |
| 20260831042703 | 86 | 17 | 2.6 | 7.0 | 0.00 | 0.00 | 0.00 | 32 | 1015.4 |
| 20260831042603 | 86 | 23 | 2.6 | 7.0 | 0.00 | 0.00 | 0.00 | 32 | 1015.4 |
| 20260831042503 | 86 | 25 | 2.6 | 7.0 | 0.00 | 0.00 | 0.00 | 32 | 1015.4 |
| 20260831042403 | 86 | 33 | 2.6 | 7.0 | 0.00 | 0.00 | 0.00 | 33 | 1015.4 |
| 20260831042306 | 86 | 31 | 3.5 | 7.0 | 0.00 | 0.00 | 0.00 | 33 | 1015.5 |
| 20260831042224 | 86 | 29 | 2.6 | 7.0 | 0.00 | 0.00 | 0.00 | 33 | 1015.5 |
| 20260831042103 | 86 | 30 | 3.5 | 7.0 | 0.00 | 0.00 | 0.00 | 33 | 1015.5 |
| 20260831042004 | 86 | 29 | 2.6 | 7.0 | 0.00 | 0.00 | 0.00 | 33 | 1015.5 |
| 20260831041903 | 86 | 23 | 2.6 | 7.0 | 0.00 | 0.00 | 0.00 | 33 | 1015.5 |
| 20260831041825 | 87 | 18 | 2.6 | 7.0 | 0.00 | 0.00 | 0.00 | 33 | 1015.5 |
| 20260831041724 | 87 | 15 | 2.6 | 7.0 | 0.00 | 0.00 | 0.00 | 33 | 1015.5 |
| 20260831041624 | 87 | 12 | 3.5 | 7.0 | 0.00 | 0.00 | 0.00 | 34 | 1015.5 |
| 20260831041503 | 87 | 4 | 3.5 | 8.7 | 0.00 | 0.00 | 0.00 | 34 | 1015.5 |
| 20260831041403 | 87 | 1 | 3.5 | 8.7 | 0.00 | 0.00 | 0.00 | 34 | 1015.6 |
| 20260831041303 | 87 | 1 | 3.5 | 8.7 | 0.00 | 0.00 | 0.00 | 34 | 1015.7 |
| 20260831041203 | 87 | 358 | 3.5 | 8.7 | 0.00 | 0.00 | 0.00 | 34 | 1015.6 |
| 20260831041103 | 87 | 347 | 3.5 | 8.7 | 0.00 | 0.00 | 0.00 | 34 | 1015.6 |
| 20260831041003 | 87 | 349 | 3.5 | 8.7 | 0.00 | 0.00 | 0.00 | 34 | 1015.6 |
| 20260831040903 | 87 | 354 | 3.5 | 8.7 | 0.00 | 0.00 | 0.00 | 34 | 1015.6 |
| 20260831040803 | 87 | 353 | 3.5 | 8.7 | 0.00 | 0.00 | 0.00 | 34 | 1015.6 |
| 20260831040703 | 87 | 351 | 3.5 | 8.7 | 0.00 | 0.00 | 0.00 | 34 | 1015.6 |
| 20260831040603 | 87 | 349 | 3.5 | 8.7 | 0.00 | 0.00 | 0.00 | 34 | 1015.6 |
| 20260831040503 | 87 | 353 | 3.5 | 8.7 | 0.00 | 0.00 | 0.00 | 35 | 1015.6 |
| 20260831040403 | 87 | 354 | 3.5 | 8.7 | 0.00 | 0.00 | 0.00 | 35 | 1015.6 |
| 20260831040303 | 87 | 349 | 3.5 | 8.7 | 0.00 | 0.00 | 0.00 | 35 | 1015.6 |
| 20260831040203 | 87 | 355 | 3.5 | 8.7 | 0.00 | 0.00 | 0.00 | 35 | 1015.6 |
| 20260831040103 | 87 | 4 | 2.6 | 7.0 | 0.00 | 0.00 | 0.00 | 35 | 1015.6 |
| 20260831040003 | 87 | 6 | 2.6 | 7.0 | 0.00 | 0.00 | 0.00 | 35 | 1015.5 |
| 20260831035903 | 87 | 7 | 2.6 | 7.0 | 0.00 | 0.00 | 0.00 | 35 | 1015.6 |
| 20260831035803 | 87 | 7 | 2.6 | 6.1 | 0.00 | 0.00 | 0.00 | 35 | 1015.5 |
| 20260831035703 | 87 | 10 | 2.6 | 6.1 | 0.00 | 0.00 | 0.00 | 35 | 1015.6 |
| 20260831035603 | 87 | 3 | 2.6 | 6.1 | 0.00 | 0.00 | 0.00 | 35 | 1015.6 |
| 20260831035503 | 87 | 359 | 2.6 | 6.1 | 0.00 | 0.00 | 0.00 | 36 | 1015.5 |
| 20260831035403 | 87 | 356 | 2.6 | 6.1 | 0.00 | 0.00 | 0.00 | 36 | 1015.5 |
| 20260831035306 | 87 | 357 | 2.6 | 6.1 | 0.00 | 0.00 | 0.00 | 36 | 1015.5 |
| 20260831035203 | 87 | 351 | 2.6 | 6.1 | 0.00 | 0.00 | 0.00 | 36 | 1015.5 |
| 20260831035103 | 87 | 344 | 2.6 | 5.2 | 0.00 | 0.00 | 0.00 | 36 | 1015.4 |
| 20260831035003 | 87 | 337 | 2.6 | 5.2 | 0.00 | 0.00 | 0.00 | 36 | 1015.4 |
| 20260831034903 | 87 | 330 | 1.7 | 5.2 | 0.00 | 0.00 | 0.00 | 36 | 1015.4 |
| 20260831034803 | 87 | 327 | 1.7 | 5.2 | 0.00 | 0.00 | 0.00 | 36 | 1015.4 |
| 20260831034724 | 87 | 326 | 2.6 | 5.2 | 0.00 | 0.00 | 0.00 | 36 | 1015.4 |
| 20260831034603 | 87 | 329 | 2.6 | 5.2 | 0.00 | 0.00 | 0.00 | 36 | 1015.4 |
| 20260831034503 | 87 | 333 | 2.6 | 5.2 | 0.00 | 0.00 | 0.00 | 36 | 1015.3 |
| 20260831034403 | 87 | 333 | 2.6 | 7.0 | 0.00 | 0.00 | 0.00 | 36 | 1015.4 |
| 20260831034303 | 87 | 330 | 2.6 | 7.0 | 0.00 | 0.00 | 0.00 | 37 | 1015.4 |
| 20260831034203 | 87 | 327 | 2.6 | 7.0 | 0.00 | 0.00 | 0.00 | 37 | 1015.3 |
| 20260831034103 | 87 | 325 | 2.6 | 7.0 | 0.00 | 0.00 | 0.00 | 37 | 1015.4 |
| 20260831034024 | 87 | 324 | 2.6 | 7.0 | 0.00 | 0.00 | 0.00 | 37 | 1015.4 |
| 20260831033903 | 87 | 324 | 2.6 | 7.0 | 0.00 | 0.00 | 0.00 | 37 | 1015.3 |
| 20260831033803 | 87 | 324 | 2.6 | 7.0 | 0.00 | 0.00 | 0.00 | 37 | 1015.3 |
| 20260831033703 | 87 | 325 | 2.6 | 7.0 | 0.00 | 0.00 | 0.00 | 37 | 1015.3 |
| 20260831033603 | 87 | 322 | 2.6 | 7.0 | 0.00 | 0.00 | 0.00 | 37 | 1015.3 |
| 20260831033503 | 87 | 316 | 2.6 | 7.0 | 0.00 | 0.00 | 0.00 | 37 | 1015.3 |
| 20260831033403 | 87 | 308 | 1.7 | 6.1 | 0.00 | 0.00 | 0.00 | 37 | 1015.2 |
| 20260831033303 | 87 | 304 | 1.7 | 6.1 | 0.00 | 0.00 | 0.00 | 37 | 1015.2 |
| 20260831033203 | 87 | 302 | 1.7 | 6.1 | 0.00 | 0.00 | 0.00 | 37 | 1015.3 |
| 20260831033103 | 87 | 298 | 1.7 | 6.1 | 0.00 | 0.00 | 0.00 | 37 | 1015.3 |
| 20260831033003 | 88 | 295 | 1.7 | 6.1 | 0.00 | 0.00 | 0.00 | 38 | 1015.2 |
| 20260831032903 | 88 | 293 | 1.7 | 6.1 | 0.00 | 0.00 | 0.00 | 38 | 1015.2 |
| 20260831032803 | 88 | 288 | 1.7 | 6.1 | 0.00 | 0.00 | 0.00 | 38 | 1015.2 |
| 20260831032703 | 88 | 280 | 1.7 | 4.3 | 0.00 | 0.00 | 0.00 | 38 | 1015.2 |
| 20260831032624 | 88 | 279 | 1.7 | 4.3 | 0.00 | 0.00 | 0.00 | 38 | 1015.2 |
| 20260831032524 | 88 | 278 | 1.7 | 4.3 | 0.00 | 0.00 | 0.00 | 38 | 1015.2 |
| 20260831032403 | 88 | 278 | 1.7 | 4.3 | 0.00 | 0.00 | 0.00 | 38 | 1015.2 |
| 20260831032324 | 88 | 282 | 1.7 | 5.2 | 0.00 | 0.00 | 0.00 | 38 | 1015.2 |
| 20260831032203 | 88 | 286 | 2.6 | 5.2 | 0.00 | 0.00 | 0.00 | 38 | 1015.2 |
| 20260831032103 | 88 | 290 | 2.6 | 5.2 | 0.00 | 0.00 | 0.00 | 38 | 1015.2 |
| 20260831032003 | 88 | 293 | 1.7 | 5.2 | 0.00 | 0.00 | 0.00 | 38 | 1015.2 |
| 20260831031903 | 88 | 296 | 2.6 | 5.2 | 0.00 | 0.00 | 0.00 | 38 | 1015.2 |
| 20260831031803 | 88 | 301 | 2.6 | 5.2 | 0.00 | 0.00 | 0.00 | 38 | 1015.2 |
| 20260831031724 | 88 | 304 | 2.6 | 5.2 | 0.00 | 0.00 | 0.00 | 38 | 1015.2 |
| 20260831031603 | 88 | 309 | 2.6 | 5.2 | 0.00 | 0.00 | 0.00 | 39 | 1015.1 |
| 20260831031503 | 88 | 313 | 2.6 | 5.2 | 0.00 | 0.00 | 0.00 | 39 | 1015.1 |
| 20260831031424 | 88 | 314 | 2.6 | 5.2 | 0.00 | 0.00 | 0.00 | 39 | 1015.1 |
| 20260831031303 | 88 | 315 | 2.6 | 5.2 | 0.00 | 0.00 | 0.00 | 39 | 1015.1 |
| 20260831031203 | 88 | 315 | 2.6 | 5.2 | 0.00 | 0.00 | 0.00 | 39 | 1015.0 |
| 20260831031104 | 88 | 313 | 2.6 | 5.2 | 0.00 | 0.00 | 0.00 | 39 | 1015.0 |
| 20260831031003 | 88 | 314 | 2.6 | 5.2 | 0.00 | 0.00 | 0.00 | 39 | 1015.0 |
| 20260831030903 | 88 | 317 | 2.6 | 5.2 | 0.00 | 0.00 | 0.00 | 39 | 1015.0 |
| 20260831030803 | 88 | 321 | 2.6 | 5.2 | 0.00 | 0.00 | 0.00 | 39 | 1015.0 |
| 20260831030703 | 88 | 320 | 2.6 | 5.2 | 0.00 | 0.00 | 0.00 | 39 | 1015.0 |
| 20260831030603 | 88 | 320 | 2.6 | 5.2 | 0.00 | 0.00 | 0.00 | 39 | 1014.9 |
| 20260831030524 | 88 | 320 | 2.6 | 5.2 | 0.00 | 0.00 | 0.00 | 39 | 1014.9 |
| 20260831030403 | 88 | 321 | 2.6 | 5.2 | 0.00 | 0.00 | 0.00 | 39 | 1015.0 |
| 20260831030303 | 88 | 322 | 2.6 | 6.1 | 0.00 | 0.00 | 0.00 | 39 | 1015.0 |
| 20260831030203 | 88 | 321 | 2.6 | 6.1 | 0.00 | 0.00 | 0.00 | 39 | 1014.9 |
| 20260831030003 | 88 | 325 | 2.6 | 9.6 | 0.00 | 0.00 | 0.00 | 40 | 1014.9 |
| 20260831025903 | 88 | 323 | 2.6 | 9.6 | 0.00 | 0.00 | 0.00 | 40 | 1014.8 |
| 20260831025803 | 88 | 320 | 2.6 | 9.6 | 0.00 | 0.00 | 0.00 | 40 | 1014.8 |
| 20260831025703 | 88 | 321 | 3.5 | 9.6 | 0.00 | 0.00 | 0.00 | 40 | 1014.8 |
| 20260831025603 | 88 | 322 | 3.5 | 9.6 | 0.00 | 0.00 | 0.00 | 40 | 1014.8 |
| 20260831025503 | 88 | 322 | 3.5 | 9.6 | 0.00 | 0.00 | 0.00 | 40 | 1014.7 |
| 20260831025405 | 88 | 320 | 3.5 | 9.6 | 0.00 | 0.00 | 0.00 | 40 | 1014.8 |
| 20260831025306 | 88 | 321 | 3.5 | 9.6 | 0.00 | 0.00 | 0.00 | 40 | 1014.8 |
| 20260831025224 | 88 | 323 | 3.5 | 9.6 | 0.00 | 0.00 | 0.00 | 40 | 1014.8 |
| 20260831025103 | 88 | 318 | 3.5 | 9.6 | 0.00 | 0.00 | 0.00 | 40 | 1014.8 |
| 20260831025003 | 88 | 316 | 3.5 | 9.6 | 0.00 | 0.00 | 0.00 | 40 | 1014.8 |
| 20260831024903 | 88 | 315 | 3.5 | 9.6 | 0.00 | 0.00 | 0.00 | 40 | 1014.8 |
| 20260831024803 | 88 | 314 | 3.5 | 9.6 | 0.00 | 0.00 | 0.00 | 40 | 1014.7 |
| 20260831024724 | 88 | 313 | 3.5 | 9.6 | 0.00 | 0.00 | 0.00 | 40 | 1014.7 |
| 20260831024603 | 88 | 314 | 3.5 | 9.6 | 0.00 | 0.00 | 0.00 | 40 | 1014.7 |
| 20260831024503 | 88 | 314 | 3.5 | 9.6 | 0.00 | 0.00 | 0.00 | 41 | 1014.6 |
| 20260831024424 | 88 | 316 | 3.5 | 9.6 | 0.00 | 0.00 | 0.00 | 41 | 1014.6 |
| 20260831024303 | 88 | 312 | 3.5 | 9.6 | 0.00 | 0.00 | 0.00 | 41 | 1014.7 |
| 20260831024204 | 88 | 308 | 2.6 | 8.7 | 0.00 | 0.00 | 0.00 | 41 | 1014.6 |
| 20260831024103 | 88 | 311 | 2.6 | 8.7 | 0.00 | 0.00 | 0.00 | 41 | 1014.6 |
| 20260831024003 | 88 | 313 | 2.6 | 8.7 | 0.00 | 0.00 | 0.00 | 41 | 1014.6 |
| 20260831023903 | 89 | 314 | 2.6 | 8.7 | 0.00 | 0.00 | 0.00 | 41 | 1014.6 |
| 20260831023803 | 89 | 314 | 3.5 | 8.7 | 0.00 | 0.00 | 0.00 | 41 | 1014.6 |
| 20260831023724 | 89 | 315 | 3.5 | 8.7 | 0.00 | 0.00 | 0.00 | 41 | 1014.5 |
| 20260831023603 | 89 | 311 | 3.5 | 8.7 | 0.00 | 0.00 | 0.00 | 41 | 1014.6 |
| 20260831023503 | 89 | 314 | 3.5 | 8.7 | 0.00 | 0.00 | 0.00 | 41 | 1014.6 |
| 20260831023403 | 89 | 314 | 3.5 | 8.7 | 0.00 | 0.00 | 0.00 | 42 | 1014.5 |
| 20260831023303 | 89 | 317 | 3.5 | 8.7 | 0.00 | 0.00 | 0.00 | 42 | 1014.6 |
| 20260831023203 | 89 | 318 | 4.3 | 8.7 | 0.00 | 0.00 | 0.00 | 42 | 1014.6 |
| 20260831023103 | 89 | 319 | 4.3 | 8.7 | 0.00 | 0.00 | 0.00 | 42 | 1014.5 |
| 20260831023024 | 89 | 319 | 4.3 | 8.7 | 0.00 | 0.00 | 0.00 | 42 | 1014.5 |
| 20260831022903 | 89 | 318 | 3.5 | 8.7 | 0.00 | 0.00 | 0.00 | 42 | 1014.5 |
| 20260831022803 | 89 | 318 | 3.5 | 8.7 | 0.00 | 0.00 | 0.00 | 42 | 1014.5 |
| 20260831022703 | 89 | 319 | 3.5 | 8.7 | 0.00 | 0.00 | 0.00 | 42 | 1014.4 |
| 20260831022603 | 89 | 320 | 3.5 | 8.7 | 0.00 | 0.00 | 0.00 | 42 | 1014.4 |
| 20260831022524 | 89 | 319 | 3.5 | 8.7 | 0.00 | 0.00 | 0.00 | 42 | 1014.4 |
| 20260831022403 | 89 | 316 | 3.5 | 9.6 | 0.00 | 0.00 | 0.00 | 42 | 1014.4 |
| 20260831022306 | 89 | 315 | 3.5 | 9.6 | 0.00 | 0.00 | 0.00 | 42 | 1014.3 |
| 20260831022203 | 89 | 313 | 3.5 | 9.6 | 0.00 | 0.00 | 0.00 | 43 | 1014.4 |
| 20260831022103 | 89 | 309 | 3.5 | 9.6 | 0.00 | 0.00 | 0.00 | 43 | 1014.3 |
| 20260831022003 | 89 | 309 | 3.5 | 9.6 | 0.00 | 0.00 | 0.00 | 43 | 1014.3 |
| 20260831021903 | 89 | 312 | 3.5 | 9.6 | 0.00 | 0.00 | 0.00 | 43 | 1014.2 |
| 20260831021824 | 89 | 316 | 3.5 | 9.6 | 0.00 | 0.00 | 0.00 | 43 | 1014.2 |
| 20260831021703 | 89 | 315 | 3.5 | 9.6 | 0.00 | 0.00 | 0.00 | 43 | 1014.2 |
| 20260831021603 | 89 | 315 | 3.5 | 9.6 | 0.00 | 0.00 | 0.00 | 43 | 1014.2 |
| 20260831021503 | 89 | 317 | 3.5 | 9.6 | 0.00 | 0.00 | 0.00 | 43 | 1014.2 |
| 20260831021403 | 89 | 319 | 3.5 | 10.4 | 0.00 | 0.00 | 0.00 | 44 | 1014.2 |
| 20260831021303 | 89 | 318 | 3.5 | 10.4 | 0.00 | 0.00 | 0.00 | 44 | 1014.2 |
| 20260831021203 | 89 | 323 | 3.5 | 10.4 | 0.00 | 0.00 | 0.00 | 44 | 1014.2 |
| 20260831021124 | 89 | 325 | 3.5 | 10.4 | 0.00 | 0.00 | 0.00 | 44 | 1014.1 |
| 20260831021003 | 90 | 327 | 3.5 | 10.4 | 0.00 | 0.00 | 0.00 | 44 | 1014.1 |
| 20260831020903 | 90 | 324 | 3.5 | 10.4 | 0.00 | 0.00 | 0.00 | 44 | 1014.1 |
| 20260831020803 | 90 | 318 | 4.3 | 10.4 | 0.00 | 0.00 | 0.00 | 45 | 1014.1 |
| 20260831020703 | 90 | 319 | 4.3 | 10.4 | 0.00 | 0.00 | 0.00 | 45 | 1014.1 |
| 20260831020624 | 90 | 320 | 4.3 | 10.4 | 0.00 | 0.00 | 0.00 | 45 | 1014.1 |
| 20260831020503 | 90 | 319 | 4.3 | 10.4 | 0.00 | 0.00 | 0.00 | 45 | 1014.0 |
| 20260831020403 | 90 | 318 | 4.3 | 9.6 | 0.00 | 0.00 | 0.00 | 46 | 1014.1 |
| 20260831020303 | 90 | 317 | 4.3 | 9.6 | 0.00 | 0.00 | 0.00 | 46 | 1014.1 |
| 20260831020203 | 90 | 313 | 3.5 | 8.7 | 0.00 | 0.00 | 0.00 | 46 | 1014.0 |
| 20260831020103 | 90 | 310 | 3.5 | 8.7 | 0.00 | 0.00 | 0.00 | 46 | 1014.0 |
| 20260831020024 | 90 | 310 | 3.5 | 8.7 | 0.00 | 0.00 | 0.00 | 46 | 1014.0 |
| 20260831015903 | 90 | 312 | 3.5 | 8.7 | 0.00 | 0.00 | 0.00 | 46 | 1014.0 |
| 20260831015803 | 90 | 312 | 3.5 | 8.7 | 0.00 | 0.00 | 0.00 | 47 | 1014.0 |
| 20260831015703 | 90 | 314 | 2.6 | 8.7 | 0.00 | 0.00 | 0.00 | 47 | 1013.9 |
| 20260831015624 | 90 | 311 | 2.6 | 8.7 | 0.00 | 0.00 | 0.00 | 47 | 1014.0 |
| 20260831015503 | 90 | 310 | 2.6 | 8.7 | 0.00 | 0.00 | 0.00 | 47 | 1014.0 |
| 20260831015403 | 90 | 310 | 2.6 | 8.7 | 0.00 | 0.00 | 0.00 | 47 | 1013.9 |
| 20260831015305 | 90 | 311 | 2.6 | 8.7 | 0.00 | 0.00 | 0.00 | 47 | 1013.9 |
| 20260831015203 | 90 | 309 | 3.5 | 8.7 | 0.00 | 0.00 | 0.00 | 47 | 1013.9 |
| 20260831015124 | 90 | 309 | 3.5 | 7.8 | 0.00 | 0.00 | 0.00 | 47 | 1013.9 |
| 20260831015003 | 90 | 307 | 3.5 | 15.6 | 0.00 | 0.00 | 0.00 | 47 | 1013.9 |
| 20260831014903 | 90 | 307 | 3.5 | 15.6 | 0.00 | 0.00 | 0.00 | 47 | 1013.8 |
| 20260831014804 | 90 | 304 | 3.5 | 15.6 | 0.00 | 0.00 | 0.00 | 47 | 1013.8 |
| 20260831014703 | 90 | 302 | 3.5 | 15.6 | 0.00 | 0.00 | 0.00 | 47 | 1013.7 |
| 20260831014603 | 90 | 300 | 3.5 | 15.6 | 0.00 | 0.00 | 0.00 | 47 | 1013.7 |
| 20260831014503 | 90 | 300 | 3.5 | 15.6 | 0.00 | 0.00 | 0.00 | 47 | 1013.7 |
| 20260831014404 | 90 | 298 | 3.5 | 15.6 | 0.00 | 0.00 | 0.00 | 47 | 1013.6 |
| 20260831014303 | 90 | 296 | 3.5 | 15.6 | 0.00 | 0.00 | 0.00 | 47 | 1013.7 |
| 20260831014203 | 91 | 294 | 3.5 | 15.6 | 0.00 | 0.00 | 0.00 | 47 | 1013.6 |
| 20260831014103 | 91 | 291 | 3.5 | 15.6 | 0.00 | 0.00 | 0.00 | 47 | 1013.6 |
| 20260831014003 | 91 | 286 | 2.6 | 9.6 | 0.00 | 0.00 | 0.00 | 46 | 1013.6 |
| 20260831013903 | 91 | 281 | 2.6 | 9.6 | 0.00 | 0.00 | 0.00 | 46 | 1013.5 |
| 20260831013803 | 91 | 278 | 2.6 | 9.6 | 0.00 | 0.00 | 0.00 | 46 | 1013.5 |
| 20260831013703 | 91 | 273 | 1.7 | 7.8 | 0.00 | 0.00 | 0.00 | 46 | 1013.6 |
| 20260831013603 | 91 | 270 | 1.7 | 7.8 | 0.00 | 0.00 | 0.00 | 45 | 1013.5 |
| 20260831013505 | 91 | 264 | 1.7 | 7.8 | 0.00 | 0.00 | 0.00 | 45 | 1013.5 |
| 20260831013403 | 91 | 257 | 1.7 | 7.8 | 0.00 | 0.00 | 0.00 | 45 | 1013.5 |
| 20260831013303 | 91 | 255 | 1.7 | 7.8 | 0.00 | 0.00 | 0.00 | 45 | 1013.4 |
| 20260831013203 | 91 | 253 | 1.7 | 4.3 | 0.00 | 0.00 | 0.00 | 44 | 1013.4 |
| 20260831013103 | 91 | 254 | 1.7 | 4.3 | 0.00 | 0.00 | 0.00 | 44 | 1013.3 |
| 20260831013003 | 91 | 254 | 1.7 | 4.3 | 0.00 | 0.00 | 0.00 | 44 | 1013.3 |
| 20260831012903 | 91 | 254 | 1.7 | 4.3 | 0.00 | 0.00 | 0.00 | 44 | 1013.3 |
| 20260831012803 | 91 | 254 | 1.7 | 4.3 | 0.00 | 0.00 | 0.00 | 44 | 1013.3 |
| 20260831012703 | 91 | 255 | 0.9 | 4.3 | 0.00 | 0.00 | 0.00 | 44 | 1013.3 |
| 20260831012603 | 91 | 255 | 0.9 | 4.3 | 0.00 | 0.00 | 0.00 | 44 | 1013.3 |
| 20260831012503 | 91 | 255 | 0.9 | 4.3 | 0.00 | 0.00 | 0.00 | 44 | 1013.3 |
| 20260831012424 | 91 | 255 | 0.9 | 4.3 | 0.00 | 0.00 | 0.00 | 43 | 1013.3 |
| 20260831012324 | 92 | 255 | 0.9 | 3.5 | 0.00 | 0.00 | 0.00 | 43 | 1013.3 |
| 20260831012203 | 92 | 255 | 0.9 | 2.6 | 0.00 | 0.00 | 0.00 | 43 | 1013.3 |
| 20260831012103 | 92 | 255 | 0.9 | 2.6 | 0.00 | 0.00 | 0.00 | 43 | 1013.3 |
| 20260831012003 | 92 | 255 | 0.9 | 2.6 | 0.00 | 0.00 | 0.00 | 43 | 1013.2 |
| 20260831011903 | 92 | 255 | 0.9 | 2.6 | 0.00 | 0.00 | 0.00 | 43 | 1013.3 |
| 20260831011803 | 92 | 255 | 0.9 | 2.6 | 0.00 | 0.00 | 0.00 | 43 | 1013.3 |
| 20260831011703 | 92 | 255 | 0.9 | 2.6 | 0.00 | 0.00 | 0.00 | 43 | 1013.2 |
| 20260831011603 | 92 | 255 | 0.9 | 2.6 | 0.00 | 0.00 | 0.00 | 42 | 1013.2 |
| 20260831011503 | 92 | 255 | 0.9 | 2.6 | 0.00 | 0.00 | 0.00 | 42 | 1013.2 |
| 20260831011424 | 92 | 255 | 0.9 | 2.6 | 0.00 | 0.00 | 0.00 | 42 | 1013.2 |
| 20260831011324 | 92 | 255 | 0.9 | 2.6 | 0.00 | 0.00 | 0.00 | 42 | 1013.2 |
| 20260831011203 | 92 | 255 | 0.9 | 2.6 | 0.00 | 0.00 | 0.00 | 42 | 1013.2 |
| 20260831011103 | 92 | 255 | 0.9 | 2.6 | 0.00 | 0.00 | 0.00 | 42 | 1013.2 |
| 20260831011003 | 92 | 255 | 0.9 | 2.6 | 0.00 | 0.00 | 0.00 | 42 | 1013.2 |
| 20260831010924 | 92 | 255 | 0.9 | 2.6 | 0.00 | 0.00 | 0.00 | 42 | 1013.2 |
| 20260831010803 | 92 | 255 | 0.9 | 2.6 | 0.00 | 0.00 | 0.00 | 42 | 1013.2 |
| 20260831010724 | 93 | 255 | 0.9 | 2.6 | 0.00 | 0.00 | 0.00 | 42 | 1013.2 |
| 20260831010624 | 93 | 255 | 0.9 | 2.6 | 0.00 | 0.00 | 0.00 | 42 | 1013.2 |
| 20260831010503 | 93 | 255 | 0.9 | 2.6 | 0.00 | 0.00 | 0.00 | 42 | 1013.2 |
| 20260831010403 | 93 | 255 | 0.9 | 2.6 | 0.00 | 0.00 | 0.00 | 42 | 1013.2 |
| 20260831010303 | 93 | 255 | 0.9 | 3.5 | 0.00 | 0.00 | 0.00 | 41 | 1013.2 |
| 20260831010203 | 93 | 255 | 0.9 | 3.5 | 0.00 | 0.00 | 0.00 | 41 | 1013.2 |
| 20260831010003 | 93 | 255 | 0.9 | 3.5 | 0.00 | 0.00 | 0.00 | 41 | 1013.2 |
| 20260831005903 | 93 | 255 | 0.9 | 3.5 | 0.00 | 0.00 | 0.00 | 41 | 1013.2 |
| 20260831005803 | 93 | 255 | 0.9 | 3.5 | 0.00 | 0.00 | 0.00 | 41 | 1013.2 |
| 20260831005703 | 93 | 255 | 0.9 | 3.5 | 0.00 | 0.00 | 0.00 | 41 | 1013.1 |
| 20260831005603 | 93 | 255 | 0.9 | 3.5 | 0.00 | 0.00 | 0.00 | 41 | 1013.1 |
| 20260831005503 | 93 | 255 | 0.9 | 3.5 | 0.00 | 0.00 | 0.00 | 41 | 1013.2 |
| 20260831005403 | 94 | 255 | 0.9 | 3.5 | 0.00 | 0.00 | 0.00 | 41 | 1013.2 |
| 20260831005306 | 94 | 255 | 0.9 | 3.5 | 0.00 | 0.00 | 0.00 | 41 | 1013.1 |
| 20260831005203 | 94 | 255 | 0.9 | 3.5 | 0.00 | 0.00 | 0.00 | 41 | 1013.1 |
| 20260831005103 | 94 | 255 | 0.9 | 3.5 | 0.00 | 0.00 | 0.00 | 41 | 1013.1 |
| 20260831005003 | 94 | 255 | 0.9 | 3.5 | 0.00 | 0.00 | 0.00 | 41 | 1013.1 |
| 20260831004903 | 94 | 255 | 0.9 | 3.5 | 0.00 | 0.00 | 0.00 | 40 | 1013.2 |
| 20260831004803 | 94 | 255 | 0.9 | 3.5 | 0.00 | 0.00 | 0.00 | 40 | 1013.2 |
| 20260831004703 | 94 | 255 | 0.9 | 3.5 | 0.00 | 0.00 | 0.00 | 40 | 1013.1 |
| 20260831004624 | 94 | 255 | 0.9 | 2.6 | 0.00 | 0.00 | 0.00 | 40 | 1013.2 |
| 20260831004524 | 94 | 255 | 0.9 | 3.5 | 0.00 | 0.00 | 0.00 | 41 | 1013.1 |
| 20260831004424 | 94 | 255 | 0.9 | 3.5 | 0.00 | 0.00 | 0.00 | 41 | 1013.2 |
| 20260831004303 | 94 | 255 | 0.9 | 3.5 | 0.00 | 0.00 | 0.00 | 40 | 1013.1 |
| 20260831004224 | 94 | 255 | 0.9 | 3.5 | 0.00 | 0.00 | 0.00 | 40 | 1013.1 |
| 20260831004103 | 94 | 255 | 0.9 | 3.5 | 0.00 | 0.00 | 0.00 | 40 | 1013.1 |
| 20260831004003 | 94 | 255 | 0.9 | 3.5 | 0.00 | 0.00 | 0.00 | 40 | 1013.1 |
| 20260831003924 | 94 | 255 | 0.9 | 3.5 | 0.00 | 0.00 | 0.00 | 40 | 1013.1 |
| 20260831003803 | 94 | 255 | 0.9 | 3.5 | 0.00 | 0.00 | 0.00 | 40 | 1013.1 |
| 20260831003703 | 94 | 255 | 0.9 | 3.5 | 0.00 | 0.00 | 0.00 | 40 | 1013.1 |
| 20260831003624 | 95 | 255 | 0.9 | 3.5 | 0.00 | 0.00 | 0.00 | 40 | 1013.1 |
| 20260831003503 | 95 | 255 | 0.9 | 2.6 | 0.00 | 0.00 | 0.00 | 40 | 1013.1 |
| 20260831003403 | 95 | 255 | 0.9 | 2.6 | 0.00 | 0.00 | 0.00 | 40 | 1013.1 |
| 20260831003303 | 95 | 255 | 0.9 | 2.6 | 0.00 | 0.00 | 0.00 | 40 | 1013.1 |
| 20260831003203 | 95 | 255 | 0.9 | 2.6 | 0.00 | 0.00 | 0.00 | 40 | 1013.1 |
| 20260831003103 | 95 | 255 | 0.9 | 2.6 | 0.00 | 0.00 | 0.00 | 40 | 1013.0 |
| 20260831003003 | 95 | 255 | 0.9 | 2.6 | 0.00 | 0.00 | 0.00 | 40 | 1013.0 |
| 20260831002903 | 95 | 255 | 0.9 | 2.6 | 0.00 | 0.00 | 0.00 | 40 | 1013.1 |
| 20260831002803 | 95 | 255 | 0.9 | 2.6 | 0.00 | 0.00 | 0.00 | 40 | 1013.0 |
| 20260831002703 | 95 | 255 | 1.7 | 2.6 | 0.00 | 0.00 | 0.00 | 40 | 1013.0 |
| 20260831002603 | 95 | 255 | 1.7 | 2.6 | 0.00 | 0.00 | 0.00 | 40 | 1013.0 |
| 20260831002503 | 95 | 255 | 1.7 | 2.6 | 0.00 | 0.00 | 0.00 | 40 | 1013.0 |
| 20260831002403 | 95 | 255 | 1.7 | 3.5 | 0.00 | 0.00 | 0.00 | 40 | 1012.9 |
| 20260831002306 | 95 | 255 | 1.7 | 3.5 | 0.00 | 0.00 | 0.00 | 40 | 1013.0 |
| 20260831002203 | 95 | 255 | 1.7 | 4.3 | 0.00 | 0.00 | 0.00 | 40 | 1013.0 |
| 20260831002124 | 95 | 255 | 1.7 | 4.3 | 0.00 | 0.00 | 0.00 | 39 | 1012.9 |
| 20260831002003 | 95 | 254 | 1.7 | 4.3 | 0.00 | 0.00 | 0.00 | 39 | 1013.0 |
| 20260831001924 | 95 | 254 | 1.7 | 4.3 | 0.00 | 0.00 | 0.00 | 39 | 1013.0 |
| 20260831001803 | 95 | 254 | 1.7 | 4.3 | 0.00 | 0.00 | 0.00 | 40 | 1012.9 |
| 20260831001704 | 95 | 254 | 1.7 | 4.3 | 0.00 | 0.00 | 0.00 | 40 | 1012.9 |
| 20260831001603 | 95 | 254 | 1.7 | 4.3 | 0.00 | 0.00 | 0.00 | 40 | 1012.9 |
| 20260831001503 | 95 | 254 | 1.7 | 4.3 | 0.00 | 0.00 | 0.00 | 40 | 1012.9 |
| 20260831001403 | 95 | 254 | 1.7 | 4.3 | 0.00 | 0.00 | 0.00 | 40 | 1012.9 |
| 20260831001303 | 95 | 253 | 1.7 | 4.3 | 0.00 | 0.00 | 0.00 | 40 | 1012.9 |
| 20260831001203 | 95 | 253 | 1.7 | 3.5 | 0.00 | 0.00 | 0.00 | 39 | 1012.9 |
| 20260831001103 | 95 | 254 | 1.7 | 5.2 | 0.00 | 0.00 | 0.00 | 40 | 1012.9 |
| 20260831001003 | 95 | 255 | 1.7 | 5.2 | 0.00 | 0.00 | 0.00 | 40 | 1012.9 |
| 20260831000903 | 95 | 257 | 1.7 | 5.2 | 0.00 | 0.00 | 0.00 | 40 | 1012.9 |
| 20260831000803 | 95 | 258 | 1.7 | 5.2 | 0.00 | 0.00 | 0.00 | 40 | 1012.9 |
| 20260831000703 | 95 | 260 | 0.9 | 5.2 | 0.00 | 0.00 | 0.00 | 40 | 1012.9 |
| 20260831000603 | 95 | 262 | 1.7 | 5.2 | 0.00 | 0.00 | 0.00 | 40 | 1012.9 |
| 20260831000524 | 95 | 262 | 1.7 | 5.2 | 0.00 | 0.00 | 0.00 | 40 | 1012.9 |
| 20260831000403 | 95 | 263 | 1.7 | 5.2 | 0.00 | 0.00 | 0.00 | 40 | 1012.9 |
| 20260831000303 | 95 | 265 | 1.7 | 5.2 | 0.00 | 0.00 | 0.00 | 40 | 1013.0 |
| 20260831000204 | 95 | 267 | 1.7 | 5.2 | 0.00 | 0.00 | 0.00 | 40 | 1012.9 |
| 20260831000103 | 95 | 268 | 1.7 | 4.3 | 0.00 | 0.00 | 0.00 | 40 | 1012.9 |
| 20260831000003 | 95 | 272 | 1.7 | 4.3 | 0.00 | 0.00 | 0.00 | 39 | 1013.0 |
| 20260830235903 | 95 | 273 | 1.7 | 4.3 | 0.00 | 0.00 | 0.00 | 39 | 1013.0 |
| 20260830235803 | 95 | 275 | 1.7 | 4.3 | 0.00 | 0.00 | 0.00 | 39 | 1013.0 |
| 20260830235703 | 95 | 279 | 1.7 | 4.3 | 0.00 | 0.00 | 0.00 | 39 | 1013.0 |
| 20260830235603 | 95 | 284 | 1.7 | 4.3 | 0.00 | 0.00 | 0.00 | 39 | 1013.0 |
| 20260830235506 | 95 | 286 | 1.7 | 4.3 | 0.00 | 0.00 | 0.00 | 39 | 1013.0 |
| 20260830235403 | 95 | 290 | 1.7 | 4.3 | 0.00 | 0.00 | 0.00 | 39 | 1013.0 |
| 20260830235305 | 95 | 290 | 1.7 | 4.3 | 0.00 | 0.00 | 0.00 | 39 | 1013.0 |
| 20260830235203 | 96 | 290 | 1.7 | 4.3 | 0.00 | 0.00 | 0.00 | 39 | 1013.0 |
| 20260830235103 | 96 | 293 | 1.7 | 4.3 | 0.00 | 0.00 | 0.00 | 39 | 1013.0 |
| 20260830235024 | 96 | 291 | 1.7 | 4.3 | 0.00 | 0.00 | 0.00 | 39 | 1013.0 |
| 20260830234903 | 96 | 289 | 1.7 | 4.3 | 0.00 | 0.00 | 0.00 | 39 | 1013.0 |
| 20260830234803 | 96 | 285 | 1.7 | 4.3 | 0.00 | 0.00 | 0.00 | 39 | 1013.0 |
| 20260830234724 | 96 | 283 | 1.7 | 4.3 | 0.00 | 0.00 | 0.00 | 39 | 1013.1 |
| 20260830234604 | 96 | 277 | 1.7 | 4.3 | 0.00 | 0.00 | 0.00 | 38 | 1013.0 |
| 20260830234503 | 96 | 273 | 1.7 | 4.3 | 0.00 | 0.00 | 0.00 | 38 | 1013.1 |
| 20260830234403 | 96 | 266 | 0.9 | 4.3 | 0.00 | 0.00 | 0.00 | 38 | 1013.1 |
| 20260830234303 | 96 | 263 | 0.9 | 3.5 | 0.00 | 0.00 | 0.00 | 39 | 1013.0 |
| 20260830234224 | 96 | 262 | 0.9 | 3.5 | 0.00 | 0.00 | 0.00 | 39 | 1013.0 |
| 20260830234103 | 96 | 262 | 1.7 | 4.3 | 0.00 | 0.00 | 0.00 | 38 | 1013.0 |
| 20260830234003 | 96 | 260 | 1.7 | 4.3 | 0.00 | 0.00 | 0.00 | 38 | 1013.0 |
| 20260830233903 | 96 | 260 | 1.7 | 4.3 | 0.00 | 0.00 | 0.00 | 38 | 1013.1 |
| 20260830233803 | 96 | 260 | 1.7 | 4.3 | 0.00 | 0.00 | 0.00 | 38 | 1013.0 |
| 20260830233703 | 96 | 260 | 1.7 | 5.2 | 0.00 | 0.00 | 0.00 | 38 | 1013.1 |
| 20260830233603 | 97 | 263 | 1.7 | 5.2 | 0.00 | 0.00 | 0.00 | 38 | 1013.1 |
| 20260830233503 | 97 | 269 | 1.7 | 5.2 | 0.00 | 0.00 | 0.00 | 38 | 1013.1 |
| 20260830233403 | 97 | 271 | 1.7 | 5.2 | 0.00 | 0.00 | 0.00 | 38 | 1013.1 |
| 20260830233324 | 96 | 270 | 1.7 | 5.2 | 0.00 | 0.00 | 0.00 | 38 | 1013.1 |
| 20260830233203 | 97 | 271 | 1.7 | 5.2 | 0.00 | 0.00 | 0.00 | 38 | 1013.1 |
| 20260830233103 | 97 | 275 | 1.7 | 5.2 | 0.00 | 0.00 | 0.00 | 38 | 1013.1 |
| 20260830233003 | 97 | 279 | 1.7 | 5.2 | 0.00 | 0.00 | 0.00 | 38 | 1013.1 |
| 20260830232903 | 97 | 287 | 1.7 | 5.2 | 0.00 | 0.00 | 0.00 | 38 | 1013.1 |
| 20260830232803 | 96 | 289 | 1.7 | 5.2 | 0.00 | 0.00 | 0.00 | 38 | 1013.0 |
| 20260830232703 | 96 | 294 | 2.6 | 6.1 | 0.00 | 0.00 | 0.00 | 38 | 1013.0 |
| 20260830232603 | 96 | 293 | 2.6 | 7.8 | 0.00 | 0.00 | 0.00 | 38 | 1013.1 |
| 20260830232524 | 96 | 295 | 2.6 | 7.8 | 0.00 | 0.00 | 0.00 | 38 | 1013.1 |
| 20260830232403 | 96 | 294 | 2.6 | 7.8 | 0.00 | 0.00 | 0.00 | 38 | 1013.1 |
| 20260830232305 | 96 | 299 | 2.6 | 7.8 | 0.00 | 0.00 | 0.00 | 38 | 1013.1 |
| 20260830232203 | 96 | 302 | 2.6 | 7.8 | 0.00 | 0.00 | 0.00 | 38 | 1013.1 |
| 20260830232103 | 97 | 301 | 2.6 | 7.8 | 0.00 | 0.00 | 0.00 | 38 | 1013.0 |
| 20260830232024 | 97 | 300 | 3.5 | 7.8 | 0.00 | 0.00 | 0.00 | 38 | 1013.0 |
| 20260830231903 | 97 | 295 | 3.5 | 7.8 | 0.00 | 0.00 | 0.00 | 37 | 1013.1 |
| 20260830231803 | 97 | 293 | 3.5 | 7.8 | 0.00 | 0.00 | 0.00 | 37 | 1013.0 |
| 20260830231703 | 97 | 288 | 3.5 | 7.8 | 0.00 | 0.00 | 0.00 | 37 | 1013.0 |
| 20260830231603 | 97 | 288 | 3.5 | 7.0 | 0.00 | 0.00 | 0.00 | 37 | 1013.0 |
| 20260830231503 | 97 | 283 | 3.5 | 7.0 | 0.00 | 0.00 | 0.00 | 37 | 1013.0 |
| 20260830231403 | 97 | 286 | 3.5 | 7.0 | 0.00 | 0.00 | 0.00 | 37 | 1013.0 |
| 20260830231303 | 97 | 287 | 3.5 | 8.7 | 0.00 | 0.00 | 0.00 | 37 | 1013.0 |
| 20260830231203 | 98 | 284 | 3.5 | 8.7 | 0.00 | 0.00 | 0.00 | 37 | 1013.1 |
| 20260830231103 | 98 | 284 | 3.5 | 8.7 | 0.00 | 0.00 | 0.00 | 37 | 1013.0 |
| 20260830231003 | 98 | 286 | 3.5 | 8.7 | 0.00 | 0.00 | 0.00 | 37 | 1013.0 |
| 20260830230903 | 98 | 285 | 3.5 | 8.7 | 0.00 | 0.00 | 0.00 | 37 | 1013.0 |
| 20260830230824 | 98 | 285 | 3.5 | 8.7 | 0.00 | 0.00 | 0.00 | 37 | 1013.0 |
| 20260830230724 | 98 | 286 | 3.5 | 8.7 | 0.00 | 0.00 | 0.00 | 37 | 1013.0 |
| 20260830230624 | 98 | 285 | 3.5 | 8.7 | 0.00 | 0.00 | 0.00 | 37 | 1013.0 |
| 20260830230503 | 98 | 286 | 3.5 | 8.7 | 0.00 | 0.00 | 0.00 | 37 | 1013.1 |
| 20260830230403 | 98 | 279 | 3.5 | 8.7 | 0.00 | 0.00 | 0.00 | 37 | 1013.1 |
| 20260830230303 | 98 | 276 | 2.6 | 7.8 | 0.00 | 0.00 | 0.00 | 37 | 1013.0 |
| 20260830230204 | 98 | 273 | 3.5 | 7.0 | 0.00 | 0.00 | 0.00 | 37 | 1013.0 |
| 20260830230103 | 98 | 273 | 2.6 | 7.0 | 0.00 | 0.00 | 0.00 | 37 | 1013.0 |
| 20260830230004 | 98 | 273 | 2.6 | 7.0 | 0.00 | 0.00 | 0.00 | 37 | 1013.0 |
| 20260830225924 | 98 | 273 | 2.6 | 6.1 | 0.00 | 0.00 | 0.00 | 37 | 1013.0 |
| 20260830225803 | 98 | 274 | 2.6 | 6.1 | 0.00 | 0.00 | 0.00 | 37 | 1013.0 |
| 20260830225704 | 98 | 274 | 2.6 | 6.1 | 0.00 | 0.00 | 0.00 | 37 | 1013.0 |
| 20260830225624 | 98 | 275 | 1.7 | 6.1 | 0.00 | 0.00 | 0.00 | 37 | 1013.0 |
| 20260830225505 | 98 | 274 | 1.7 | 5.2 | 0.00 | 0.00 | 0.00 | 37 | 1013.0 |
| 20260830225403 | 98 | 278 | 1.7 | 5.2 | 0.00 | 0.00 | 0.00 | 37 | 1013.0 |
| 20260830225305 | 98 | 280 | 2.6 | 5.2 | 0.00 | 0.00 | 0.00 | 37 | 1013.0 |
| 20260830225203 | 98 | 284 | 1.7 | 5.2 | 0.00 | 0.00 | 0.00 | 37 | 1013.1 |
| 20260830225124 | 98 | 283 | 1.7 | 5.2 | 0.00 | 0.00 | 0.00 | 37 | 1013.1 |
| 20260830225003 | 98 | 281 | 1.7 | 5.2 | 0.00 | 0.00 | 0.00 | 37 | 1013.1 |
| 20260830224903 | 98 | 281 | 2.6 | 6.1 | 0.00 | 0.00 | 0.00 | 37 | 1013.0 |
| 20260830224824 | 98 | 280 | 1.7 | 6.1 | 0.00 | 0.00 | 0.00 | 37 | 1013.0 |
| 20260830224724 | 98 | 280 | 1.7 | 6.1 | 0.00 | 0.00 | 0.00 | 37 | 1013.0 |
| 20260830224624 | 98 | 285 | 2.6 | 6.1 | 0.00 | 0.00 | 0.00 | 37 | 1013.1 |
| 20260830224503 | 98 | 291 | 2.6 | 7.8 | 0.00 | 0.00 | 0.00 | 37 | 1013.1 |
| 20260830224403 | 98 | 300 | 2.6 | 7.8 | 0.00 | 0.00 | 0.00 | 37 | 1013.1 |
| 20260830224303 | 98 | 305 | 2.6 | 7.8 | 0.00 | 0.00 | 0.00 | 37 | 1013.0 |
| 20260830224203 | 98 | 312 | 3.5 | 7.8 | 0.00 | 0.00 | 0.00 | 37 | 1013.0 |
| 20260830224103 | 98 | 315 | 3.5 | 7.8 | 0.00 | 0.00 | 0.00 | 36 | 1013.1 |
| 20260830224003 | 98 | 321 | 3.5 | 7.8 | 0.00 | 0.00 | 0.00 | 37 | 1013.1 |
| 20260830223903 | 98 | 321 | 3.5 | 7.8 | 0.00 | 0.00 | 0.00 | 37 | 1013.1 |
| 20260830223824 | 98 | 319 | 3.5 | 7.8 | 0.00 | 0.00 | 0.00 | 36 | 1013.0 |
| 20260830223703 | 98 | 316 | 3.5 | 7.8 | 0.00 | 0.00 | 0.00 | 36 | 1013.1 |
| 20260830223603 | 98 | 310 | 3.5 | 7.8 | 0.00 | 0.00 | 0.00 | 36 | 1013.1 |
| 20260830223524 | 98 | 307 | 2.6 | 7.0 | 0.00 | 0.00 | 0.00 | 36 | 1013.1 |
| 20260830223424 | 98 | 298 | 2.6 | 7.0 | 0.00 | 0.00 | 0.00 | 36 | 1013.1 |
| 20260830223303 | 98 | 275 | 2.6 | 7.0 | 0.00 | 0.00 | 0.00 | 37 | 1013.1 |
| 20260830223203 | 98 | 266 | 2.6 | 7.0 | 0.00 | 0.00 | 0.00 | 37 | 1013.1 |
| 20260830223103 | 98 | 265 | 2.6 | 7.0 | 0.00 | 0.00 | 0.00 | 37 | 1013.2 |
| 20260830223003 | 98 | 268 | 2.6 | 7.0 | 0.00 | 0.00 | 0.00 | 36 | 1013.2 |
| 20260830222903 | 98 | 271 | 2.6 | 7.0 | 0.00 | 0.00 | 0.00 | 36 | 1013.2 |
| 20260830222803 | 98 | 270 | 2.6 | 7.0 | 0.00 | 0.00 | 0.00 | 37 | 1013.1 |
| 20260830222703 | 97 | 271 | 2.6 | 7.0 | 0.00 | 0.00 | 0.00 | 37 | 1013.1 |
| 20260830222603 | 97 | 270 | 2.6 | 7.0 | 0.00 | 0.00 | 0.00 | 37 | 1013.2 |
| 20260830222503 | 97 | 273 | 2.6 | 7.0 | 0.00 | 0.00 | 0.00 | 37 | 1013.1 |
| 20260830222403 | 97 | 275 | 2.6 | 7.0 | 0.00 | 0.00 | 0.00 | 36 | 1013.1 |
| 20260830222306 | 98 | 283 | 2.6 | 7.0 | 0.00 | 0.00 | 0.00 | 37 | 1013.2 |
| 20260830222224 | 98 | 286 | 2.6 | 7.0 | 0.00 | 0.00 | 0.00 | 36 | 1013.2 |
| 20260830222103 | 97 | 282 | 2.6 | 7.0 | 0.00 | 0.00 | 0.00 | 37 | 1013.2 |
| 20260830222003 | 97 | 276 | 2.6 | 7.0 | 0.00 | 0.00 | 0.00 | 38 | 1013.2 |
| 20260830221903 | 97 | 274 | 2.6 | 7.0 | 0.00 | 0.00 | 0.00 | 37 | 1013.3 |
| 20260830221803 | 97 | 278 | 2.6 | 7.0 | 0.00 | 0.00 | 0.00 | 37 | 1013.2 |
| 20260830221703 | 97 | 280 | 2.6 | 7.0 | 0.00 | 0.00 | 0.00 | 37 | 1013.2 |
| 20260830221603 | 97 | 285 | 1.7 | 7.0 | 0.00 | 0.00 | 0.00 | 37 | 1013.2 |
| 20260830221503 | 97 | 289 | 1.7 | 7.0 | 0.00 | 0.00 | 0.00 | 37 | 1013.2 |
| 20260830221403 | 97 | 292 | 1.7 | 7.0 | 0.00 | 0.00 | 0.00 | 38 | 1013.2 |
| 20260830221303 | 97 | 296 | 1.7 | 7.0 | 0.00 | 0.00 | 0.00 | 38 | 1013.2 |
| 20260830221224 | 97 | 297 | 1.7 | 7.0 | 0.00 | 0.00 | 0.00 | 37 | 1013.2 |
| 20260830221103 | 97 | 307 | 1.7 | 6.1 | 0.00 | 0.00 | 0.00 | 37 | 1013.2 |
| 20260830221003 | 97 | 315 | 1.7 | 6.1 | 0.00 | 0.00 | 0.00 | 37 | 1013.3 |
| 20260830220903 | 97 | 320 | 1.7 | 7.0 | 0.00 | 0.00 | 0.00 | 38 | 1013.3 |
| 20260830220803 | 97 | 320 | 1.7 | 7.0 | 0.00 | 0.00 | 0.00 | 38 | 1013.3 |
| 20260830220703 | 97 | 320 | 1.7 | 7.0 | 0.00 | 0.00 | 0.00 | 38 | 1013.2 |
| 20260830220604 | 97 | 319 | 1.7 | 7.0 | 0.00 | 0.00 | 0.00 | 37 | 1013.3 |
| 20260830220503 | 97 | 318 | 1.7 | 7.0 | 0.00 | 0.00 | 0.00 | 38 | 1013.3 |
| 20260830220424 | 97 | 320 | 2.6 | 7.0 | 0.00 | 0.00 | 0.00 | 38 | 1013.2 |
| 20260830220324 | 97 | 324 | 2.6 | 7.0 | 0.00 | 0.00 | 0.00 | 38 | 1013.2 |
| 20260830220203 | 97 | 322 | 2.6 | 7.0 | 0.00 | 0.00 | 0.00 | 38 | 1013.2 |
| 20260830220024 | 97 | 314 | 2.6 | 7.0 | 0.00 | 0.00 | 0.00 | 38 | 1013.3 |
| 20260830215903 | 97 | 316 | 2.6 | 7.0 | 0.00 | 0.00 | 0.00 | 38 | 1013.3 |
| 20260830215803 | 97 | 327 | 3.5 | 8.7 | 0.00 | 0.00 | 0.00 | 38 | 1013.3 |
| 20260830215703 | 97 | 328 | 3.5 | 8.7 | 0.00 | 0.00 | 0.00 | 38 | 1013.3 |
| 20260830215603 | 97 | 326 | 3.5 | 8.7 | 0.00 | 0.00 | 0.00 | 37 | 1013.3 |
| 20260830215503 | 97 | 325 | 2.6 | 8.7 | 0.00 | 0.00 | 0.00 | 38 | 1013.4 |
| 20260830215403 | 97 | 319 | 2.6 | 8.7 | 0.00 | 0.00 | 0.00 | 37 | 1013.3 |
| 20260830215305 | 97 | 312 | 2.6 | 8.7 | 0.00 | 0.00 | 0.00 | 37 | 1013.4 |
| 20260830215203 | 97 | 319 | 2.6 | 8.7 | 0.00 | 0.00 | 0.00 | 37 | 1013.4 |
| 20260830215124 | 97 | 322 | 3.5 | 8.7 | 0.00 | 0.00 | 0.00 | 37 | 1013.4 |
| 20260830215003 | 97 | 333 | 2.6 | 8.7 | 0.00 | 0.00 | 0.00 | 37 | 1013.4 |
| 20260830214903 | 97 | 328 | 2.6 | 8.7 | 0.00 | 0.00 | 0.00 | 37 | 1013.4 |
| 20260830214824 | 97 | 316 | 2.6 | 8.7 | 0.00 | 0.00 | 0.00 | 38 | 1013.4 |
| 20260830214703 | 97 | 297 | 2.6 | 8.7 | 0.00 | 0.00 | 0.00 | 37 | 1013.4 |
| 20260830214603 | 97 | 299 | 2.6 | 8.7 | 0.00 | 0.00 | 0.00 | 37 | 1013.4 |
| 20260830214503 | 97 | 306 | 2.6 | 8.7 | 0.00 | 0.00 | 0.00 | 37 | 1013.4 |
| 20260830214403 | 97 | 312 | 2.6 | 8.7 | 0.00 | 0.00 | 0.00 | 37 | 1013.5 |
| 20260830214303 | 98 | 324 | 2.6 | 8.7 | 0.00 | 0.00 | 0.00 | 37 | 1013.5 |
| 20260830214224 | 98 | 332 | 2.6 | 8.7 | 0.00 | 0.00 | 0.00 | 36 | 1013.5 |
| 20260830214103 | 98 | 330 | 2.6 | 8.7 | 0.00 | 0.00 | 0.00 | 36 | 1013.4 |
| 20260830214003 | 98 | 357 | 2.6 | 5.2 | 0.00 | 0.00 | 0.00 | 36 | 1013.5 |
| 20260830213903 | 98 | 12 | 2.6 | 5.2 | 0.00 | 0.00 | 0.00 | 36 | 1013.4 |
| 20260830213803 | 98 | 28 | 2.6 | 5.2 | 0.00 | 0.00 | 0.00 | 36 | 1013.4 |
| 20260830213703 | 98 | 34 | 1.7 | 7.8 | 0.00 | 0.00 | 0.00 | 37 | 1013.5 |
| 20260830213624 | 98 | 36 | 1.7 | 7.8 | 0.00 | 0.00 | 0.00 | 37 | 1013.4 |
| 20260830213503 | 98 | 38 | 1.7 | 7.8 | 0.00 | 0.00 | 0.00 | 37 | 1013.5 |
| 20260830213403 | 98 | 38 | 1.7 | 7.8 | 0.00 | 0.00 | 0.00 | 37 | 1013.5 |
| 20260830213324 | 98 | 39 | 1.7 | 7.8 | 0.00 | 0.00 | 0.00 | 37 | 1013.5 |
| 20260830213203 | 97 | 38 | 1.7 | 7.8 | 0.00 | 0.00 | 0.00 | 38 | 1013.5 |
| 20260830213103 | 97 | 27 | 1.7 | 7.8 | 0.00 | 0.00 | 0.00 | 38 | 1013.6 |
| 20260830213003 | 97 | 23 | 1.7 | 7.8 | 0.00 | 0.00 | 0.00 | 38 | 1013.6 |
| 20260830212903 | 97 | 6 | 1.7 | 7.8 | 0.00 | 0.00 | 0.00 | 38 | 1013.6 |
| 20260830212803 | 97 | 339 | 1.7 | 7.8 | 0.00 | 0.00 | 0.00 | 38 | 1013.7 |
| 20260830212724 | 97 | 330 | 1.7 | 7.8 | 0.00 | 0.00 | 0.00 | 38 | 1013.7 |
| 20260830212603 | 96 | 302 | 1.7 | 7.8 | 0.00 | 0.00 | 0.00 | 38 | 1013.8 |
| 20260830212505 | 96 | 286 | 2.6 | 7.8 | 0.00 | 0.00 | 0.00 | 38 | 1013.8 |
| 20260830212403 | 96 | 274 | 2.6 | 7.8 | 0.00 | 0.00 | 0.00 | 38 | 1013.8 |
| 20260830212324 | 96 | 268 | 2.6 | 7.8 | 0.00 | 0.00 | 0.00 | 38 | 1013.8 |
| 20260830212203 | 96 | 269 | 2.6 | 7.8 | 0.00 | 0.00 | 0.00 | 38 | 1013.8 |
| 20260830212103 | 96 | 267 | 2.6 | 7.8 | 0.00 | 0.00 | 0.00 | 39 | 1013.9 |
| 20260830212003 | 96 | 270 | 2.6 | 7.8 | 0.00 | 0.00 | 0.00 | 38 | 1013.8 |
| 20260830211903 | 96 | 285 | 2.6 | 7.8 | 0.00 | 0.00 | 0.00 | 38 | 1013.8 |
| 20260830211803 | 96 | 288 | 3.5 | 7.8 | 0.00 | 0.00 | 0.00 | 39 | 1013.9 |
| 20260830211703 | 96 | 287 | 3.5 | 7.8 | 0.00 | 0.00 | 0.00 | 38 | 1013.9 |
| 20260830211603 | 96 | 296 | 3.5 | 7.8 | 0.00 | 0.00 | 0.00 | 38 | 1013.9 |
| 20260830211503 | 96 | 308 | 3.5 | 7.8 | 0.00 | 0.00 | 0.00 | 38 | 1013.9 |
| 20260830211403 | 96 | 322 | 3.5 | 7.8 | 0.00 | 0.00 | 0.00 | 38 | 1014.0 |
| 20260830211303 | 97 | 339 | 3.5 | 7.8 | 0.00 | 0.00 | 0.00 | 37 | 1013.9 |
| 20260830211224 | 97 | 352 | 3.5 | 7.8 | 0.00 | 0.00 | 0.00 | 37 | 1014.0 |
| 20260830211103 | 97 | 11 | 3.5 | 7.8 | 0.00 | 0.00 | 0.00 | 37 | 1014.0 |
| 20260830211003 | 97 | 11 | 3.5 | 7.8 | 0.00 | 0.00 | 0.00 | 37 | 1014.0 |
| 20260830210903 | 98 | 26 | 2.6 | 7.8 | 0.00 | 0.00 | 0.00 | 37 | 1014.0 |
| 20260830210803 | 98 | 41 | 2.6 | 7.8 | 0.00 | 0.00 | 0.00 | 37 | 1014.0 |
| 20260830210703 | 97 | 45 | 2.6 | 7.8 | 0.00 | 0.00 | 0.00 | 37 | 1014.0 |
| 20260830210603 | 97 | 45 | 2.6 | 7.0 | 0.00 | 0.00 | 0.00 | 37 | 1014.1 |
| 20260830210503 | 97 | 44 | 2.6 | 7.0 | 0.00 | 0.00 | 0.00 | 38 | 1014.1 |
| 20260830210424 | 97 | 44 | 2.6 | 7.0 | 0.00 | 0.00 | 0.00 | 38 | 1014.1 |
| 20260830210303 | 97 | 47 | 2.6 | 7.0 | 0.00 | 0.00 | 0.00 | 37 | 1014.1 |
| 20260830210203 | 96 | 44 | 1.7 | 7.0 | 0.00 | 0.00 | 0.00 | 37 | 1014.1 |
| 20260830210103 | 96 | 44 | 2.6 | 7.0 | 0.00 | 0.00 | 0.00 | 38 | 1014.1 |
| 20260830210003 | 96 | 43 | 2.6 | 7.0 | 0.00 | 0.00 | 0.00 | 38 | 1014.1 |
| 20260830205903 | 96 | 39 | 2.6 | 7.0 | 0.00 | 0.00 | 0.00 | 38 | 1014.2 |
| 20260830205803 | 96 | 33 | 2.6 | 7.0 | 0.00 | 0.00 | 0.00 | 37 | 1014.2 |
| 20260830205703 | 96 | 18 | 2.6 | 7.0 | 0.00 | 0.00 | 0.00 | 38 | 1014.2 |
| 20260830205603 | 96 | 9 | 2.6 | 6.1 | 0.00 | 0.00 | 0.00 | 37 | 1014.2 |
| 20260830205524 | 96 | 2 | 2.6 | 6.1 | 0.00 | 0.00 | 0.00 | 38 | 1014.2 |
| 20260830205424 | 96 | 345 | 2.6 | 6.1 | 0.00 | 0.00 | 0.00 | 38 | 1014.2 |
| 20260830205324 | 96 | 326 | 3.5 | 7.0 | 0.00 | 0.00 | 0.00 | 38 | 1014.3 |
| 20260830205203 | 96 | 311 | 3.5 | 8.7 | 0.00 | 0.00 | 0.00 | 38 | 1014.3 |
| 20260830205103 | 96 | 310 | 3.5 | 8.7 | 0.00 | 0.00 | 0.00 | 38 | 1014.3 |
| 20260830205003 | 96 | 311 | 3.5 | 8.7 | 0.00 | 0.00 | 0.00 | 38 | 1014.3 |
| 20260830204903 | 96 | 316 | 3.5 | 8.7 | 0.00 | 0.00 | 0.00 | 38 | 1014.3 |
| 20260830204803 | 96 | 323 | 4.3 | 8.7 | 0.00 | 0.00 | 0.00 | 38 | 1014.3 |
| 20260830204703 | 96 | 328 | 4.3 | 8.7 | 0.00 | 0.00 | 0.00 | 38 | 1014.4 |
| 20260830204603 | 96 | 338 | 4.3 | 8.7 | 0.00 | 0.00 | 0.00 | 38 | 1014.4 |
| 20260830204503 | 97 | 345 | 4.3 | 8.7 | 0.00 | 0.00 | 0.00 | 38 | 1014.4 |
| 20260830204403 | 97 | 351 | 4.3 | 8.7 | 0.00 | 0.00 | 0.00 | 38 | 1014.4 |
| 20260830204303 | 97 | 354 | 3.5 | 8.7 | 0.00 | 0.00 | 0.00 | 37 | 1014.4 |
| 20260830204203 | 97 | 4 | 3.5 | 8.7 | 0.00 | 0.00 | 0.00 | 37 | 1014.4 |
| 20260830204103 | 97 | 5 | 3.5 | 8.7 | 0.00 | 0.00 | 0.00 | 37 | 1014.4 |
| 20260830204003 | 97 | 354 | 3.5 | 8.7 | 0.00 | 0.00 | 0.00 | 36 | 1014.4 |
| 20260830203903 | 97 | 338 | 3.5 | 8.7 | 0.00 | 0.00 | 0.00 | 37 | 1014.4 |
| 20260830203803 | 97 | 331 | 3.5 | 8.7 | 0.00 | 0.00 | 0.00 | 37 | 1014.4 |
| 20260830203703 | 97 | 322 | 2.6 | 8.7 | 0.00 | 0.00 | 0.00 | 37 | 1014.4 |
| 20260830203603 | 97 | 310 | 2.6 | 8.7 | 0.00 | 0.00 | 0.00 | 37 | 1014.4 |
| 20260830203503 | 97 | 308 | 2.6 | 8.7 | 0.00 | 0.00 | 0.00 | 37 | 1014.4 |
| 20260830203403 | 97 | 309 | 2.6 | 8.7 | 0.00 | 0.00 | 0.00 | 37 | 1014.5 |
| 20260830203303 | 97 | 310 | 3.5 | 8.7 | 0.00 | 0.00 | 0.00 | 37 | 1014.5 |
| 20260830203203 | 97 | 306 | 3.5 | 7.8 | 0.00 | 0.00 | 0.00 | 37 | 1014.5 |
| 20260830203103 | 97 | 304 | 2.6 | 8.7 | 0.00 | 0.00 | 0.00 | 37 | 1014.5 |
| 20260830203024 | 96 | 305 | 2.6 | 8.7 | 0.00 | 0.00 | 0.00 | 37 | 1014.5 |
| 20260830202903 | 96 | 301 | 2.6 | 8.7 | 0.00 | 0.00 | 0.00 | 38 | 1014.5 |
| 20260830202803 | 96 | 302 | 2.6 | 8.7 | 0.00 | 0.00 | 0.00 | 38 | 1014.5 |
| 20260830202703 | 96 | 306 | 2.6 | 8.7 | 0.00 | 0.00 | 0.00 | 38 | 1014.6 |
| 20260830202624 | 96 | 306 | 3.5 | 8.7 | 0.00 | 0.00 | 0.00 | 38 | 1014.5 |
| 20260830202503 | 96 | 309 | 3.5 | 8.7 | 0.00 | 0.00 | 0.00 | 38 | 1014.6 |
| 20260830202403 | 96 | 313 | 3.5 | 8.7 | 0.00 | 0.00 | 0.00 | 38 | 1014.6 |
| 20260830202305 | 96 | 313 | 3.5 | 8.7 | 0.00 | 0.00 | 0.00 | 38 | 1014.7 |
| 20260830202203 | 96 | 310 | 3.5 | 8.7 | 0.00 | 0.00 | 0.00 | 38 | 1014.7 |
| 20260830202103 | 96 | 311 | 3.5 | 8.7 | 0.00 | 0.00 | 0.00 | 38 | 1014.7 |
| 20260830202003 | 96 | 312 | 2.6 | 8.7 | 0.00 | 0.00 | 0.00 | 38 | 1014.7 |
| 20260830201924 | 96 | 314 | 2.6 | 8.7 | 0.00 | 0.00 | 0.00 | 37 | 1014.8 |
| 20260830201803 | 97 | 318 | 2.6 | 8.7 | 0.00 | 0.00 | 0.00 | 38 | 1014.8 |
| 20260830201703 | 97 | 329 | 2.6 | 8.7 | 0.00 | 0.00 | 0.00 | 37 | 1014.8 |
| 20260830201603 | 97 | 330 | 2.6 | 8.7 | 0.00 | 0.00 | 0.00 | 37 | 1014.7 |
| 20260830201503 | 97 | 314 | 2.6 | 8.7 | 0.00 | 0.00 | 0.00 | 37 | 1014.8 |
| 20260830201403 | 97 | 299 | 2.6 | 8.7 | 0.00 | 0.00 | 0.00 | 37 | 1014.8 |
| 20260830201303 | 97 | 298 | 2.6 | 8.7 | 0.00 | 0.00 | 0.00 | 37 | 1014.8 |
| 20260830201203 | 97 | 303 | 2.6 | 8.7 | 0.00 | 0.00 | 0.00 | 36 | 1014.8 |
| 20260830201103 | 97 | 313 | 3.5 | 9.6 | 0.00 | 0.00 | 0.00 | 36 | 1014.8 |
| 20260830201003 | 97 | 325 | 3.5 | 9.6 | 0.00 | 0.00 | 0.00 | 36 | 1014.8 |
| 20260830200903 | 97 | 331 | 4.3 | 9.6 | 0.00 | 0.00 | 0.00 | 37 | 1014.9 |
| 20260830200803 | 97 | 334 | 3.5 | 9.6 | 0.00 | 0.00 | 0.00 | 37 | 1014.9 |
| 20260830200703 | 97 | 328 | 3.5 | 9.6 | 0.00 | 0.00 | 0.00 | 37 | 1014.9 |
| 20260830200624 | 97 | 327 | 3.5 | 9.6 | 0.00 | 0.00 | 0.00 | 36 | 1014.9 |
| 20260830200503 | 97 | 326 | 3.5 | 9.6 | 0.00 | 0.00 | 0.00 | 36 | 1014.9 |
| 20260830200403 | 97 | 323 | 3.5 | 9.6 | 0.00 | 0.00 | 0.00 | 36 | 1015.0 |
| 20260830200303 | 97 | 316 | 3.5 | 9.6 | 0.00 | 0.00 | 0.00 | 36 | 1015.0 |
| 20260830200203 | 97 | 308 | 3.5 | 9.6 | 0.00 | 0.00 | 0.00 | 36 | 1015.0 |
| 20260830200103 | 97 | 294 | 3.5 | 8.7 | 0.00 | 0.00 | 0.00 | 36 | 1015.0 |
| 20260830200024 | 97 | 286 | 3.5 | 8.7 | 0.00 | 0.00 | 0.00 | 36 | 1015.1 |
| 20260830195924 | 96 | 279 | 3.5 | 8.7 | 0.00 | 0.00 | 0.00 | 37 | 1015.0 |
| 20260830195803 | 96 | 276 | 3.5 | 8.7 | 0.00 | 0.00 | 0.00 | 37 | 1015.0 |
| 20260830195703 | 96 | 278 | 3.5 | 8.7 | 0.00 | 0.00 | 0.00 | 37 | 1015.0 |
| 20260830195603 | 96 | 282 | 4.3 | 8.7 | 0.00 | 0.00 | 0.00 | 37 | 1015.1 |
| 20260830195503 | 96 | 291 | 4.3 | 8.7 | 0.00 | 0.00 | 0.00 | 37 | 1015.1 |
| 20260830195403 | 96 | 295 | 4.3 | 8.7 | 0.00 | 0.00 | 0.00 | 37 | 1015.1 |
| 20260830195305 | 96 | 305 | 4.3 | 8.7 | 0.00 | 0.00 | 0.00 | 37 | 1015.1 |
| 20260830195224 | 96 | 316 | 4.3 | 11.3 | 0.00 | 0.00 | 0.00 | 37 | 1015.1 |
| 20260830195103 | 96 | 343 | 4.3 | 11.3 | 0.00 | 0.00 | 0.00 | 37 | 1015.1 |
| 20260830195003 | 96 | 5 | 4.3 | 11.3 | 0.00 | 0.00 | 0.00 | 37 | 1015.1 |
| 20260830194903 | 95 | 27 | 5.2 | 11.3 | 0.00 | 0.00 | 0.00 | 38 | 1015.1 |
| 20260830194824 | 95 | 34 | 5.2 | 11.3 | 0.00 | 0.00 | 0.00 | 37 | 1015.2 |
| 20260830194703 | 95 | 42 | 5.2 | 11.3 | 0.00 | 0.00 | 0.00 | 38 | 1015.2 |
| 20260830194603 | 95 | 47 | 5.2 | 11.3 | 0.00 | 0.00 | 0.00 | 37 | 1015.2 |
| 20260830194503 | 95 | 49 | 5.2 | 11.3 | 0.00 | 0.00 | 0.00 | 37 | 1015.2 |
| 20260830194403 | 95 | 45 | 5.2 | 11.3 | 0.00 | 0.00 | 0.00 | 37 | 1015.2 |
| 20260830194303 | 95 | 45 | 5.2 | 11.3 | 0.00 | 0.00 | 0.00 | 38 | 1015.3 |
| 20260830194203 | 95 | 35 | 5.2 | 11.3 | 0.00 | 0.00 | 0.00 | 38 | 1015.2 |
| 20260830194103 | 95 | 35 | 5.2 | 11.3 | 0.00 | 0.00 | 0.00 | 38 | 1015.2 |
| 20260830194003 | 95 | 29 | 5.2 | 11.3 | 0.00 | 0.00 | 0.00 | 37 | 1015.2 |
| 20260830193903 | 96 | 22 | 5.2 | 11.3 | 0.00 | 0.00 | 0.00 | 37 | 1015.3 |
| 20260830193803 | 96 | 13 | 4.3 | 11.3 | 0.00 | 0.00 | 0.00 | 37 | 1015.3 |
| 20260830193703 | 96 | 9 | 4.3 | 11.3 | 0.00 | 0.00 | 0.00 | 37 | 1015.4 |
| 20260830193603 | 95 | 6 | 4.3 | 11.3 | 0.00 | 0.00 | 0.00 | 37 | 1015.4 |
| 20260830193525 | 95 | 3 | 4.3 | 11.3 | 0.00 | 0.00 | 0.00 | 37 | 1015.4 |
| 20260830193403 | 95 | 9 | 5.2 | 12.2 | 0.00 | 0.00 | 0.00 | 37 | 1015.4 |
| 20260830193303 | 95 | 16 | 5.2 | 12.2 | 0.00 | 0.00 | 0.00 | 37 | 1015.5 |
| 20260830193203 | 96 | 29 | 5.2 | 12.2 | 0.00 | 0.00 | 0.00 | 37 | 1015.5 |
| 20260830193103 | 96 | 30 | 6.1 | 12.2 | 0.00 | 0.00 | 0.00 | 36 | 1015.4 |
| 20260830193003 | 96 | 32 | 6.1 | 13.0 | 0.00 | 0.00 | 0.00 | 36 | 1015.5 |
| 20260830192924 | 96 | 33 | 6.1 | 13.0 | 0.00 | 0.00 | 0.00 | 36 | 1015.5 |
| 20260830192803 | 96 | 32 | 6.1 | 13.0 | 0.00 | 0.00 | 0.00 | 37 | 1015.6 |
| 20260830192703 | 95 | 35 | 6.1 | 13.0 | 0.00 | 0.00 | 0.00 | 37 | 1015.6 |
| 20260830192624 | 95 | 36 | 6.1 | 13.0 | 0.00 | 0.00 | 0.00 | 37 | 1015.6 |
| 20260830192503 | 95 | 41 | 6.1 | 13.0 | 0.00 | 0.00 | 0.00 | 37 | 1015.6 |
| 20260830192403 | 95 | 43 | 6.1 | 13.0 | 0.00 | 0.00 | 0.00 | 37 | 1015.6 |
| 20260830192305 | 95 | 44 | 6.1 | 13.0 | 0.00 | 0.00 | 0.00 | 37 | 1015.5 |
| 20260830192203 | 95 | 38 | 6.1 | 13.0 | 0.00 | 0.00 | 0.00 | 37 | 1015.6 |
| 20260830192103 | 96 | 38 | 5.2 | 13.0 | 0.00 | 0.00 | 0.00 | 36 | 1015.7 |
| 20260830192024 | 96 | 40 | 5.2 | 13.0 | 0.00 | 0.00 | 0.00 | 37 | 1015.7 |
| 20260830191903 | 95 | 41 | 4.3 | 10.4 | 0.00 | 0.00 | 0.00 | 37 | 1015.7 |
| 20260830191803 | 95 | 43 | 4.3 | 10.4 | 0.00 | 0.00 | 0.00 | 36 | 1015.7 |
| 20260830191703 | 96 | 38 | 4.3 | 10.4 | 0.00 | 0.00 | 0.00 | 36 | 1015.7 |
| 20260830191603 | 96 | 33 | 4.3 | 10.4 | 0.00 | 0.00 | 0.00 | 36 | 1015.8 |
| 20260830191503 | 96 | 35 | 3.5 | 10.4 | 0.00 | 0.00 | 0.00 | 36 | 1015.8 |
| 20260830191403 | 96 | 36 | 3.5 | 9.6 | 0.00 | 0.00 | 0.00 | 36 | 1015.9 |
| 20260830191324 | 96 | 35 | 3.5 | 9.6 | 0.00 | 0.00 | 0.00 | 36 | 1015.8 |
| 20260830191203 | 96 | 43 | 3.5 | 9.6 | 0.00 | 0.00 | 0.00 | 36 | 1015.9 |
| 20260830191103 | 96 | 47 | 3.5 | 9.6 | 0.00 | 0.00 | 0.00 | 35 | 1015.9 |
| 20260830191003 | 96 | 52 | 3.5 | 7.8 | 0.00 | 0.00 | 0.00 | 36 | 1015.9 |
| 20260830190903 | 96 | 46 | 3.5 | 7.8 | 0.00 | 0.00 | 0.00 | 36 | 1015.9 |
| 20260830190803 | 96 | 44 | 3.5 | 7.8 | 0.00 | 0.00 | 0.00 | 36 | 1015.9 |
| 20260830190703 | 96 | 50 | 3.5 | 7.0 | 0.00 | 0.00 | 0.00 | 35 | 1016.0 |
| 20260830190603 | 96 | 50 | 3.5 | 7.0 | 0.00 | 0.00 | 0.00 | 35 | 1016.0 |
| 20260830190503 | 96 | 43 | 3.5 | 8.7 | 0.00 | 0.00 | 0.00 | 35 | 1016.0 |
| 20260830190403 | 96 | 36 | 2.6 | 8.7 | 0.00 | 0.00 | 0.00 | 35 | 1016.1 |
| 20260830190303 | 96 | 29 | 2.6 | 8.7 | 0.00 | 0.00 | 0.00 | 35 | 1016.1 |
| 20260830190203 | 96 | 29 | 2.6 | 8.7 | 0.00 | 0.00 | 0.00 | 35 | 1016.1 |
| 20260830190103 | 96 | 27 | 3.5 | 8.7 | 0.00 | 0.00 | 0.00 | 35 | 1016.1 |
| 20260830190003 | 96 | 26 | 3.5 | 8.7 | 0.00 | 0.00 | 0.00 | 35 | 1016.1 |
| 20260830185903 | 96 | 30 | 3.5 | 8.7 | 0.00 | 0.00 | 0.00 | 35 | 1016.2 |
| 20260830185824 | 96 | 31 | 3.5 | 8.7 | 0.00 | 0.00 | 0.00 | 35 | 1016.1 |
| 20260830185703 | 96 | 29 | 3.5 | 8.7 | 0.00 | 0.00 | 0.00 | 35 | 1016.2 |
| 20260830185603 | 95 | 33 | 3.5 | 8.7 | 0.00 | 0.00 | 0.00 | 35 | 1016.1 |
| 20260830185503 | 95 | 28 | 3.5 | 8.7 | 0.00 | 0.00 | 0.00 | 35 | 1016.1 |
| 20260830185403 | 95 | 31 | 4.3 | 8.7 | 0.00 | 0.00 | 0.00 | 35 | 1016.1 |
| 20260830185306 | 95 | 32 | 3.5 | 8.7 | 0.00 | 0.00 | 0.00 | 35 | 1016.1 |
| 20260830185224 | 95 | 28 | 3.5 | 8.7 | 0.00 | 0.00 | 0.00 | 35 | 1016.2 |
| 20260830185124 | 95 | 20 | 3.5 | 8.7 | 0.00 | 0.00 | 0.00 | 35 | 1016.2 |
| 20260830185003 | 95 | 1 | 3.5 | 8.7 | 0.00 | 0.00 | 0.00 | 35 | 1016.1 |
| 20260830184903 | 95 | 338 | 3.5 | 8.7 | 0.00 | 0.00 | 0.00 | 34 | 1016.2 |
| 20260830184805 | 95 | 327 | 3.5 | 8.7 | 0.00 | 0.00 | 0.00 | 34 | 1016.2 |
| 20260830184704 | 95 | 329 | 2.6 | 8.7 | 0.00 | 0.00 | 0.00 | 35 | 1016.2 |
| 20260830184624 | 95 | 325 | 3.5 | 9.6 | 0.00 | 0.00 | 0.00 | 34 | 1016.1 |
| 20260830184503 | 95 | 323 | 2.6 | 9.6 | 0.00 | 0.00 | 0.00 | 34 | 1016.1 |
| 20260830184403 | 95 | 330 | 3.5 | 9.6 | 0.00 | 0.00 | 0.00 | 34 | 1016.2 |
| 20260830184303 | 94 | 346 | 3.5 | 9.6 | 0.00 | 0.00 | 0.00 | 34 | 1016.2 |
| 20260830184203 | 94 | 356 | 3.5 | 9.6 | 0.00 | 0.00 | 0.00 | 34 | 1016.2 |
| 20260830184124 | 94 | 6 | 3.5 | 9.6 | 0.00 | 0.00 | 0.00 | 34 | 1016.3 |
| 20260830184024 | 94 | 13 | 3.5 | 9.6 | 0.00 | 0.00 | 0.00 | 34 | 1016.3 |
| 20260830183924 | 94 | 20 | 3.5 | 9.6 | 0.00 | 0.00 | 0.00 | 34 | 1016.3 |
| 20260830183803 | 94 | 24 | 3.5 | 9.6 | 0.00 | 0.00 | 0.00 | 34 | 1016.3 |
| 20260830183703 | 94 | 16 | 3.5 | 9.6 | 0.00 | 0.00 | 0.00 | 34 | 1016.3 |
| 20260830183624 | 94 | 11 | 3.5 | 8.7 | 0.00 | 0.00 | 0.00 | 34 | 1016.3 |
| 20260830183503 | 94 | 13 | 3.5 | 7.8 | 0.00 | 0.00 | 0.00 | 34 | 1016.3 |
| 20260830183403 | 94 | 10 | 3.5 | 7.8 | 0.00 | 0.00 | 0.00 | 34 | 1016.3 |
| 20260830183303 | 94 | 13 | 3.5 | 7.8 | 0.00 | 0.00 | 0.00 | 34 | 1016.3 |
| 20260830183203 | 94 | 16 | 4.3 | 9.6 | 0.00 | 0.00 | 0.00 | 34 | 1016.3 |
| 20260830183103 | 94 | 15 | 4.3 | 9.6 | 0.00 | 0.00 | 0.00 | 34 | 1016.4 |
| 20260830183003 | 94 | 20 | 4.3 | 9.6 | 0.00 | 0.00 | 0.00 | 34 | 1016.3 |
| 20260830182903 | 93 | 28 | 4.3 | 9.6 | 0.00 | 0.00 | 0.00 | 34 | 1016.4 |
| 20260830182803 | 93 | 34 | 5.2 | 9.6 | 0.00 | 0.00 | 0.00 | 34 | 1016.4 |
| 20260830182724 | 93 | 37 | 5.2 | 9.6 | 0.00 | 0.00 | 0.00 | 34 | 1016.4 |
| 20260830182603 | 93 | 44 | 5.2 | 9.6 | 0.00 | 0.00 | 0.00 | 34 | 1016.5 |
| 20260830182503 | 93 | 47 | 4.3 | 9.6 | 0.00 | 0.00 | 0.00 | 34 | 1016.4 |
| 20260830182403 | 93 | 47 | 5.2 | 9.6 | 0.00 | 0.00 | 0.00 | 34 | 1016.5 |
| 20260830182306 | 92 | 49 | 4.3 | 9.6 | 0.00 | 0.00 | 0.00 | 35 | 1016.5 |
| 20260830182203 | 92 | 53 | 4.3 | 9.6 | 0.00 | 0.00 | 0.00 | 34 | 1016.4 |
| 20260830182124 | 92 | 53 | 4.3 | 9.6 | 0.00 | 0.00 | 0.00 | 34 | 1016.4 |
| 20260830182003 | 92 | 51 | 4.3 | 9.6 | 0.00 | 0.00 | 0.00 | 34 | 1016.5 |
| 20260830181903 | 93 | 48 | 4.3 | 9.6 | 0.00 | 0.00 | 0.00 | 34 | 1016.5 |
| 20260830181803 | 93 | 48 | 4.3 | 8.7 | 0.00 | 0.00 | 0.00 | 34 | 1016.5 |
| 20260830181724 | 93 | 48 | 4.3 | 8.7 | 0.00 | 0.00 | 0.00 | 34 | 1016.5 |
| 20260830181603 | 93 | 43 | 4.3 | 8.7 | 0.00 | 0.00 | 0.00 | 34 | 1016.6 |
| 20260830181503 | 93 | 44 | 4.3 | 8.7 | 0.00 | 0.00 | 0.00 | 34 | 1016.6 |
| 20260830181403 | 93 | 47 | 4.3 | 7.8 | 0.00 | 0.00 | 0.00 | 34 | 1016.6 |
| 20260830181303 | 93 | 45 | 4.3 | 7.8 | 0.00 | 0.00 | 0.00 | 34 | 1016.7 |
| 20260830181224 | 93 | 44 | 4.3 | 7.8 | 0.00 | 0.00 | 0.00 | 33 | 1016.7 |
| 20260830181103 | 93 | 43 | 4.3 | 7.8 | 0.00 | 0.00 | 0.00 | 33 | 1016.7 |
| 20260830181024 | 93 | 43 | 3.5 | 7.8 | 0.00 | 0.00 | 0.00 | 33 | 1016.8 |
| 20260830180903 | 93 | 33 | 3.5 | 7.8 | 0.00 | 0.00 | 0.00 | 33 | 1016.8 |
| 20260830180803 | 93 | 22 | 3.5 | 7.8 | 0.00 | 0.00 | 0.00 | 33 | 1016.9 |
| 20260830180703 | 93 | 19 | 3.5 | 7.8 | 0.00 | 0.00 | 0.00 | 33 | 1016.8 |
| 20260830180603 | 93 | 24 | 3.5 | 7.8 | 0.00 | 0.00 | 0.00 | 33 | 1016.8 |
| 20260830180503 | 93 | 21 | 3.5 | 9.6 | 0.00 | 0.00 | 0.00 | 32 | 1016.8 |
| 20260830180403 | 93 | 22 | 3.5 | 9.6 | 0.00 | 0.00 | 0.00 | 32 | 1016.8 |
| 20260830180303 | 93 | 24 | 4.3 | 9.6 | 0.00 | 0.00 | 0.00 | 32 | 1016.8 |
| 20260830180224 | 93 | 26 | 4.3 | 9.6 | 0.00 | 0.00 | 0.00 | 32 | 1016.9 |
| 20260830180003 | 93 | 31 | 4.3 | 10.4 | 0.00 | 0.00 | 0.00 | 32 | 1016.9 |
| 20260830175903 | 93 | 35 | 4.3 | 10.4 | 0.00 | 0.00 | 0.00 | 32 | 1016.9 |
| 20260830175803 | 92 | 38 | 4.3 | 10.4 | 0.00 | 0.00 | 0.00 | 32 | 1016.9 |
| 20260830175703 | 92 | 46 | 4.3 | 10.4 | 0.00 | 0.00 | 0.00 | 32 | 1017.0 |
| 20260830175603 | 92 | 47 | 4.3 | 10.4 | 0.00 | 0.00 | 0.00 | 32 | 1017.0 |
| 20260830175503 | 92 | 43 | 4.3 | 10.4 | 0.00 | 0.00 | 0.00 | 32 | 1017.1 |
| 20260830175403 | 92 | 45 | 4.3 | 10.4 | 0.00 | 0.00 | 0.00 | 32 | 1017.1 |
| 20260830175305 | 92 | 44 | 4.3 | 10.4 | 0.00 | 0.00 | 0.00 | 32 | 1017.2 |
| 20260830175203 | 92 | 39 | 4.3 | 10.4 | 0.00 | 0.00 | 0.00 | 32 | 1017.2 |
| 20260830175103 | 92 | 39 | 4.3 | 8.7 | 0.00 | 0.00 | 0.00 | 32 | 1017.2 |
| 20260830175003 | 92 | 39 | 4.3 | 8.7 | 0.00 | 0.00 | 0.00 | 31 | 1017.2 |
| 20260830174903 | 92 | 41 | 4.3 | 8.7 | 0.00 | 0.00 | 0.00 | 31 | 1017.2 |
| 20260830174803 | 92 | 45 | 4.3 | 9.6 | 0.00 | 0.00 | 0.00 | 31 | 1017.2 |
| 20260830174703 | 92 | 43 | 4.3 | 9.6 | 0.00 | 0.00 | 0.00 | 31 | 1017.2 |
| 20260830174624 | 92 | 44 | 4.3 | 9.6 | 0.00 | 0.00 | 0.00 | 31 | 1017.3 |
| 20260830174524 | 92 | 47 | 4.3 | 9.6 | 0.00 | 0.00 | 0.00 | 31 | 1017.3 |
| 20260830174403 | 92 | 49 | 4.3 | 9.6 | 0.00 | 0.00 | 0.00 | 30 | 1017.3 |
| 20260830174324 | 92 | 47 | 5.2 | 10.4 | 0.00 | 0.00 | 0.00 | 30 | 1017.3 |
| 20260830174224 | 92 | 48 | 5.2 | 10.4 | 0.00 | 0.00 | 0.00 | 30 | 1017.3 |
| 20260830174103 | 92 | 45 | 5.2 | 10.4 | 0.00 | 0.00 | 0.00 | 31 | 1017.3 |
| 20260830174003 | 92 | 43 | 5.2 | 10.4 | 0.00 | 0.00 | 0.00 | 31 | 1017.3 |
| 20260830173903 | 91 | 43 | 5.2 | 10.4 | 0.00 | 0.00 | 0.00 | 31 | 1017.4 |
| 20260830173803 | 91 | 40 | 5.2 | 10.4 | 0.00 | 0.00 | 0.00 | 31 | 1017.4 |
| 20260830173703 | 92 | 35 | 4.3 | 10.4 | 0.00 | 0.00 | 0.00 | 31 | 1017.4 |
| 20260830173603 | 92 | 34 | 4.3 | 10.4 | 0.00 | 0.00 | 0.00 | 31 | 1017.4 |
| 20260830173524 | 92 | 38 | 5.2 | 10.4 | 0.00 | 0.00 | 0.00 | 31 | 1017.4 |
| 20260830173403 | 92 | 37 | 5.2 | 11.3 | 0.00 | 0.00 | 0.00 | 30 | 1017.5 |
| 20260830173303 | 92 | 36 | 5.2 | 11.3 | 0.00 | 0.00 | 0.00 | 30 | 1017.6 |
| 20260830173203 | 92 | 38 | 4.3 | 11.3 | 0.00 | 0.00 | 0.00 | 30 | 1017.6 |
| 20260830173103 | 92 | 34 | 4.3 | 11.3 | 0.00 | 0.00 | 0.00 | 30 | 1017.6 |
| 20260830173003 | 92 | 25 | 4.3 | 11.3 | 0.00 | 0.00 | 0.00 | 29 | 1017.7 |
| 20260830172903 | 92 | 19 | 4.3 | 11.3 | 0.00 | 0.00 | 0.00 | 29 | 1017.6 |
| 20260830172803 | 92 | 24 | 4.3 | 11.3 | 0.00 | 0.00 | 0.00 | 29 | 1017.6 |
| 20260830172703 | 92 | 29 | 4.3 | 11.3 | 0.00 | 0.00 | 0.00 | 29 | 1017.6 |
| 20260830172603 | 92 | 23 | 4.3 | 11.3 | 0.00 | 0.00 | 0.00 | 29 | 1017.6 |
| 20260830172503 | 92 | 4 | 3.5 | 11.3 | 0.00 | 0.00 | 0.00 | 28 | 1017.7 |
| 20260830172403 | 92 | 347 | 3.5 | 8.7 | 0.00 | 0.00 | 0.00 | 28 | 1017.7 |
| 20260830172306 | 92 | 329 | 2.6 | 9.6 | 0.00 | 0.00 | 0.00 | 28 | 1017.7 |
| 20260830172203 | 92 | 312 | 2.6 | 9.6 | 0.00 | 0.00 | 0.00 | 28 | 1017.6 |
| 20260830172124 | 92 | 311 | 2.6 | 9.6 | 0.00 | 0.00 | 0.00 | 28 | 1017.6 |
| 20260830172024 | 92 | 329 | 2.6 | 9.6 | 0.00 | 0.00 | 0.00 | 28 | 1017.7 |
| 20260830171903 | 92 | 326 | 2.6 | 9.6 | 0.00 | 0.00 | 0.00 | 27 | 1017.7 |
| 20260830171803 | 92 | 319 | 2.6 | 9.6 | 0.00 | 0.00 | 0.00 | 27 | 1017.7 |
| 20260830171703 | 92 | 314 | 3.5 | 9.6 | 0.00 | 0.00 | 0.00 | 27 | 1017.7 |
| 20260830171603 | 92 | 314 | 3.5 | 9.6 | 0.00 | 0.00 | 0.00 | 27 | 1017.8 |
| 20260830171503 | 92 | 313 | 3.5 | 9.6 | 0.00 | 0.00 | 0.00 | 26 | 1017.8 |
| 20260830171426 | 92 | 322 | 3.5 | 9.6 | 0.00 | 0.00 | 0.00 | 26 | 1017.8 |
| 20260830171303 | 91 | 335 | 4.3 | 9.6 | 0.00 | 0.00 | 0.00 | 26 | 1017.9 |
| 20260830171203 | 91 | 352 | 4.3 | 10.4 | 0.00 | 0.00 | 0.00 | 26 | 1017.9 |
| 20260830171103 | 91 | 1 | 4.3 | 10.4 | 0.00 | 0.00 | 0.00 | 26 | 1017.8 |
| 20260830171003 | 91 | 4 | 5.2 | 10.4 | 0.00 | 0.00 | 0.00 | 26 | 1017.8 |
| 20260830170903 | 91 | 12 | 5.2 | 10.4 | 0.00 | 0.00 | 0.00 | 26 | 1017.9 |
| 20260830170803 | 91 | 20 | 5.2 | 10.4 | 0.00 | 0.00 | 0.00 | 26 | 1017.9 |
| 20260830170703 | 91 | 32 | 5.2 | 10.4 | 0.00 | 0.00 | 0.00 | 25 | 1017.9 |
| 20260830170603 | 91 | 39 | 5.2 | 10.4 | 0.00 | 0.00 | 0.00 | 25 | 1017.9 |
| 20260830170524 | 91 | 42 | 5.2 | 10.4 | 0.00 | 0.00 | 0.00 | 25 | 1017.9 |
| 20260830170403 | 91 | 37 | 5.2 | 10.4 | 0.00 | 0.00 | 0.00 | 24 | 1017.9 |
| 20260830170303 | 91 | 39 | 4.3 | 10.4 | 0.00 | 0.00 | 0.00 | 23 | 1017.9 |
| 20260830170203 | 91 | 39 | 4.3 | 9.6 | 0.00 | 0.00 | 0.00 | 23 | 1017.8 |
| 20260830170003 | 91 | 40 | 3.5 | 9.6 | 0.00 | 0.00 | 0.00 | 22 | 1017.9 |
| 20260830165903 | 91 | 42 | 2.6 | 7.0 | 0.00 | 0.00 | 0.00 | 22 | 1017.9 |
| 20260830165803 | 91 | 29 | 3.5 | 7.8 | 0.00 | 0.00 | 0.00 | 22 | 1017.9 |
| 20260830165703 | 91 | 20 | 3.5 | 7.8 | 0.00 | 0.00 | 0.00 | 22 | 1017.9 |
| 20260830165624 | 91 | 14 | 3.5 | 7.8 | 0.00 | 0.00 | 0.00 | 21 | 1017.9 |
| 20260830165503 | 91 | 13 | 3.5 | 9.6 | 0.00 | 0.00 | 0.00 | 22 | 1017.9 |
| 20260830165403 | 91 | 22 | 3.5 | 9.6 | 0.00 | 0.00 | 0.00 | 21 | 1018.0 |
| 20260830165324 | 91 | 28 | 3.5 | 9.6 | 0.00 | 0.00 | 0.00 | 21 | 1018.0 |
| 20260830165203 | 91 | 23 | 3.5 | 9.6 | 0.00 | 0.00 | 0.00 | 21 | 1018.0 |
| 20260830165103 | 91 | 21 | 3.5 | 9.6 | 0.00 | 0.00 | 0.00 | 20 | 1018.0 |
| 20260830165024 | 91 | 23 | 3.5 | 9.6 | 0.00 | 0.00 | 0.00 | 19 | 1018.0 |
| 20260830164903 | 91 | 20 | 3.5 | 9.6 | 0.00 | 0.00 | 0.00 | 19 | 1018.0 |
| 20260830164824 | 91 | 24 | 3.5 | 9.6 | 0.00 | 0.00 | 0.00 | 19 | 1018.0 |
| 20260830164703 | 90 | 32 | 3.5 | 9.6 | 0.00 | 0.00 | 0.00 | 18 | 1018.1 |
| 20260830164624 | 90 | 36 | 3.5 | 9.6 | 0.00 | 0.00 | 0.00 | 18 | 1018.0 |
| 20260830164503 | 90 | 34 | 2.6 | 7.8 | 0.00 | 0.00 | 0.00 | 17 | 1018.1 |
| 20260830164403 | 90 | 31 | 2.6 | 7.0 | 0.00 | 0.00 | 0.00 | 16 | 1018.0 |
| 20260830164303 | 90 | 34 | 2.6 | 8.7 | 0.00 | 0.00 | 0.00 | 18 | 1018.1 |
| 20260830164224 | 90 | 43 | 3.5 | 8.7 | 0.00 | 0.00 | 0.00 | 16 | 1018.0 |
| 20260830164103 | 90 | 47 | 3.5 | 8.7 | 0.00 | 0.00 | 0.00 | 14 | 1018.0 |
| 20260830164003 | 90 | 47 | 4.3 | 9.6 | 0.00 | 0.00 | 0.00 | 13 | 1018.0 |
| 20260830163903 | 89 | 46 | 4.3 | 9.6 | 0.00 | 0.00 | 0.00 | 14 | 1018.0 |
| 20260830163803 | 89 | 44 | 4.3 | 9.6 | 0.00 | 0.00 | 0.00 | 13 | 1018.0 |
| 20260830163703 | 89 | 44 | 4.3 | 9.6 | 0.00 | 0.00 | 0.00 | 13 | 1018.1 |
| 20260830163603 | 89 | 43 | 4.3 | 9.6 | 0.00 | 0.00 | 0.00 | 13 | 1018.1 |
| 20260830163503 | 89 | 45 | 4.3 | 9.6 | 0.00 | 0.00 | 0.00 | 11 | 1018.1 |
| 20260830163403 | 89 | 47 | 4.3 | 9.6 | 0.00 | 0.00 | 0.00 | 11 | 1018.1 |
| 20260830163303 | 89 | 47 | 4.3 | 9.6 | 0.00 | 0.00 | 0.00 | 10 | 1018.1 |
| 20260830163203 | 89 | 49 | 4.3 | 9.6 | 0.00 | 0.00 | 0.00 | 11 | 1018.1 |
| 20260830163103 | 89 | 46 | 3.5 | 9.6 | 0.00 | 0.00 | 0.00 | 11 | 1018.1 |
| 20260830163003 | 89 | 45 | 3.5 | 7.8 | 0.00 | 0.00 | 0.00 | 10 | 1018.2 |
| 20260830162903 | 89 | 43 | 3.5 | 7.8 | 0.00 | 0.00 | 0.00 | 10 | 1018.1 |
| 20260830162803 | 88 | 40 | 2.6 | 7.8 | 0.00 | 0.00 | 0.00 | 9 | 1018.2 |
| 20260830162703 | 88 | 32 | 3.5 | 7.8 | 0.00 | 0.00 | 0.00 | 8 | 1018.2 |
| 20260830162603 | 88 | 11 | 3.5 | 7.0 | 0.00 | 0.00 | 0.00 | 7 | 1018.2 |
| 20260830162503 | 88 | 1 | 3.5 | 7.0 | 0.00 | 0.00 | 0.00 | 8 | 1018.2 |
| 20260830162424 | 88 | 357 | 3.5 | 7.0 | 0.00 | 0.00 | 0.00 | 7 | 1018.2 |
| 20260830162306 | 88 | 345 | 3.5 | 7.0 | 0.00 | 0.00 | 0.00 | 8 | 1018.2 |
| 20260830162203 | 88 | 336 | 2.6 | 7.0 | 0.00 | 0.00 | 0.00 | 8 | 1018.2 |
| 20260830162124 | 88 | 346 | 3.5 | 7.0 | 0.00 | 0.00 | 0.00 | 8 | 1018.2 |
| 20260830162003 | 88 | 359 | 3.5 | 8.7 | 0.00 | 0.00 | 0.00 | 10 | 1018.2 |
| 20260830161903 | 88 | 5 | 4.3 | 8.7 | 0.00 | 0.00 | 0.00 | 10 | 1018.2 |
| 20260830161803 | 88 | 7 | 4.3 | 8.7 | 0.00 | 0.00 | 0.00 | 10 | 1018.2 |
| 20260830161703 | 89 | 10 | 4.3 | 8.7 | 0.00 | 0.00 | 0.00 | 11 | 1018.2 |
| 20260830161603 | 89 | 20 | 4.3 | 8.7 | 0.00 | 0.00 | 0.00 | 9 | 1018.2 |
| 20260830161503 | 89 | 17 | 4.3 | 8.7 | 0.00 | 0.00 | 0.00 | 10 | 1018.2 |
| 20260830161403 | 88 | 17 | 4.3 | 8.7 | 0.00 | 0.00 | 0.00 | 9 | 1018.2 |
| 20260830161303 | 88 | 17 | 4.3 | 8.7 | 0.00 | 0.00 | 0.00 | 8 | 1018.2 |
| 20260830161203 | 88 | 8 | 4.3 | 8.7 | 0.00 | 0.00 | 0.00 | 10 | 1018.2 |
| 20260830161103 | 88 | 6 | 3.5 | 8.7 | 0.00 | 0.00 | 0.00 | 7 | 1018.2 |
| 20260830161004 | 88 | 8 | 3.5 | 7.8 | 0.00 | 0.00 | 0.00 | 7 | 1018.2 |
| 20260830160903 | 88 | 6 | 3.5 | 7.8 | 0.00 | 0.00 | 0.00 | 4 | 1018.2 |
| 20260830160803 | 88 | 9 | 3.5 | 7.8 | 0.00 | 0.00 | 0.00 | 5 | 1018.2 |
| 20260830160703 | 88 | 13 | 3.5 | 7.8 | 0.00 | 0.00 | 0.00 | 5 | 1018.2 |
| 20260830160603 | 88 | 20 | 3.5 | 7.8 | 0.00 | 0.00 | 0.00 | 4 | 1018.2 |
| 20260830160503 | 88 | 26 | 4.3 | 8.7 | 0.00 | 0.00 | 0.00 | 4 | 1018.3 |
| 20260830160424 | 88 | 30 | 4.3 | 8.7 | 0.00 | 0.00 | 0.00 | 4 | 1018.2 |
| 20260830160303 | 88 | 35 | 4.3 | 8.7 | 0.00 | 0.00 | 0.00 | 4 | 1018.2 |
| 20260830160203 | 88 | 40 | 4.3 | 8.7 | 0.00 | 0.00 | 0.00 | 3 | 1018.2 |
| 20260830160103 | 88 | 39 | 4.3 | 9.6 | 0.00 | 0.00 | 0.00 | 3 | 1018.2 |
| 20260830160005 | 87 | 39 | 4.3 | 9.6 | 0.00 | 0.00 | 0.00 | 1 | 1018.2 |
| 20260830155903 | 87 | 44 | 4.3 | 9.6 | 0.00 | 0.00 | 0.00 | 1 | 1018.2 |
| 20260830155803 | 87 | 44 | 4.3 | 9.6 | 0.00 | 0.00 | 0.00 | 1 | 1018.2 |
| 20260830155703 | 87 | 42 | 4.3 | 9.6 | 0.00 | 0.00 | 0.00 | 1 | 1018.3 |
| 20260830155603 | 87 | 40 | 4.3 | 9.6 | 0.00 | 0.00 | 0.00 | 1 | 1018.2 |
| 20260830155503 | 87 | 41 | 4.3 | 9.6 | 0.00 | 0.00 | 0.00 | 1 | 1018.2 |
| 20260830155403 | 87 | 38 | 4.3 | 9.6 | 0.00 | 0.00 | 0.00 | 1 | 1018.2 |
| 20260830155306 | 87 | 39 | 3.5 | 9.6 | 0.00 | 0.00 | 0.00 | 1 | 1018.2 |
| 20260830155203 | 87 | 38 | 3.5 | 9.6 | 0.00 | 0.00 | 0.00 | 1 | 1018.2 |
| 20260830155103 | 87 | 37 | 3.5 | 9.6 | 0.00 | 0.00 | 0.00 | 1 | 1018.2 |
| 20260830155003 | 87 | 39 | 3.5 | 10.4 | 0.00 | 0.00 | 0.00 | 1 | 1018.3 |
| 20260830154904 | 87 | 39 | 3.5 | 10.4 | 0.00 | 0.00 | 0.00 | 1 | 1018.2 |
| 20260830154824 | 87 | 40 | 4.3 | 10.4 | 0.00 | 0.00 | 0.00 | 1 | 1018.2 |
| 20260830154703 | 87 | 42 | 4.3 | 10.4 | 0.00 | 0.00 | 0.00 | 1 | 1018.2 |
| 20260830154603 | 87 | 44 | 4.3 | 10.4 | 0.00 | 0.00 | 0.00 | 1 | 1018.1 |
| 20260830154503 | 87 | 43 | 4.3 | 10.4 | 0.00 | 0.00 | 0.00 | 1 | 1018.1 |
| 20260830154403 | 87 | 43 | 4.3 | 10.4 | 0.00 | 0.00 | 0.00 | 1 | 1018.2 |
| 20260830154303 | 87 | 39 | 5.2 | 10.4 | 0.00 | 0.00 | 0.00 | 1 | 1018.1 |
| 20260830154224 | 87 | 38 | 5.2 | 10.4 | 0.00 | 0.00 | 0.00 | 1 | 1018.1 |
| 20260830154103 | 87 | 41 | 5.2 | 10.4 | 0.00 | 0.00 | 0.00 | 1 | 1018.1 |
| 20260830154024 | 87 | 36 | 4.3 | 10.4 | 0.00 | 0.00 | 0.00 | 1 | 1018.1 |
| 20260830153903 | 87 | 28 | 4.3 | 9.6 | 0.00 | 0.00 | 0.00 | 1 | 1018.1 |
| 20260830153803 | 86 | 29 | 5.2 | 9.6 | 0.00 | 0.00 | 0.00 | 1 | 1018.1 |
| 20260830153724 | 86 | 31 | 4.3 | 9.6 | 0.00 | 0.00 | 0.00 | 1 | 1018.0 |
| 20260830153626 | 87 | 29 | 5.2 | 9.6 | 0.00 | 0.00 | 0.00 | 1 | 1018.0 |
| 20260830153505 | 86 | 31 | 5.2 | 9.6 | 0.00 | 0.00 | 0.00 | 1 | 1018.0 |
| 20260830153403 | 86 | 32 | 5.2 | 10.4 | 0.00 | 0.00 | 0.00 | 1 | 1018.0 |
| 20260830153303 | 86 | 34 | 5.2 | 10.4 | 0.00 | 0.00 | 0.00 | 1 | 1018.0 |
| 20260830153203 | 86 | 37 | 5.2 | 10.4 | 0.00 | 0.00 | 0.00 | 1 | 1017.9 |
| 20260830153124 | 86 | 35 | 5.2 | 10.4 | 0.00 | 0.00 | 0.00 | 1 | 1018.0 |
| 20260830153003 | 86 | 39 | 5.2 | 10.4 | 0.00 | 0.00 | 0.00 | 1 | 1017.9 |
| 20260830152903 | 86 | 41 | 6.1 | 10.4 | 0.00 | 0.00 | 0.00 | 1 | 1017.9 |
| 20260830152803 | 86 | 42 | 6.1 | 10.4 | 0.00 | 0.00 | 0.00 | 1 | 1017.9 |
| 20260830152703 | 86 | 41 | 6.1 | 10.4 | 0.00 | 0.00 | 0.00 | 1 | 1017.9 |
| 20260830152603 | 85 | 39 | 5.2 | 10.4 | 0.00 | 0.00 | 0.00 | 1 | 1017.9 |
| 20260830152503 | 86 | 37 | 5.2 | 10.4 | 0.00 | 0.00 | 0.00 | 1 | 1017.9 |
| 20260830152403 | 86 | 36 | 4.3 | 8.7 | 0.00 | 0.00 | 0.00 | 1 | 1017.9 |
| 20260830152305 | 86 | 36 | 4.3 | 8.7 | 0.00 | 0.00 | 0.00 | 1 | 1017.9 |
| 20260830152203 | 86 | 37 | 4.3 | 8.7 | 0.00 | 0.00 | 0.00 | 1 | 1017.9 |
| 20260830152103 | 86 | 39 | 4.3 | 8.7 | 0.00 | 0.00 | 0.00 | 1 | 1017.9 |
| 20260830152024 | 86 | 38 | 4.3 | 8.7 | 0.00 | 0.00 | 0.00 | 1 | 1017.9 |
| 20260830151924 | 86 | 38 | 4.3 | 8.7 | 0.00 | 0.00 | 0.00 | 1 | 1017.9 |
| 20260830151824 | 86 | 40 | 4.3 | 12.2 | 0.00 | 0.00 | 0.00 | 1 | 1017.9 |
| 20260830151703 | 86 | 42 | 4.3 | 12.2 | 0.00 | 0.00 | 0.00 | 1 | 1017.8 |
| 20260830151603 | 86 | 45 | 4.3 | 12.2 | 0.00 | 0.00 | 0.00 | 1 | 1017.8 |
| 20260830151503 | 86 | 48 | 4.3 | 12.2 | 0.00 | 0.00 | 0.00 | 1 | 1017.9 |
| 20260830151403 | 85 | 47 | 5.2 | 12.2 | 0.00 | 0.00 | 0.00 | 1 | 1017.8 |
| 20260830151303 | 85 | 46 | 5.2 | 12.2 | 0.00 | 0.00 | 0.00 | 1 | 1017.8 |
| 20260830151203 | 85 | 43 | 5.2 | 12.2 | 0.00 | 0.00 | 0.00 | 1 | 1017.8 |
| 20260830151103 | 85 | 44 | 6.1 | 12.2 | 0.00 | 0.00 | 0.00 | 1 | 1017.8 |
| 20260830151003 | 85 | 44 | 6.1 | 12.2 | 0.00 | 0.00 | 0.00 | 1 | 1017.8 |
| 20260830150903 | 85 | 45 | 6.1 | 12.2 | 0.00 | 0.00 | 0.00 | 1 | 1017.8 |
| 20260830150803 | 85 | 43 | 6.1 | 11.3 | 0.00 | 0.00 | 0.00 | 1 | 1017.8 |
| 20260830150703 | 84 | 42 | 6.1 | 11.3 | 0.00 | 0.00 | 0.00 | 1 | 1017.8 |
| 20260830150603 | 84 | 41 | 6.1 | 11.3 | 0.00 | 0.00 | 0.00 | 1 | 1017.8 |
| 20260830150503 | 84 | 40 | 6.1 | 11.3 | 0.00 | 0.00 | 0.00 | 1 | 1017.8 |
| 20260830150403 | 84 | 40 | 6.1 | 11.3 | 0.00 | 0.00 | 0.00 | 1 | 1017.8 |
| 20260830150303 | 84 | 40 | 6.1 | 11.3 | 0.00 | 0.00 | 0.00 | 1 | 1017.8 |
| 20260830150203 | 84 | 41 | 6.1 | 11.3 | 0.00 | 0.00 | 0.00 | 1 | 1017.8 |
| 20260830150003 | 84 | 40 | 6.1 | 11.3 | 0.00 | 0.00 | 0.00 | 1 | 1017.8 |
| 20260830145903 | 84 | 39 | 6.1 | 11.3 | 0.00 | 0.00 | 0.00 | 1 | 1017.8 |
| 20260830145803 | 84 | 37 | 6.1 | 11.3 | 0.00 | 0.00 | 0.00 | 1 | 1017.8 |
| 20260830145703 | 84 | 36 | 6.1 | 11.3 | 0.00 | 0.00 | 0.00 | 1 | 1017.7 |
| 20260830145603 | 84 | 36 | 6.1 | 11.3 | 0.00 | 0.00 | 0.00 | 1 | 1017.7 |
| 20260830145503 | 84 | 37 | 6.1 | 11.3 | 0.00 | 0.00 | 0.00 | 1 | 1017.7 |
| 20260830145424 | 84 | 37 | 6.1 | 11.3 | 0.00 | 0.00 | 0.00 | 1 | 1017.8 |
| 20260830145306 | 84 | 39 | 6.1 | 11.3 | 0.00 | 0.00 | 0.00 | 1 | 1017.8 |
| 20260830145203 | 83 | 39 | 6.1 | 11.3 | 0.00 | 0.00 | 0.00 | 1 | 1017.8 |
| 20260830145124 | 83 | 40 | 6.1 | 11.3 | 0.00 | 0.00 | 0.00 | 1 | 1017.8 |
| 20260830145024 | 83 | 41 | 6.1 | 11.3 | 0.00 | 0.00 | 0.00 | 1 | 1017.8 |
| 20260830144924 | 84 | 42 | 6.1 | 11.3 | 0.00 | 0.00 | 0.00 | 1 | 1017.8 |
| 20260830144803 | 84 | 44 | 6.1 | 11.3 | 0.00 | 0.00 | 0.00 | 1 | 1017.8 |
| 20260830144703 | 84 | 46 | 5.2 | 11.3 | 0.00 | 0.00 | 0.00 | 1 | 1017.9 |
| 20260830144624 | 83 | 47 | 5.2 | 10.4 | 0.00 | 0.00 | 0.00 | 1 | 1017.9 |
| 20260830144524 | 83 | 47 | 6.1 | 10.4 | 0.00 | 0.00 | 0.00 | 1 | 1017.8 |
| 20260830144403 | 83 | 48 | 6.1 | 10.4 | 0.00 | 0.00 | 0.00 | 1 | 1017.9 |
| 20260830144303 | 83 | 48 | 6.1 | 10.4 | 0.00 | 0.00 | 0.00 | 1 | 1017.9 |
| 20260830144203 | 83 | 50 | 6.1 | 10.4 | 0.00 | 0.00 | 0.00 | 1 | 1017.9 |
| 20260830144103 | 83 | 51 | 6.1 | 10.4 | 0.00 | 0.00 | 0.00 | 1 | 1017.9 |
| 20260830144024 | 83 | 52 | 5.2 | 10.4 | 0.00 | 0.00 | 0.00 | 1 | 1017.9 |
| 20260830143903 | 83 | 49 | 5.2 | 10.4 | 0.00 | 0.00 | 0.00 | 1 | 1017.8 |
| 20260830143803 | 82 | 49 | 5.2 | 10.4 | 0.00 | 0.00 | 0.00 | 1 | 1017.9 |
| 20260830143703 | 82 | 49 | 5.2 | 9.6 | 0.00 | 0.00 | 0.00 | 1 | 1017.9 |
| 20260830143603 | 82 | 48 | 6.1 | 9.6 | 0.00 | 0.00 | 0.00 | 1 | 1017.8 |
| 20260830143503 | 82 | 48 | 5.2 | 9.6 | 0.00 | 0.00 | 0.00 | 1 | 1017.9 |
| 20260830143403 | 82 | 45 | 6.1 | 9.6 | 0.00 | 0.00 | 0.00 | 1 | 1017.9 |
| 20260830143303 | 82 | 44 | 6.1 | 9.6 | 0.00 | 0.00 | 0.00 | 1 | 1017.9 |
| 20260830143224 | 82 | 43 | 6.1 | 9.6 | 0.00 | 0.00 | 0.00 | 1 | 1017.9 |
| 20260830143103 | 82 | 40 | 5.2 | 9.6 | 0.00 | 0.00 | 0.00 | 1 | 1017.8 |
| 20260830143003 | 82 | 40 | 5.2 | 9.6 | 0.00 | 0.00 | 0.00 | 1 | 1017.8 |
| 20260830142903 | 82 | 43 | 5.2 | 9.6 | 0.00 | 0.00 | 0.00 | 1 | 1017.8 |
| 20260830142824 | 82 | 44 | 5.2 | 9.6 | 0.00 | 0.00 | 0.00 | 1 | 1017.8 |
| 20260830142703 | 83 | 45 | 5.2 | 9.6 | 0.00 | 0.00 | 0.00 | 1 | 1017.9 |
| 20260830142624 | 83 | 47 | 5.2 | 9.6 | 0.00 | 0.00 | 0.00 | 1 | 1017.8 |
| 20260830142503 | 83 | 45 | 5.2 | 9.6 | 0.00 | 0.00 | 0.00 | 1 | 1017.8 |
| 20260830142403 | 83 | 49 | 4.3 | 9.6 | 0.00 | 0.00 | 0.00 | 1 | 1017.8 |
| 20260830142305 | 83 | 50 | 4.3 | 9.6 | 0.00 | 0.00 | 0.00 | 1 | 1017.8 |
| 20260830142224 | 82 | 51 | 3.5 | 7.8 | 0.00 | 0.00 | 0.00 | 1 | 1017.8 |
| 20260830142103 | 82 | 51 | 3.5 | 7.0 | 0.00 | 0.00 | 0.00 | 1 | 1017.8 |
| 20260830142003 | 82 | 50 | 3.5 | 7.0 | 0.00 | 0.00 | 0.00 | 1 | 1017.8 |
| 20260830141903 | 82 | 51 | 3.5 | 6.1 | 0.00 | 0.00 | 0.00 | 1 | 1017.8 |
| 20260830141803 | 82 | 44 | 3.5 | 7.0 | 0.00 | 0.00 | 0.00 | 1 | 1017.8 |
| 20260830141724 | 82 | 43 | 3.5 | 7.0 | 0.00 | 0.00 | 0.00 | 1 | 1017.8 |
| 20260830141603 | 82 | 45 | 3.5 | 7.0 | 0.00 | 0.00 | 0.00 | 1 | 1017.8 |
| 20260830141503 | 82 | 44 | 3.5 | 7.0 | 0.00 | 0.00 | 0.00 | 1 | 1017.8 |
| 20260830141424 | 82 | 45 | 4.3 | 7.8 | 0.00 | 0.00 | 0.00 | 1 | 1017.8 |
| 20260830141303 | 82 | 43 | 4.3 | 9.6 | 0.00 | 0.00 | 0.00 | 1 | 1017.8 |
| 20260830141203 | 82 | 44 | 4.3 | 9.6 | 0.00 | 0.00 | 0.00 | 1 | 1017.9 |
| 20260830141103 | 82 | 46 | 4.3 | 9.6 | 0.00 | 0.00 | 0.00 | 1 | 1017.9 |
| 20260830141003 | 82 | 46 | 4.3 | 9.6 | 0.00 | 0.00 | 0.00 | 1 | 1017.8 |
| 20260830140903 | 81 | 43 | 4.3 | 9.6 | 0.00 | 0.00 | 0.00 | 1 | 1017.8 |
| 20260830140803 | 81 | 47 | 4.3 | 9.6 | 0.00 | 0.00 | 0.00 | 1 | 1017.8 |
| 20260830140703 | 81 | 47 | 4.3 | 9.6 | 0.00 | 0.00 | 0.00 | 1 | 1017.9 |
| 20260830140603 | 81 | 46 | 4.3 | 9.6 | 0.00 | 0.00 | 0.00 | 1 | 1017.9 |
| 20260830140503 | 81 | 47 | 4.3 | 9.6 | 0.00 | 0.00 | 0.00 | 1 | 1017.9 |
| 20260830140424 | 81 | 46 | 3.5 | 9.6 | 0.00 | 0.00 | 0.00 | 1 | 1017.9 |
| 20260830140303 | 81 | 47 | 3.5 | 7.8 | 0.00 | 0.00 | 0.00 | 1 | 1017.9 |
| 20260830140203 | 81 | 47 | 3.5 | 7.8 | 0.00 | 0.00 | 0.00 | 1 | 1017.9 |
| 20260830140024 | 81 | 44 | 3.5 | 8.7 | 0.00 | 0.00 | 0.00 | 1 | 1017.9 |
| 20260830135903 | 81 | 44 | 3.5 | 8.7 | 0.00 | 0.00 | 0.00 | 1 | 1017.9 |
| 20260830135824 | 81 | 45 | 3.5 | 8.7 | 0.00 | 0.00 | 0.00 | 1 | 1017.9 |
| 20260830135726 | 81 | 45 | 3.5 | 8.7 | 0.00 | 0.00 | 0.00 | 1 | 1017.9 |
| 20260830135603 | 81 | 44 | 3.5 | 8.7 | 0.00 | 0.00 | 0.00 | 1 | 1017.9 |
| 20260830135503 | 81 | 43 | 3.5 | 8.7 | 0.00 | 0.00 | 0.00 | 1 | 1017.9 |
| 20260830135403 | 81 | 43 | 3.5 | 8.7 | 0.00 | 0.00 | 0.00 | 1 | 1017.8 |
| 20260830135324 | 81 | 44 | 3.5 | 8.7 | 0.00 | 0.00 | 0.00 | 1 | 1017.8 |
| 20260830135203 | 81 | 45 | 3.5 | 8.7 | 0.00 | 0.00 | 0.00 | 1 | 1017.8 |
| 20260830135103 | 81 | 45 | 3.5 | 7.0 | 0.00 | 0.00 | 0.00 | 1 | 1017.8 |
| 20260830135024 | 81 | 46 | 3.5 | 7.0 | 0.00 | 0.00 | 0.00 | 1 | 1017.8 |
| 20260830134903 | 80 | 46 | 3.5 | 7.8 | 0.00 | 0.00 | 0.00 | 1 | 1017.8 |
| 20260830134803 | 80 | 47 | 3.5 | 8.7 | 0.00 | 0.00 | 0.00 | 1 | 1017.8 |
| 20260830134703 | 80 | 47 | 3.5 | 8.7 | 0.00 | 0.00 | 0.00 | 1 | 1017.7 |
| 20260830134603 | 80 | 46 | 3.5 | 8.7 | 0.00 | 0.00 | 0.00 | 1 | 1017.7 |
| 20260830134503 | 80 | 45 | 3.5 | 8.7 | 0.00 | 0.00 | 0.00 | 1 | 1017.7 |
| 20260830134403 | 80 | 45 | 3.5 | 8.7 | 0.00 | 0.00 | 0.00 | 1 | 1017.7 |
| 20260830134303 | 80 | 43 | 3.5 | 8.7 | 0.00 | 0.00 | 0.00 | 1 | 1017.7 |
| 20260830134203 | 80 | 41 | 3.5 | 8.7 | 0.00 | 0.00 | 0.00 | 1 | 1017.7 |
| 20260830134103 | 80 | 39 | 3.5 | 8.7 | 0.00 | 0.00 | 0.00 | 1 | 1017.7 |
| 20260830134024 | 80 | 39 | 3.5 | 8.7 | 0.00 | 0.00 | 0.00 | 1 | 1017.7 |
| 20260830133903 | 80 | 41 | 3.5 | 8.7 | 0.00 | 0.00 | 0.00 | 1 | 1017.7 |
| 20260830133803 | 80 | 42 | 3.5 | 7.0 | 0.00 | 0.00 | 0.00 | 1 | 1017.7 |
| 20260830133703 | 79 | 44 | 3.5 | 7.0 | 0.00 | 0.00 | 0.00 | 1 | 1017.6 |
| 20260830133603 | 79 | 45 | 3.5 | 7.0 | 0.00 | 0.00 | 0.00 | 1 | 1017.5 |
| 20260830133503 | 79 | 46 | 3.5 | 7.0 | 0.00 | 0.00 | 0.00 | 1 | 1017.5 |
| 20260830133403 | 79 | 46 | 3.5 | 7.0 | 0.00 | 0.00 | 0.00 | 1 | 1017.5 |
| 20260830133303 | 79 | 46 | 3.5 | 7.0 | 0.00 | 0.00 | 0.00 | 1 | 1017.5 |
| 20260830133203 | 79 | 46 | 3.5 | 7.0 | 0.00 | 0.00 | 0.00 | 1 | 1017.5 |
| 20260830133103 | 79 | 47 | 3.5 | 7.0 | 0.00 | 0.00 | 0.00 | 1 | 1017.5 |
| 20260830133003 | 79 | 50 | 3.5 | 7.0 | 0.00 | 0.00 | 0.00 | 1 | 1017.5 |
| 20260830132903 | 79 | 50 | 3.5 | 7.0 | 0.00 | 0.00 | 0.00 | 1 | 1017.5 |
| 20260830132803 | 78 | 49 | 3.5 | 6.1 | 0.00 | 0.00 | 0.00 | 1 | 1017.5 |
| 20260830132703 | 78 | 48 | 3.5 | 6.1 | 0.00 | 0.00 | 0.00 | 1 | 1017.5 |
| 20260830132624 | 78 | 49 | 3.5 | 6.1 | 0.00 | 0.00 | 0.00 | 1 | 1017.5 |
| 20260830132503 | 78 | 48 | 3.5 | 6.1 | 0.00 | 0.00 | 0.00 | 1 | 1017.5 |
| 20260830132403 | 78 | 50 | 3.5 | 7.0 | 0.00 | 0.00 | 0.00 | 1 | 1017.5 |
| 20260830132305 | 78 | 49 | 3.5 | 7.0 | 0.00 | 0.00 | 0.00 | 1 | 1017.5 |
| 20260830132203 | 78 | 51 | 3.5 | 7.0 | 0.00 | 0.00 | 0.00 | 1 | 1017.5 |
| 20260830132103 | 78 | 50 | 3.5 | 7.0 | 0.00 | 0.00 | 0.00 | 1 | 1017.5 |
| 20260830132024 | 78 | 49 | 3.5 | 7.0 | 0.00 | 0.00 | 0.00 | 1 | 1017.4 |
| 20260830131903 | 78 | 47 | 3.5 | 7.0 | 0.00 | 0.00 | 0.00 | 1 | 1017.5 |
| 20260830131803 | 78 | 46 | 3.5 | 7.0 | 0.00 | 0.00 | 0.00 | 1 | 1017.4 |
| 20260830131703 | 77 | 46 | 4.3 | 7.0 | 0.00 | 0.00 | 0.00 | 1 | 1017.4 |
| 20260830131624 | 77 | 46 | 3.5 | 7.0 | 0.00 | 0.00 | 0.00 | 1 | 1017.4 |
| 20260830131503 | 77 | 43 | 3.5 | 7.0 | 0.00 | 0.00 | 0.00 | 1 | 1017.4 |
| 20260830131403 | 77 | 41 | 3.5 | 7.0 | 0.00 | 0.00 | 0.00 | 1 | 1017.4 |
| 20260830131303 | 77 | 41 | 3.5 | 7.0 | 0.00 | 0.00 | 0.00 | 1 | 1017.4 |
| 20260830131203 | 77 | 41 | 3.5 | 7.0 | 0.00 | 0.00 | 0.00 | 1 | 1017.4 |
| 20260830131103 | 77 | 41 | 3.5 | 7.0 | 0.00 | 0.00 | 0.00 | 1 | 1017.4 |
| 20260830131003 | 77 | 42 | 3.5 | 7.0 | 0.00 | 0.00 | 0.00 | 1 | 1017.4 |
| 20260830130924 | 77 | 42 | 3.5 | 7.0 | 0.00 | 0.00 | 0.00 | 1 | 1017.3 |
| 20260830130824 | 77 | 42 | 3.5 | 6.1 | 0.00 | 0.00 | 0.00 | 1 | 1017.3 |
| 20260830130703 | 77 | 41 | 2.6 | 6.1 | 0.00 | 0.00 | 0.00 | 1 | 1017.3 |
| 20260830130603 | 77 | 41 | 2.6 | 6.1 | 0.00 | 0.00 | 0.00 | 1 | 1017.3 |
| 20260830130503 | 77 | 42 | 2.6 | 6.1 | 0.00 | 0.00 | 0.00 | 1 | 1017.3 |
| 20260830130403 | 77 | 42 | 3.5 | 7.0 | 0.00 | 0.00 | 0.00 | 1 | 1017.3 |
| 20260830130324 | 77 | 42 | 3.5 | 7.0 | 0.00 | 0.00 | 0.00 | 1 | 1017.3 |
| 20260830130203 | 76 | 42 | 3.5 | 7.0 | 0.00 | 0.00 | 0.00 | 1 | 1017.3 |
| 20260830130124 | 76 | 42 | 3.5 | 7.0 | 0.00 | 0.00 | 0.00 | 1 | 1017.3 |
| 20260830130003 | 76 | 43 | 3.5 | 7.0 | 0.00 | 0.00 | 0.00 | 1 | 1017.2 |
| 20260830125903 | 76 | 44 | 3.5 | 7.0 | 0.00 | 0.00 | 0.00 | 1 | 1017.3 |
| 20260830125825 | 76 | 45 | 3.5 | 7.0 | 0.00 | 0.00 | 0.00 | 1 | 1017.3 |
| 20260830125704 | 76 | 46 | 3.5 | 7.0 | 0.00 | 0.00 | 0.00 | 1 | 1017.2 |
| 20260830125625 | 76 | 46 | 3.5 | 7.0 | 0.00 | 0.00 | 0.00 | 1 | 1017.2 |
| 20260830125504 | 76 | 48 | 3.5 | 7.0 | 0.00 | 0.00 | 0.00 | 1 | 1017.2 |
| 20260830125404 | 76 | 48 | 3.5 | 7.0 | 0.00 | 0.00 | 0.00 | 1 | 1017.2 |
| 20260830125325 | 76 | 48 | 3.5 | 7.0 | 0.00 | 0.00 | 0.00 | 1 | 1017.2 |
| 20260830125204 | 76 | 49 | 3.5 | 7.0 | 0.00 | 0.00 | 0.00 | 1 | 1017.2 |
| 20260830125104 | 76 | 50 | 2.6 | 7.0 | 0.00 | 0.00 | 0.00 | 1 | 1017.2 |
| 20260830125004 | 76 | 51 | 2.6 | 6.1 | 0.00 | 0.00 | 0.00 | 1 | 1017.2 |
| 20260830124904 | 76 | 49 | 2.6 | 6.1 | 0.00 | 0.00 | 0.00 | 1 | 1017.2 |
| 20260830124825 | 75 | 48 | 2.6 | 6.1 | 0.00 | 0.00 | 0.00 | 1 | 1017.2 |
| 20260830124704 | 75 | 47 | 2.6 | 6.1 | 0.00 | 0.00 | 0.00 | 1 | 1017.2 |
| 20260830124604 | 75 | 47 | 2.6 | 6.1 | 0.00 | 0.00 | 0.00 | 1 | 1017.2 |
| 20260830124504 | 75 | 47 | 2.6 | 5.2 | 0.00 | 0.00 | 0.00 | 1 | 1017.2 |
| 20260830124404 | 75 | 47 | 2.6 | 5.2 | 0.00 | 0.00 | 0.00 | 1 | 1017.2 |
| 20260830124304 | 75 | 46 | 2.6 | 5.2 | 0.00 | 0.00 | 0.00 | 1 | 1017.2 |
| 20260830124204 | 75 | 46 | 2.6 | 5.2 | 0.00 | 0.00 | 0.00 | 1 | 1017.1 |
| 20260830124104 | 75 | 45 | 2.6 | 5.2 | 0.00 | 0.00 | 0.00 | 1 | 1017.1 |
| 20260830124004 | 75 | 45 | 1.7 | 5.2 | 0.00 | 0.00 | 0.00 | 1 | 1017.1 |
| 20260830123904 | 75 | 44 | 1.7 | 5.2 | 0.00 | 0.00 | 0.00 | 1 | 1017.1 |
| 20260830123825 | 75 | 43 | 1.7 | 5.2 | 0.00 | 0.00 | 0.00 | 1 | 1017.1 |
| 20260830123704 | 75 | 43 | 1.7 | 4.3 | 0.00 | 0.00 | 0.00 | 1 | 1017.1 |
| 20260830123604 | 75 | 43 | 1.7 | 4.3 | 0.00 | 0.00 | 0.00 | 1 | 1017.0 |
| 20260830123504 | 75 | 43 | 1.7 | 4.3 | 0.00 | 0.00 | 0.00 | 1 | 1017.1 |
| 20260830123404 | 75 | 42 | 1.7 | 4.3 | 0.00 | 0.00 | 0.00 | 1 | 1017.0 |
| 20260830123304 | 75 | 42 | 1.7 | 4.3 | 0.00 | 0.00 | 0.00 | 1 | 1017.0 |
| 20260830123204 | 75 | 42 | 1.7 | 4.3 | 0.00 | 0.00 | 0.00 | 1 | 1017.0 |
| 20260830123125 | 75 | 42 | 1.7 | 4.3 | 0.00 | 0.00 | 0.00 | 1 | 1017.0 |
| 20260830123004 | 75 | 42 | 1.7 | 4.3 | 0.00 | 0.00 | 0.00 | 1 | 1017.0 |
| 20260830122925 | 75 | 42 | 1.7 | 4.3 | 0.00 | 0.00 | 0.00 | 1 | 1017.0 |
| 20260830122804 | 74 | 43 | 1.7 | 4.3 | 0.00 | 0.00 | 0.00 | 1 | 1017.0 |
| 20260830122704 | 74 | 42 | 1.7 | 7.0 | 0.00 | 0.00 | 0.00 | 1 | 1017.0 |
| 20260830122604 | 74 | 45 | 2.6 | 7.0 | 0.00 | 0.00 | 0.00 | 1 | 1017.0 |
| 20260830122504 | 74 | 47 | 2.6 | 7.0 | 0.00 | 0.00 | 0.00 | 1 | 1017.0 |
| 20260830122425 | 74 | 49 | 2.6 | 7.0 | 0.00 | 0.00 | 0.00 | 1 | 1017.0 |
| 20260830122306 | 74 | 52 | 2.6 | 7.0 | 0.00 | 0.00 | 0.00 | 1 | 1017.0 |
| 20260830122204 | 74 | 53 | 2.6 | 7.0 | 0.00 | 0.00 | 0.00 | 1 | 1017.0 |
| 20260830122125 | 74 | 54 | 2.6 | 7.0 | 0.00 | 0.00 | 0.00 | 1 | 1017.0 |
| 20260830122004 | 74 | 55 | 2.6 | 7.0 | 0.00 | 0.00 | 0.00 | 1 | 1017.0 |
| 20260830121904 | 74 | 57 | 3.5 | 7.0 | 0.00 | 0.00 | 0.00 | 1 | 1017.0 |
| 20260830121825 | 74 | 58 | 3.5 | 7.0 | 0.00 | 0.00 | 0.00 | 1 | 1017.0 |
| 20260830121704 | 74 | 61 | 3.5 | 6.1 | 0.00 | 0.00 | 0.00 | 1 | 1017.0 |
| 20260830121625 | 74 | 61 | 2.6 | 6.1 | 0.00 | 0.00 | 0.00 | 1 | 1017.0 |
| 20260830121525 | 74 | 61 | 2.6 | 6.1 | 0.00 | 0.00 | 0.00 | 1 | 1017.0 |
| 20260830121404 | 74 | 59 | 2.6 | 6.1 | 0.00 | 0.00 | 0.00 | 1 | 1016.9 |
| 20260830121304 | 74 | 60 | 2.6 | 6.1 | 0.00 | 0.00 | 0.00 | 1 | 1016.9 |
| 20260830121204 | 75 | 60 | 2.6 | 6.1 | 0.00 | 0.00 | 0.00 | 1 | 1016.9 |
| 20260830121104 | 75 | 61 | 2.6 | 6.1 | 0.00 | 0.00 | 0.00 | 1 | 1016.9 |
| 20260830121004 | 75 | 61 | 2.6 | 6.1 | 0.00 | 0.00 | 0.00 | 1 | 1016.9 |
| 20260830120904 | 75 | 61 | 1.7 | 6.1 | 0.00 | 0.00 | 0.00 | 1 | 1016.9 |
| 20260830120825 | 75 | 61 | 1.7 | 5.2 | 0.00 | 0.00 | 0.00 | 1 | 1016.9 |
| 20260830120704 | 75 | 60 | 1.7 | 5.2 | 0.00 | 0.00 | 0.00 | 1 | 1016.8 |
| 20260830120604 | 75 | 60 | 1.7 | 5.2 | 0.00 | 0.00 | 0.00 | 1 | 1016.9 |
| 20260830120525 | 75 | 59 | 1.7 | 5.2 | 0.00 | 0.00 | 0.00 | 1 | 1016.9 |
| 20260830120404 | 75 | 59 | 1.7 | 5.2 | 0.00 | 0.00 | 0.00 | 1 | 1016.9 |
| 20260830120325 | 75 | 59 | 1.7 | 4.3 | 0.00 | 0.00 | 0.00 | 1 | 1016.9 |
| 20260830120204 | 75 | 58 | 1.7 | 4.3 | 0.00 | 0.00 | 0.00 | 1 | 1016.9 |
| 20260830120104 | 75 | 58 | 1.7 | 4.3 | 0.00 | 0.00 | 0.00 | 1 | 1016.8 |
| 20260830120004 | 75 | 57 | 1.7 | 4.3 | 0.00 | 0.00 | 0.00 | 1 | 1016.8 |
| 20260830115904 | 75 | 56 | 1.7 | 4.3 | 0.00 | 0.00 | 0.00 | 1 | 1016.8 |
| 20260830115804 | 75 | 55 | 1.7 | 5.2 | 0.00 | 0.00 | 0.00 | 1 | 1016.8 |
| 20260830115704 | 75 | 54 | 1.7 | 5.2 | 0.00 | 0.00 | 0.00 | 1 | 1016.8 |
| 20260830115604 | 75 | 54 | 1.7 | 5.2 | 0.00 | 0.00 | 0.00 | 1 | 1016.8 |
| 20260830115504 | 75 | 53 | 2.6 | 6.1 | 0.00 | 0.00 | 0.00 | 1 | 1016.8 |
| 20260830115404 | 75 | 54 | 2.6 | 6.1 | 0.00 | 0.00 | 0.00 | 1 | 1016.8 |
| 20260830115306 | 75 | 54 | 2.6 | 6.1 | 0.00 | 0.00 | 0.00 | 1 | 1016.8 |
| 20260830115204 | 75 | 54 | 1.7 | 6.1 | 0.00 | 0.00 | 0.00 | 1 | 1016.8 |
| 20260830115104 | 75 | 56 | 2.6 | 6.1 | 0.00 | 0.00 | 0.00 | 1 | 1016.8 |
| 20260830115004 | 75 | 57 | 2.6 | 6.1 | 0.00 | 0.00 | 0.00 | 1 | 1016.8 |
| 20260830114904 | 75 | 56 | 2.6 | 6.1 | 0.00 | 0.00 | 0.00 | 1 | 1016.8 |
| 20260830114804 | 75 | 57 | 2.6 | 6.1 | 0.00 | 0.00 | 0.00 | 1 | 1016.8 |
| 20260830114704 | 75 | 58 | 2.6 | 6.1 | 0.00 | 0.00 | 0.00 | 1 | 1016.7 |
| 20260830114625 | 75 | 58 | 1.7 | 6.1 | 0.00 | 0.00 | 0.00 | 1 | 1016.8 |
| 20260830114525 | 75 | 59 | 1.7 | 4.3 | 0.00 | 0.00 | 0.00 | 1 | 1016.7 |
| 20260830114404 | 75 | 58 | 1.7 | 4.3 | 0.00 | 0.00 | 0.00 | 1 | 1016.7 |
| 20260830114325 | 75 | 57 | 1.7 | 4.3 | 0.00 | 0.00 | 0.00 | 1 | 1016.7 |
| 20260830114204 | 75 | 58 | 1.7 | 4.3 | 0.00 | 0.00 | 0.00 | 1 | 1016.8 |
| 20260830114104 | 75 | 57 | 1.7 | 4.3 | 0.00 | 0.00 | 0.00 | 1 | 1016.7 |
| 20260830114025 | 75 | 57 | 1.7 | 4.3 | 0.00 | 0.00 | 0.00 | 1 | 1016.7 |
| 20260830113904 | 75 | 57 | 1.7 | 4.3 | 0.00 | 0.00 | 0.00 | 1 | 1016.7 |
| 20260830113804 | 75 | 56 | 1.7 | 4.3 | 0.00 | 0.00 | 0.00 | 1 | 1016.7 |
| 20260830113704 | 75 | 55 | 1.7 | 4.3 | 0.00 | 0.00 | 0.00 | 1 | 1016.7 |
| 20260830113604 | 75 | 55 | 1.7 | 4.3 | 0.00 | 0.00 | 0.00 | 1 | 1016.7 |
| 20260830113504 | 75 | 55 | 1.7 | 4.3 | 0.00 | 0.00 | 0.00 | 1 | 1016.7 |
| 20260830113404 | 75 | 55 | 1.7 | 4.3 | 0.00 | 0.00 | 0.00 | 1 | 1016.7 |
| 20260830113304 | 75 | 54 | 1.7 | 4.3 | 0.00 | 0.00 | 0.00 | 1 | 1016.7 |
| 20260830113204 | 75 | 53 | 1.7 | 5.2 | 0.00 | 0.00 | 0.00 | 1 | 1016.7 |
| 20260830113104 | 75 | 51 | 1.7 | 5.2 | 0.00 | 0.00 | 0.00 | 1 | 1016.6 |
| 20260830113004 | 75 | 52 | 1.7 | 5.2 | 0.00 | 0.00 | 0.00 | 1 | 1016.6 |
| 20260830112904 | 75 | 51 | 1.7 | 5.2 | 0.00 | 0.00 | 0.00 | 1 | 1016.6 |
| 20260830112825 | 75 | 51 | 1.7 | 5.2 | 0.00 | 0.00 | 0.00 | 1 | 1016.6 |
| 20260830112704 | 75 | 51 | 1.7 | 5.2 | 0.00 | 0.00 | 0.00 | 1 | 1016.6 |
| 20260830112625 | 75 | 52 | 1.7 | 5.2 | 0.00 | 0.00 | 0.00 | 1 | 1016.5 |
| 20260830112504 | 75 | 52 | 1.7 | 5.2 | 0.00 | 0.00 | 0.00 | 1 | 1016.5 |
| 20260830112404 | 75 | 52 | 1.7 | 5.2 | 0.00 | 0.00 | 0.00 | 1 | 1016.5 |
| 20260830112306 | 75 | 53 | 1.7 | 5.2 | 0.00 | 0.00 | 0.00 | 1 | 1016.5 |
| 20260830112204 | 75 | 53 | 1.7 | 4.3 | 0.00 | 0.00 | 0.00 | 1 | 1016.6 |
| 20260830112104 | 75 | 54 | 1.7 | 4.3 | 0.00 | 0.00 | 0.00 | 1 | 1016.6 |
| 20260830112025 | 75 | 54 | 1.7 | 4.3 | 0.00 | 0.00 | 0.00 | 1 | 1016.5 |
| 20260830111904 | 75 | 55 | 1.7 | 3.5 | 0.00 | 0.00 | 0.00 | 1 | 1016.5 |
| 20260830111804 | 75 | 55 | 1.7 | 3.5 | 0.00 | 0.00 | 0.00 | 1 | 1016.5 |
| 20260830111725 | 76 | 55 | 1.7 | 4.3 | 0.00 | 0.00 | 0.00 | 1 | 1016.5 |
| 20260830111604 | 76 | 56 | 1.7 | 4.3 | 0.00 | 0.00 | 0.00 | 1 | 1016.5 |
| 20260830111504 | 76 | 56 | 1.7 | 5.2 | 0.00 | 0.00 | 0.00 | 1 | 1016.5 |
| 20260830111404 | 76 | 56 | 1.7 | 5.2 | 0.00 | 0.00 | 0.00 | 1 | 1016.5 |
| 20260830111304 | 76 | 56 | 2.6 | 6.1 | 0.00 | 0.00 | 0.00 | 1 | 1016.5 |
| 20260830111225 | 76 | 56 | 2.6 | 6.1 | 0.00 | 0.00 | 0.00 | 1 | 1016.6 |
| 20260830111104 | 76 | 56 | 2.6 | 6.1 | 0.00 | 0.00 | 0.00 | 1 | 1016.6 |
| 20260830111004 | 76 | 55 | 2.6 | 6.1 | 0.00 | 0.00 | 0.00 | 1 | 1016.6 |
| 20260830110904 | 76 | 55 | 2.6 | 6.1 | 0.00 | 0.00 | 0.00 | 1 | 1016.6 |
| 20260830110804 | 76 | 55 | 2.6 | 6.1 | 0.00 | 0.00 | 0.00 | 1 | 1016.5 |
| 20260830110704 | 76 | 55 | 2.6 | 6.1 | 0.00 | 0.00 | 0.00 | 1 | 1016.6 |
| 20260830110604 | 76 | 55 | 1.7 | 6.1 | 0.00 | 0.00 | 0.00 | 1 | 1016.6 |
| 20260830110504 | 76 | 55 | 1.7 | 6.1 | 0.00 | 0.00 | 0.00 | 1 | 1016.6 |
| 20260830110425 | 76 | 54 | 1.7 | 6.1 | 0.00 | 0.00 | 0.00 | 1 | 1016.5 |
| 20260830110304 | 76 | 53 | 1.7 | 5.2 | 0.00 | 0.00 | 0.00 | 1 | 1016.5 |
| 20260830110205 | 76 | 54 | 1.7 | 4.3 | 0.00 | 0.00 | 0.00 | 1 | 1016.5 |
| 20260830110104 | 76 | 54 | 1.7 | 4.3 | 0.00 | 0.00 | 0.00 | 1 | 1016.5 |
| 20260830110005 | 76 | 54 | 1.7 | 4.3 | 0.00 | 0.00 | 0.00 | 1 | 1016.5 |
| 20260830105904 | 76 | 55 | 1.7 | 4.3 | 0.00 | 0.00 | 0.00 | 1 | 1016.5 |
| 20260830105804 | 76 | 55 | 1.7 | 4.3 | 0.00 | 0.00 | 0.00 | 1 | 1016.5 |
| 20260830105704 | 76 | 54 | 1.7 | 4.3 | 0.00 | 0.00 | 0.00 | 1 | 1016.4 |
| 20260830105604 | 76 | 54 | 1.7 | 4.3 | 0.00 | 0.00 | 0.00 | 1 | 1016.4 |
| 20260830105525 | 76 | 55 | 1.7 | 4.3 | 0.00 | 0.00 | 0.00 | 1 | 1016.4 |
| 20260830105425 | 76 | 55 | 1.7 | 4.3 | 0.00 | 0.00 | 0.00 | 1 | 1016.4 |
| 20260830105305 | 76 | 56 | 1.7 | 5.2 | 0.00 | 0.00 | 0.00 | 1 | 1016.5 |
| 20260830105204 | 76 | 56 | 1.7 | 5.2 | 0.00 | 0.00 | 0.00 | 1 | 1016.5 |
| 20260830105104 | 76 | 57 | 1.7 | 5.2 | 0.00 | 0.00 | 0.00 | 1 | 1016.4 |
| 20260830105004 | 76 | 57 | 1.7 | 5.2 | 0.00 | 0.00 | 0.00 | 1 | 1016.5 |
| 20260830104904 | 76 | 58 | 1.7 | 5.2 | 0.00 | 0.00 | 0.00 | 1 | 1016.5 |
| 20260830104804 | 76 | 57 | 1.7 | 5.2 | 0.00 | 0.00 | 0.00 | 1 | 1016.4 |
| 20260830104704 | 76 | 56 | 1.7 | 5.2 | 0.00 | 0.00 | 0.00 | 1 | 1016.5 |
| 20260830104604 | 76 | 56 | 1.7 | 5.2 | 0.00 | 0.00 | 0.00 | 1 | 1016.5 |
| 20260830104504 | 76 | 54 | 1.7 | 5.2 | 0.00 | 0.00 | 0.00 | 1 | 1016.4 |
| 20260830104404 | 76 | 54 | 1.7 | 4.3 | 0.00 | 0.00 | 0.00 | 1 | 1016.4 |
| 20260830104325 | 76 | 54 | 1.7 | 4.3 | 0.00 | 0.00 | 0.00 | 1 | 1016.5 |
| 20260830104204 | 76 | 51 | 1.7 | 4.3 | 0.00 | 0.00 | 0.00 | 1 | 1016.4 |
| 20260830104104 | 76 | 48 | 1.7 | 4.3 | 0.00 | 0.00 | 0.00 | 1 | 1016.5 |
| 20260830104025 | 76 | 44 | 1.7 | 5.2 | 0.00 | 0.00 | 0.00 | 1 | 1016.4 |
| 20260830103904 | 77 | 40 | 1.7 | 5.2 | 0.00 | 0.00 | 0.00 | 1 | 1016.5 |
| 20260830103804 | 77 | 40 | 1.7 | 5.2 | 0.00 | 0.00 | 0.00 | 1 | 1016.5 |
| 20260830103704 | 77 | 39 | 1.7 | 5.2 | 0.00 | 0.00 | 0.00 | 1 | 1016.4 |
| 20260830103625 | 77 | 38 | 1.7 | 5.2 | 0.00 | 0.00 | 0.00 | 1 | 1016.4 |
| 20260830103504 | 77 | 37 | 1.7 | 5.2 | 0.00 | 0.00 | 0.00 | 1 | 1016.4 |
| 20260830103404 | 77 | 35 | 1.7 | 5.2 | 0.00 | 0.00 | 0.00 | 1 | 1016.4 |
| 20260830103304 | 77 | 32 | 1.7 | 5.2 | 0.00 | 0.00 | 0.00 | 1 | 1016.4 |
| 20260830103204 | 77 | 33 | 1.7 | 5.2 | 0.00 | 0.00 | 0.00 | 1 | 1016.4 |
| 20260830103104 | 77 | 35 | 1.7 | 5.2 | 0.00 | 0.00 | 0.00 | 1 | 1016.4 |
| 20260830103004 | 77 | 38 | 1.7 | 4.3 | 0.00 | 0.00 | 0.00 | 1 | 1016.4 |
| 20260830102904 | 77 | 38 | 1.7 | 4.3 | 0.00 | 0.00 | 0.00 | 1 | 1016.4 |
| 20260830102804 | 77 | 39 | 1.7 | 4.3 | 0.00 | 0.00 | 0.00 | 1 | 1016.3 |
| 20260830102704 | 77 | 38 | 1.7 | 6.1 | 0.00 | 0.00 | 0.00 | 1 | 1016.3 |
| 20260830102625 | 77 | 38 | 1.7 | 6.1 | 0.00 | 0.00 | 0.00 | 1 | 1016.3 |
| 20260830102504 | 77 | 39 | 1.7 | 6.1 | 0.00 | 0.00 | 0.00 | 1 | 1016.3 |
| 20260830102404 | 77 | 38 | 1.7 | 6.1 | 0.00 | 0.00 | 0.00 | 1 | 1016.3 |
| 20260830102306 | 77 | 38 | 1.7 | 6.1 | 0.00 | 0.00 | 0.00 | 1 | 1016.3 |
| 20260830102204 | 77 | 37 | 1.7 | 6.1 | 0.00 | 0.00 | 0.00 | 1 | 1016.4 |
| 20260830102125 | 77 | 37 | 1.7 | 6.1 | 0.00 | 0.00 | 0.00 | 1 | 1016.4 |
| 20260830102004 | 77 | 36 | 1.7 | 6.1 | 0.00 | 0.00 | 0.00 | 1 | 1016.4 |
| 20260830101904 | 77 | 36 | 1.7 | 6.1 | 0.00 | 0.00 | 0.00 | 1 | 1016.4 |
| 20260830101804 | 77 | 36 | 1.7 | 6.1 | 0.00 | 0.00 | 0.00 | 1 | 1016.4 |
| 20260830101704 | 77 | 38 | 1.7 | 4.3 | 0.00 | 0.00 | 0.00 | 1 | 1016.4 |
| 20260830101625 | 77 | 38 | 1.7 | 4.3 | 0.00 | 0.00 | 0.00 | 1 | 1016.4 |
| 20260830101504 | 77 | 40 | 1.7 | 4.3 | 0.00 | 0.00 | 0.00 | 1 | 1016.4 |
| 20260830101404 | 77 | 41 | 1.7 | 4.3 | 0.00 | 0.00 | 0.00 | 1 | 1016.4 |
| 20260830101304 | 77 | 41 | 2.6 | 4.3 | 0.00 | 0.00 | 0.00 | 1 | 1016.4 |
| 20260830101204 | 77 | 42 | 2.6 | 4.3 | 0.00 | 0.00 | 0.00 | 1 | 1016.3 |
| 20260830101104 | 78 | 43 | 2.6 | 4.3 | 0.00 | 0.00 | 0.00 | 1 | 1016.4 |
| 20260830101004 | 78 | 44 | 1.7 | 4.3 | 0.00 | 0.00 | 0.00 | 1 | 1016.4 |
| 20260830100925 | 78 | 44 | 2.6 | 4.3 | 0.00 | 0.00 | 0.00 | 1 | 1016.4 |
| 20260830100825 | 78 | 45 | 2.6 | 4.3 | 0.00 | 0.00 | 0.00 | 1 | 1016.3 |
| 20260830100704 | 78 | 44 | 2.6 | 5.2 | 0.00 | 0.00 | 0.00 | 1 | 1016.4 |
| 20260830100604 | 78 | 44 | 2.6 | 5.2 | 0.00 | 0.00 | 0.00 | 1 | 1016.3 |
| 20260830100504 | 78 | 43 | 2.6 | 5.2 | 0.00 | 0.00 | 0.00 | 1 | 1016.3 |
| 20260830100404 | 78 | 41 | 2.6 | 5.2 | 0.00 | 0.00 | 0.00 | 1 | 1016.4 |
| 20260830100304 | 78 | 41 | 2.6 | 5.2 | 0.00 | 0.00 | 0.00 | 1 | 1016.3 |
| 20260830100204 | 78 | 42 | 2.6 | 5.2 | 0.00 | 0.00 | 0.00 | 1 | 1016.4 |
| 20260830100104 | 78 | 42 | 2.6 | 5.2 | 0.00 | 0.00 | 0.00 | 1 | 1016.4 |
| 20260830100004 | 78 | 43 | 2.6 | 5.2 | 0.00 | 0.00 | 0.00 | 1 | 1016.3 |
| 20260830095904 | 78 | 44 | 2.6 | 5.2 | 0.00 | 0.00 | 0.00 | 1 | 1016.3 |
| 20260830095804 | 78 | 44 | 2.6 | 5.2 | 0.00 | 0.00 | 0.00 | 1 | 1016.3 |
| 20260830095704 | 78 | 45 | 2.6 | 5.2 | 0.00 | 0.00 | 0.00 | 1 | 1016.3 |
| 20260830095625 | 78 | 46 | 2.6 | 5.2 | 0.00 | 0.00 | 0.00 | 1 | 1016.3 |
| 20260830095525 | 78 | 47 | 2.6 | 5.2 | 0.00 | 0.00 | 0.00 | 1 | 1016.3 |
| 20260830095404 | 78 | 48 | 2.6 | 5.2 | 0.00 | 0.00 | 0.00 | 1 | 1016.3 |
| 20260830095325 | 78 | 48 | 2.6 | 5.2 | 0.00 | 0.00 | 0.00 | 1 | 1016.2 |
| 20260830095204 | 78 | 47 | 2.6 | 6.1 | 0.00 | 0.00 | 0.00 | 1 | 1016.2 |
| 20260830095104 | 78 | 47 | 3.5 | 6.1 | 0.00 | 0.00 | 0.00 | 1 | 1016.2 |
| 20260830095004 | 78 | 47 | 3.5 | 6.1 | 0.00 | 0.00 | 0.00 | 1 | 1016.2 |
| 20260830094904 | 78 | 47 | 3.5 | 6.1 | 0.00 | 0.00 | 0.00 | 1 | 1016.2 |
| 20260830094825 | 78 | 48 | 3.5 | 6.1 | 0.00 | 0.00 | 0.00 | 1 | 1016.2 |
| 20260830094704 | 78 | 49 | 3.5 | 6.1 | 0.00 | 0.00 | 0.00 | 1 | 1016.2 |
| 20260830094604 | 78 | 50 | 3.5 | 6.1 | 0.00 | 0.00 | 0.00 | 1 | 1016.2 |
| 20260830094505 | 78 | 51 | 3.5 | 6.1 | 0.00 | 0.00 | 0.00 | 1 | 1016.2 |
| 20260830094425 | 78 | 52 | 2.6 | 6.1 | 0.00 | 0.00 | 0.00 | 1 | 1016.2 |
| 20260830094304 | 78 | 55 | 2.6 | 6.1 | 0.00 | 0.00 | 0.00 | 1 | 1016.2 |
| 20260830094204 | 78 | 57 | 2.6 | 6.1 | 0.00 | 0.00 | 0.00 | 1 | 1016.1 |
| 20260830094104 | 78 | 59 | 2.6 | 6.1 | 0.00 | 0.00 | 0.00 | 1 | 1016.1 |
| 20260830094004 | 78 | 62 | 2.6 | 6.1 | 0.00 | 0.00 | 0.00 | 1 | 1016.1 |
| 20260830093904 | 78 | 64 | 2.6 | 6.1 | 0.00 | 0.00 | 0.00 | 1 | 1016.1 |
| 20260830093804 | 78 | 65 | 2.6 | 5.2 | 0.00 | 0.00 | 0.00 | 1 | 1016.2 |
| 20260830093704 | 78 | 65 | 2.6 | 5.2 | 0.00 | 0.00 | 0.00 | 1 | 1016.2 |
| 20260830093604 | 78 | 64 | 2.6 | 5.2 | 0.00 | 0.00 | 0.00 | 1 | 1016.1 |
| 20260830093504 | 78 | 63 | 2.6 | 5.2 | 0.00 | 0.00 | 0.00 | 1 | 1016.2 |
| 20260830093404 | 78 | 62 | 2.6 | 5.2 | 0.00 | 0.00 | 0.00 | 1 | 1016.2 |
| 20260830093304 | 78 | 62 | 2.6 | 5.2 | 0.00 | 0.00 | 0.00 | 1 | 1016.1 |
| 20260830093204 | 78 | 61 | 2.6 | 5.2 | 0.00 | 0.00 | 0.00 | 1 | 1016.1 |
| 20260830093104 | 78 | 58 | 2.6 | 5.2 | 0.00 | 0.00 | 0.00 | 1 | 1016.2 |
| 20260830093004 | 78 | 55 | 3.5 | 5.2 | 0.00 | 0.00 | 0.00 | 1 | 1016.1 |
| 20260830092904 | 78 | 52 | 2.6 | 5.2 | 0.00 | 0.00 | 0.00 | 1 | 1016.1 |
| 20260830092825 | 78 | 49 | 3.5 | 5.2 | 0.00 | 0.00 | 0.00 | 1 | 1016.1 |
| 20260830092704 | 78 | 47 | 3.5 | 7.0 | 0.00 | 0.00 | 0.00 | 1 | 1016.1 |
| 20260830092604 | 78 | 46 | 3.5 | 7.0 | 0.00 | 0.00 | 0.00 | 1 | 1016.1 |
| 20260830092525 | 78 | 45 | 3.5 | 7.0 | 0.00 | 0.00 | 0.00 | 1 | 1016.1 |
| 20260830092404 | 79 | 44 | 3.5 | 7.0 | 0.00 | 0.00 | 0.00 | 1 | 1016.0 |
| 20260830092306 | 79 | 42 | 3.5 | 7.0 | 0.00 | 0.00 | 0.00 | 1 | 1016.1 |
| 20260830092204 | 79 | 42 | 3.5 | 7.0 | 0.00 | 0.00 | 0.00 | 1 | 1016.1 |
| 20260830092125 | 79 | 42 | 3.5 | 7.0 | 0.00 | 0.00 | 0.00 | 1 | 1016.1 |
| 20260830092004 | 79 | 44 | 4.3 | 7.0 | 0.00 | 0.00 | 0.00 | 1 | 1016.1 |
| 20260830091904 | 79 | 44 | 4.3 | 7.0 | 0.00 | 0.00 | 0.00 | 1 | 1016.1 |
| 20260830091804 | 79 | 44 | 4.3 | 7.0 | 0.00 | 0.00 | 0.00 | 1 | 1016.1 |
| 20260830091704 | 79 | 45 | 4.3 | 7.0 | 0.00 | 0.00 | 0.00 | 1 | 1016.1 |
| 20260830091604 | 79 | 44 | 4.3 | 7.0 | 0.00 | 0.00 | 0.00 | 1 | 1016.1 |
| 20260830091525 | 79 | 45 | 4.3 | 7.0 | 0.00 | 0.00 | 0.00 | 1 | 1016.2 |
| 20260830091404 | 79 | 45 | 4.3 | 7.8 | 0.00 | 0.00 | 0.00 | 1 | 1016.2 |
| 20260830091304 | 79 | 45 | 4.3 | 7.8 | 0.00 | 0.00 | 0.00 | 1 | 1016.2 |
| 20260830091204 | 79 | 45 | 4.3 | 7.8 | 0.00 | 0.00 | 0.00 | 1 | 1016.1 |
| 20260830091125 | 79 | 46 | 4.3 | 7.8 | 0.00 | 0.00 | 0.00 | 1 | 1016.2 |
| 20260830091004 | 79 | 45 | 4.3 | 7.8 | 0.00 | 0.00 | 0.00 | 1 | 1016.2 |
| 20260830090904 | 79 | 44 | 4.3 | 8.7 | 0.00 | 0.00 | 0.00 | 1 | 1016.2 |
| 20260830090804 | 79 | 44 | 5.2 | 8.7 | 0.00 | 0.00 | 0.00 | 1 | 1016.2 |
| 20260830090704 | 79 | 45 | 5.2 | 8.7 | 0.00 | 0.00 | 0.00 | 1 | 1016.2 |
| 20260830090604 | 79 | 45 | 4.3 | 8.7 | 0.00 | 0.00 | 0.00 | 1 | 1016.2 |
| 20260830090504 | 79 | 46 | 4.3 | 8.7 | 0.00 | 0.00 | 0.00 | 1 | 1016.2 |
| 20260830090404 | 79 | 47 | 4.3 | 8.7 | 0.00 | 0.00 | 0.00 | 1 | 1016.3 |
| 20260830090304 | 79 | 47 | 4.3 | 8.7 | 0.00 | 0.00 | 0.00 | 1 | 1016.3 |
| 20260830090204 | 79 | 48 | 4.3 | 8.7 | 0.00 | 0.00 | 0.00 | 1 | 1016.2 |
| 20260830090104 | 79 | 49 | 4.3 | 8.7 | 0.00 | 0.00 | 0.00 | 1 | 1016.2 |
| 20260830090025 | 79 | 48 | 4.3 | 8.7 | 0.00 | 0.00 | 0.00 | 1 | 1016.3 |
| 20260830085904 | 79 | 49 | 3.5 | 7.8 | 0.00 | 0.00 | 0.00 | 1 | 1016.3 |
| 20260830085804 | 79 | 50 | 3.5 | 7.8 | 0.00 | 0.00 | 0.00 | 1 | 1016.3 |
| 20260830085704 | 79 | 48 | 3.5 | 7.8 | 0.00 | 0.00 | 0.00 | 1 | 1016.3 |
| 20260830085604 | 79 | 47 | 3.5 | 7.8 | 0.00 | 0.00 | 0.00 | 1 | 1016.3 |
| 20260830085525 | 79 | 47 | 3.5 | 7.8 | 0.00 | 0.00 | 0.00 | 1 | 1016.3 |
| 20260830085404 | 79 | 44 | 3.5 | 7.8 | 0.00 | 0.00 | 0.00 | 1 | 1016.3 |
| 20260830085325 | 79 | 44 | 3.5 | 7.8 | 0.00 | 0.00 | 0.00 | 1 | 1016.4 |
| 20260830085204 | 80 | 43 | 3.5 | 7.8 | 0.00 | 0.00 | 0.00 | 1 | 1016.4 |
| 20260830085104 | 80 | 42 | 3.5 | 7.8 | 0.00 | 0.00 | 0.00 | 1 | 1016.3 |
| 20260830085004 | 80 | 45 | 3.5 | 7.8 | 0.00 | 0.00 | 0.00 | 1 | 1016.4 |
| 20260830084904 | 80 | 47 | 3.5 | 7.8 | 0.00 | 0.00 | 0.00 | 1 | 1016.3 |
| 20260830084804 | 80 | 48 | 3.5 | 7.8 | 0.00 | 0.00 | 0.00 | 1 | 1016.3 |
| 20260830084704 | 80 | 50 | 3.5 | 7.0 | 0.00 | 0.00 | 0.00 | 1 | 1016.3 |
| 20260830084604 | 80 | 51 | 3.5 | 7.0 | 0.00 | 0.00 | 0.00 | 1 | 1016.3 |
| 20260830084525 | 80 | 51 | 3.5 | 7.0 | 0.00 | 0.00 | 0.00 | 1 | 1016.3 |
| 20260830084404 | 80 | 53 | 3.5 | 7.0 | 0.00 | 0.00 | 0.00 | 1 | 1016.3 |
| 20260830084304 | 80 | 54 | 3.5 | 7.0 | 0.00 | 0.00 | 0.00 | 1 | 1016.3 |
| 20260830084225 | 80 | 54 | 3.5 | 7.0 | 0.00 | 0.00 | 0.00 | 1 | 1016.4 |
| 20260830084104 | 80 | 52 | 3.5 | 7.8 | 0.00 | 0.00 | 0.00 | 1 | 1016.4 |
| 20260830084004 | 80 | 50 | 3.5 | 7.8 | 0.00 | 0.00 | 0.00 | 1 | 1016.4 |
| 20260830083904 | 80 | 49 | 3.5 | 7.8 | 0.00 | 0.00 | 0.00 | 1 | 1016.4 |
| 20260830083804 | 80 | 48 | 3.5 | 7.8 | 0.00 | 0.00 | 0.00 | 1 | 1016.4 |
| 20260830083704 | 80 | 50 | 3.5 | 7.8 | 0.00 | 0.00 | 0.00 | 1 | 1016.4 |
| 20260830083604 | 80 | 50 | 3.5 | 7.8 | 0.00 | 0.00 | 0.00 | 1 | 1016.4 |
| 20260830083504 | 80 | 52 | 3.5 | 7.8 | 0.00 | 0.00 | 0.00 | 1 | 1016.4 |
| 20260830083425 | 80 | 52 | 3.5 | 7.8 | 0.00 | 0.00 | 0.00 | 1 | 1016.3 |
| 20260830083304 | 80 | 50 | 3.5 | 7.8 | 0.00 | 0.00 | 0.00 | 1 | 1016.3 |
| 20260830083204 | 80 | 50 | 3.5 | 7.8 | 0.00 | 0.00 | 0.00 | 1 | 1016.3 |
| 20260830083104 | 80 | 52 | 3.5 | 6.1 | 0.00 | 0.00 | 0.00 | 1 | 1016.3 |
| 20260830083004 | 80 | 52 | 3.5 | 6.1 | 0.00 | 0.00 | 0.00 | 1 | 1016.3 |
| 20260830082904 | 80 | 52 | 2.6 | 6.1 | 0.00 | 0.00 | 0.00 | 1 | 1016.3 |
| 20260830082804 | 80 | 51 | 3.5 | 7.0 | 0.00 | 0.00 | 0.00 | 1 | 1016.3 |
| 20260830082704 | 80 | 50 | 3.5 | 7.0 | 0.00 | 0.00 | 0.00 | 1 | 1016.3 |
| 20260830082604 | 80 | 47 | 3.5 | 7.8 | 0.00 | 0.00 | 0.00 | 1 | 1016.3 |
| 20260830082525 | 80 | 46 | 3.5 | 7.8 | 0.00 | 0.00 | 0.00 | 1 | 1016.3 |
| 20260830082404 | 80 | 47 | 3.5 | 7.8 | 0.00 | 0.00 | 0.00 | 1 | 1016.3 |
| 20260830082325 | 80 | 50 | 3.5 | 7.8 | 0.00 | 0.00 | 0.00 | 1 | 1016.3 |
| 20260830082204 | 80 | 52 | 3.5 | 7.8 | 0.00 | 0.00 | 0.00 | 1 | 1016.3 |
| 20260830082104 | 80 | 52 | 3.5 | 7.8 | 0.00 | 0.00 | 0.00 | 1 | 1016.3 |
| 20260830082004 | 80 | 52 | 3.5 | 7.8 | 0.00 | 0.00 | 0.00 | 1 | 1016.3 |
| 20260830081904 | 80 | 52 | 3.5 | 7.8 | 0.00 | 0.00 | 0.00 | 1 | 1016.3 |
| 20260830081804 | 80 | 53 | 3.5 | 7.8 | 0.00 | 0.00 | 0.00 | 1 | 1016.4 |
| 20260830081704 | 80 | 53 | 2.6 | 7.8 | 0.00 | 0.00 | 0.00 | 1 | 1016.4 |
| 20260830081604 | 80 | 54 | 2.6 | 7.0 | 0.00 | 0.00 | 0.00 | 1 | 1016.4 |
| 20260830081504 | 80 | 51 | 2.6 | 9.6 | 0.00 | 0.00 | 0.00 | 1 | 1016.4 |
| 20260830081404 | 80 | 48 | 2.6 | 9.6 | 0.00 | 0.00 | 0.00 | 1 | 1016.4 |
| 20260830081304 | 80 | 45 | 2.6 | 9.6 | 0.00 | 0.00 | 0.00 | 1 | 1016.5 |
| 20260830081204 | 80 | 44 | 3.5 | 9.6 | 0.00 | 0.00 | 0.00 | 1 | 1016.5 |
| 20260830081104 | 81 | 45 | 3.5 | 9.6 | 0.00 | 0.00 | 0.00 | 1 | 1016.5 |
| 20260830081004 | 81 | 45 | 3.5 | 9.6 | 0.00 | 0.00 | 0.00 | 1 | 1016.5 |
| 20260830080925 | 81 | 44 | 3.5 | 9.6 | 0.00 | 0.00 | 0.00 | 1 | 1016.5 |
| 20260830080804 | 81 | 42 | 3.5 | 9.6 | 0.00 | 0.00 | 0.00 | 1 | 1016.5 |
| 20260830080704 | 81 | 43 | 3.5 | 9.6 | 0.00 | 0.00 | 0.00 | 1 | 1016.5 |
| 20260830080604 | 81 | 43 | 3.5 | 9.6 | 0.00 | 0.00 | 0.00 | 1 | 1016.5 |
| 20260830080504 | 81 | 44 | 3.5 | 8.7 | 0.00 | 0.00 | 0.00 | 1 | 1016.4 |
| 20260830080404 | 81 | 45 | 3.5 | 8.7 | 0.00 | 0.00 | 0.00 | 1 | 1016.5 |
| 20260830080304 | 81 | 45 | 3.5 | 8.7 | 0.00 | 0.00 | 0.00 | 1 | 1016.5 |
| 20260830080204 | 81 | 45 | 3.5 | 8.7 | 0.00 | 0.00 | 0.00 | 1 | 1016.5 |
| 20260830080104 | 81 | 44 | 3.5 | 8.7 | 0.00 | 0.00 | 0.00 | 1 | 1016.5 |
| 20260830080004 | 81 | 44 | 4.3 | 8.7 | 0.00 | 0.00 | 0.00 | 1 | 1016.5 |
| 20260830075904 | 81 | 46 | 3.5 | 8.7 | 0.00 | 0.00 | 0.00 | 1 | 1016.5 |
| 20260830075804 | 81 | 48 | 3.5 | 7.8 | 0.00 | 0.00 | 0.00 | 1 | 1016.5 |
| 20260830075704 | 81 | 48 | 4.3 | 7.8 | 0.00 | 0.00 | 0.00 | 1 | 1016.5 |
| 20260830075604 | 81 | 48 | 4.3 | 7.8 | 0.00 | 0.00 | 0.00 | 1 | 1016.5 |
| 20260830075525 | 81 | 48 | 4.3 | 7.8 | 0.00 | 0.00 | 0.00 | 1 | 1016.5 |
| 20260830075425 | 81 | 46 | 4.3 | 7.8 | 0.00 | 0.00 | 0.00 | 1 | 1016.5 |
| 20260830075306 | 81 | 46 | 3.5 | 7.8 | 0.00 | 0.00 | 0.00 | 1 | 1016.5 |
| 20260830075225 | 81 | 45 | 3.5 | 7.8 | 0.00 | 0.00 | 0.00 | 1 | 1016.5 |
| 20260830075104 | 81 | 45 | 3.5 | 7.8 | 0.00 | 0.00 | 0.00 | 1 | 1016.5 |
| 20260830075025 | 81 | 46 | 3.5 | 7.8 | 0.00 | 0.00 | 0.00 | 1 | 1016.6 |
| 20260830074904 | 81 | 46 | 3.5 | 7.8 | 0.00 | 0.00 | 0.00 | 1 | 1016.5 |
| 20260830074804 | 81 | 46 | 3.5 | 7.8 | 0.00 | 0.00 | 0.00 | 1 | 1016.5 |
| 20260830074704 | 81 | 46 | 2.6 | 7.8 | 0.00 | 0.00 | 0.00 | 1 | 1016.5 |
| 20260830074604 | 81 | 47 | 2.6 | 7.8 | 0.00 | 0.00 | 0.00 | 1 | 1016.5 |
| 20260830074504 | 81 | 48 | 2.6 | 7.8 | 0.00 | 0.00 | 0.00 | 1 | 1016.5 |
| 20260830074404 | 81 | 52 | 2.6 | 7.8 | 0.00 | 0.00 | 0.00 | 1 | 1016.6 |
| 20260830074304 | 81 | 54 | 1.7 | 7.8 | 0.00 | 0.00 | 0.00 | 1 | 1016.6 |
| 20260830074204 | 81 | 57 | 1.7 | 6.1 | 0.00 | 0.00 | 0.00 | 1 | 1016.6 |
| 20260830074104 | 81 | 55 | 1.7 | 5.2 | 0.00 | 0.00 | 0.00 | 1 | 1016.6 |
| 20260830074025 | 81 | 51 | 2.6 | 5.2 | 0.00 | 0.00 | 0.00 | 1 | 1016.7 |
| 20260830073904 | 81 | 48 | 2.6 | 5.2 | 0.00 | 0.00 | 0.00 | 1 | 1016.6 |
| 20260830073804 | 81 | 47 | 2.6 | 5.2 | 0.00 | 0.00 | 0.00 | 1 | 1016.6 |
| 20260830073725 | 81 | 47 | 2.6 | 5.2 | 0.00 | 0.00 | 0.00 | 1 | 1016.6 |
| 20260830073604 | 81 | 44 | 2.6 | 7.0 | 0.00 | 0.00 | 0.00 | 1 | 1016.6 |
| 20260830073504 | 81 | 44 | 2.6 | 7.8 | 0.00 | 0.00 | 0.00 | 1 | 1016.6 |
| 20260830073404 | 82 | 43 | 3.5 | 7.8 | 0.00 | 0.00 | 0.00 | 1 | 1016.6 |
| 20260830073325 | 82 | 43 | 3.5 | 7.8 | 0.00 | 0.00 | 0.00 | 1 | 1016.6 |
| 20260830073204 | 82 | 40 | 3.5 | 7.8 | 0.00 | 0.00 | 0.00 | 1 | 1016.7 |
| 20260830073104 | 82 | 42 | 3.5 | 7.8 | 0.00 | 0.00 | 0.00 | 1 | 1016.6 |
| 20260830073004 | 82 | 44 | 3.5 | 7.8 | 0.00 | 0.00 | 0.00 | 1 | 1016.5 |
| 20260830072925 | 82 | 44 | 3.5 | 7.8 | 0.00 | 0.00 | 0.00 | 1 | 1016.6 |
| 20260830072804 | 82 | 45 | 3.5 | 7.8 | 0.00 | 0.00 | 0.00 | 1 | 1016.5 |
| 20260830072704 | 82 | 45 | 3.5 | 7.8 | 0.00 | 0.00 | 0.00 | 1 | 1016.6 |
| 20260830072604 | 82 | 46 | 3.5 | 7.8 | 0.00 | 0.00 | 0.00 | 1 | 1016.6 |
| 20260830072504 | 82 | 45 | 3.5 | 7.0 | 0.00 | 0.00 | 0.00 | 1 | 1016.6 |
| 20260830072404 | 82 | 42 | 3.5 | 7.0 | 0.00 | 0.00 | 0.00 | 1 | 1016.6 |
| 20260830072306 | 82 | 43 | 3.5 | 7.0 | 0.00 | 0.00 | 0.00 | 1 | 1016.6 |
| 20260830072204 | 82 | 44 | 3.5 | 7.0 | 0.00 | 0.00 | 0.00 | 1 | 1016.7 |
| 20260830072104 | 82 | 45 | 3.5 | 7.0 | 0.00 | 0.00 | 0.00 | 1 | 1016.7 |
| 20260830072004 | 82 | 44 | 3.5 | 7.8 | 0.00 | 0.00 | 0.00 | 1 | 1016.7 |
| 20260830071904 | 82 | 44 | 3.5 | 7.8 | 0.00 | 0.00 | 0.00 | 1 | 1016.7 |
| 20260830071804 | 82 | 45 | 3.5 | 7.8 | 0.00 | 0.00 | 0.00 | 1 | 1016.7 |
| 20260830071704 | 82 | 46 | 3.5 | 7.8 | 0.00 | 0.00 | 0.00 | 1 | 1016.7 |
| 20260830071604 | 82 | 47 | 3.5 | 7.8 | 0.00 | 0.00 | 0.00 | 1 | 1016.8 |
| 20260830071504 | 82 | 48 | 2.6 | 7.8 | 0.00 | 0.00 | 0.00 | 1 | 1016.8 |
| 20260830071404 | 82 | 51 | 2.6 | 7.8 | 0.00 | 0.00 | 0.00 | 1 | 1016.8 |
| 20260830071304 | 82 | 50 | 2.6 | 7.8 | 0.00 | 0.00 | 0.00 | 1 | 1016.7 |
| 20260830071204 | 82 | 48 | 2.6 | 7.8 | 0.00 | 0.00 | 0.00 | 1 | 1016.7 |
| 20260830071104 | 82 | 45 | 2.6 | 7.8 | 0.00 | 0.00 | 0.00 | 1 | 1016.7 |
| 20260830071004 | 82 | 45 | 2.6 | 7.0 | 0.00 | 0.00 | 0.00 | 1 | 1016.7 |
| 20260830070925 | 82 | 44 | 2.6 | 7.0 | 0.00 | 0.00 | 0.00 | 1 | 1016.8 |
| 20260830070825 | 82 | 43 | 2.6 | 7.0 | 0.00 | 0.00 | 0.00 | 1 | 1016.8 |
| 20260830070704 | 82 | 42 | 2.6 | 7.0 | 0.00 | 0.00 | 0.00 | 1 | 1016.8 |
| 20260830070625 | 82 | 42 | 2.6 | 7.0 | 0.00 | 0.00 | 0.00 | 1 | 1016.8 |
| 20260830070504 | 82 | 43 | 2.6 | 7.0 | 0.00 | 0.00 | 0.00 | 1 | 1016.7 |
| 20260830070404 | 82 | 43 | 3.5 | 7.0 | 0.00 | 0.00 | 0.00 | 1 | 1016.8 |
| 20260830070304 | 82 | 45 | 3.5 | 7.0 | 0.00 | 0.00 | 0.00 | 1 | 1016.7 |
| 20260830070204 | 82 | 46 | 3.5 | 7.0 | 0.00 | 0.00 | 0.00 | 1 | 1016.8 |
| 20260830070104 | 82 | 47 | 2.6 | 7.0 | 0.00 | 0.00 | 0.00 | 1 | 1016.8 |
| 20260830070004 | 82 | 46 | 2.6 | 7.0 | 0.00 | 0.00 | 0.00 | 1 | 1016.8 |
| 20260830065904 | 82 | 45 | 2.6 | 7.0 | 0.00 | 0.00 | 0.00 | 1 | 1016.8 |
| 20260830065825 | 82 | 43 | 2.6 | 7.0 | 0.00 | 0.00 | 0.00 | 1 | 1016.8 |
| 20260830065704 | 82 | 42 | 2.6 | 7.0 | 0.00 | 0.00 | 0.00 | 1 | 1016.8 |
| 20260830065604 | 82 | 39 | 2.6 | 7.0 | 0.00 | 0.00 | 0.00 | 1 | 1016.8 |
| 20260830065504 | 82 | 37 | 2.6 | 7.0 | 0.00 | 0.00 | 0.00 | 1 | 1016.8 |
| 20260830065404 | 82 | 37 | 2.6 | 7.0 | 0.00 | 0.00 | 0.00 | 1 | 1016.8 |
| 20260830065306 | 82 | 36 | 2.6 | 6.1 | 0.00 | 0.00 | 0.00 | 1 | 1016.7 |
| 20260830065204 | 82 | 35 | 2.6 | 6.1 | 0.00 | 0.00 | 0.00 | 1 | 1016.7 |
| 20260830065104 | 82 | 36 | 3.5 | 6.1 | 0.00 | 0.00 | 0.00 | 1 | 1016.8 |
| 20260830065004 | 82 | 37 | 3.5 | 7.8 | 0.00 | 0.00 | 0.00 | 1 | 1016.7 |
| 20260830064904 | 82 | 39 | 3.5 | 7.8 | 0.00 | 0.00 | 0.00 | 1 | 1016.7 |
| 20260830064804 | 82 | 41 | 3.5 | 7.8 | 0.00 | 0.00 | 0.00 | 1 | 1016.8 |
| 20260830064706 | 82 | 42 | 3.5 | 7.8 | 0.00 | 0.00 | 0.00 | 1 | 1016.7 |
| 20260830064604 | 82 | 43 | 3.5 | 7.8 | 0.00 | 0.00 | 0.00 | 1 | 1016.8 |
| 20260830064504 | 82 | 44 | 3.5 | 7.8 | 0.00 | 0.00 | 0.00 | 1 | 1016.7 |
| 20260830064425 | 82 | 43 | 2.6 | 7.8 | 0.00 | 0.00 | 0.00 | 1 | 1016.7 |
| 20260830064304 | 82 | 44 | 2.6 | 7.8 | 0.00 | 0.00 | 0.00 | 1 | 1016.7 |
| 20260830064225 | 82 | 44 | 2.6 | 7.8 | 0.00 | 0.00 | 0.00 | 1 | 1016.7 |
| 20260830064104 | 82 | 45 | 2.6 | 7.8 | 0.00 | 0.00 | 0.00 | 1 | 1016.7 |
| 20260830064004 | 82 | 46 | 2.6 | 6.1 | 0.00 | 0.00 | 0.00 | 1 | 1016.7 |
| 20260830063904 | 82 | 46 | 2.6 | 5.2 | 0.00 | 0.00 | 0.00 | 1 | 1016.7 |
| 20260830063825 | 82 | 44 | 2.6 | 5.2 | 0.00 | 0.00 | 0.00 | 1 | 1016.7 |
| 20260830063704 | 82 | 42 | 2.6 | 6.1 | 0.00 | 0.00 | 0.00 | 1 | 1016.7 |
| 20260830063604 | 82 | 41 | 2.6 | 6.1 | 0.00 | 0.00 | 0.00 | 1 | 1016.8 |
| 20260830063504 | 82 | 40 | 2.6 | 7.0 | 0.00 | 0.00 | 0.00 | 1 | 1016.7 |
| 20260830063404 | 82 | 40 | 2.6 | 7.0 | 0.00 | 0.00 | 0.00 | 1 | 1016.7 |
| 20260830063304 | 82 | 37 | 2.6 | 7.0 | 0.00 | 0.00 | 0.00 | 1 | 1016.8 |
| 20260830063204 | 82 | 34 | 2.6 | 7.0 | 0.00 | 0.00 | 0.00 | 1 | 1016.8 |
| 20260830063104 | 82 | 32 | 3.5 | 7.0 | 0.00 | 0.00 | 0.00 | 1 | 1016.8 |
| 20260830063025 | 82 | 32 | 2.6 | 7.0 | 0.00 | 0.00 | 0.00 | 1 | 1016.7 |
| 20260830062925 | 82 | 31 | 2.6 | 7.0 | 0.00 | 0.00 | 0.00 | 1 | 1016.8 |
| 20260830062804 | 82 | 30 | 2.6 | 7.0 | 0.00 | 0.00 | 0.00 | 1 | 1016.7 |
| 20260830062704 | 82 | 30 | 2.6 | 7.0 | 0.00 | 0.00 | 0.00 | 1 | 1016.8 |
| 20260830062604 | 82 | 31 | 2.6 | 7.0 | 0.00 | 0.00 | 0.00 | 1 | 1016.8 |
| 20260830062504 | 82 | 30 | 2.6 | 6.1 | 0.00 | 0.00 | 0.00 | 1 | 1016.8 |
| 20260830062404 | 82 | 27 | 2.6 | 6.1 | 0.00 | 0.00 | 0.00 | 1 | 1016.8 |
| 20260830062306 | 82 | 25 | 1.7 | 6.1 | 0.00 | 0.00 | 0.00 | 1 | 1016.7 |
| 20260830062204 | 82 | 24 | 1.7 | 6.1 | 0.00 | 0.00 | 0.00 | 1 | 1016.7 |
| 20260830062104 | 83 | 26 | 1.7 | 5.2 | 0.00 | 0.00 | 0.00 | 1 | 1016.8 |
| 20260830062004 | 83 | 26 | 1.7 | 6.1 | 0.00 | 0.00 | 0.00 | 1 | 1016.8 |
| 20260830061904 | 83 | 26 | 1.7 | 6.1 | 0.00 | 0.00 | 0.00 | 1 | 1016.8 |
| 20260830061804 | 83 | 26 | 1.7 | 6.1 | 0.00 | 0.00 | 0.00 | 1 | 1016.8 |
| 20260830061725 | 83 | 26 | 1.7 | 6.1 | 0.00 | 0.00 | 0.00 | 1 | 1016.8 |
| 20260830061604 | 83 | 26 | 1.7 | 6.1 | 0.00 | 0.00 | 0.00 | 1 | 1016.8 |
| 20260830061504 | 83 | 30 | 2.6 | 6.1 | 0.00 | 0.00 | 0.00 | 1 | 1016.8 |
| 20260830061425 | 83 | 31 | 2.6 | 6.1 | 0.00 | 0.00 | 0.00 | 1 | 1016.8 |
| 20260830061304 | 83 | 34 | 2.6 | 6.1 | 0.00 | 0.00 | 0.00 | 1 | 1016.8 |
| 20260830061204 | 83 | 37 | 2.6 | 6.1 | 0.00 | 0.00 | 0.00 | 1 | 1016.8 |
| 20260830061104 | 83 | 38 | 2.6 | 6.1 | 0.00 | 0.00 | 0.00 | 1 | 1016.8 |
| 20260830061004 | 83 | 39 | 2.6 | 5.2 | 0.00 | 0.00 | 0.00 | 1 | 1016.7 |
| 20260830060904 | 83 | 39 | 2.6 | 5.2 | 0.00 | 0.00 | 0.00 | 1 | 1016.8 |
| 20260830060825 | 83 | 40 | 2.6 | 5.2 | 0.00 | 0.00 | 0.00 | 1 | 1016.7 |
| 20260830060704 | 83 | 41 | 2.6 | 5.2 | 0.00 | 0.00 | 0.00 | 1 | 1016.8 |
| 20260830060604 | 83 | 43 | 2.6 | 5.2 | 0.00 | 0.00 | 0.00 | 1 | 1016.8 |
| 20260830060504 | 83 | 43 | 2.6 | 5.2 | 0.00 | 0.00 | 0.00 | 1 | 1016.8 |
| 20260830060425 | 83 | 44 | 2.6 | 5.2 | 0.00 | 0.00 | 0.00 | 1 | 1016.8 |
| 20260830060325 | 83 | 43 | 2.6 | 7.0 | 0.00 | 0.00 | 0.00 | 1 | 1016.7 |
| 20260830060204 | 83 | 43 | 2.6 | 7.0 | 0.00 | 0.00 | 0.00 | 1 | 1016.7 |
| 20260830060104 | 83 | 39 | 2.6 | 7.0 | 0.00 | 0.00 | 0.00 | 1 | 1016.7 |
| 20260830060004 | 83 | 35 | 2.6 | 7.0 | 0.00 | 0.00 | 0.00 | 1 | 1016.7 |
| 20260830055904 | 83 | 30 | 2.6 | 7.0 | 0.00 | 0.00 | 0.00 | 1 | 1016.7 |
| 20260830055804 | 83 | 21 | 2.6 | 7.0 | 0.00 | 0.00 | 0.00 | 1 | 1016.7 |
| 20260830055706 | 83 | 19 | 2.6 | 7.0 | 0.00 | 0.00 | 0.00 | 1 | 1016.7 |
| 20260830055604 | 83 | 15 | 2.6 | 7.0 | 0.00 | 0.00 | 0.00 | 1 | 1016.7 |
| 20260830055504 | 83 | 14 | 2.6 | 7.0 | 0.00 | 0.00 | 0.00 | 1 | 1016.7 |
| 20260830055425 | 83 | 13 | 2.6 | 7.0 | 0.00 | 0.00 | 0.00 | 1 | 1016.7 |
| 20260830055306 | 83 | 12 | 2.6 | 6.1 | 0.00 | 0.00 | 0.00 | 1 | 1016.6 |
| 20260830055204 | 84 | 13 | 2.6 | 6.1 | 0.00 | 0.00 | 0.00 | 1 | 1016.6 |
| 20260830055104 | 84 | 17 | 2.6 | 6.1 | 0.00 | 0.00 | 0.00 | 1 | 1016.6 |
| 20260830055004 | 84 | 21 | 2.6 | 6.1 | 0.00 | 0.00 | 0.00 | 1 | 1016.6 |
| 20260830054904 | 84 | 26 | 2.6 | 7.8 | 0.00 | 0.00 | 0.00 | 1 | 1016.6 |
| 20260830054804 | 84 | 31 | 2.6 | 7.8 | 0.00 | 0.00 | 0.00 | 1 | 1016.6 |
| 20260830054704 | 84 | 34 | 2.6 | 7.8 | 0.00 | 0.00 | 0.00 | 1 | 1016.6 |
| 20260830054604 | 84 | 35 | 2.6 | 7.8 | 0.00 | 0.00 | 0.00 | 1 | 1016.6 |
| 20260830054525 | 84 | 37 | 2.6 | 7.8 | 0.00 | 0.00 | 0.00 | 1 | 1016.6 |
| 20260830054404 | 84 | 39 | 2.6 | 7.8 | 0.00 | 0.00 | 0.00 | 1 | 1016.5 |
| 20260830054304 | 84 | 39 | 2.6 | 7.8 | 0.00 | 0.00 | 0.00 | 1 | 1016.5 |
| 20260830054204 | 84 | 39 | 2.6 | 7.8 | 0.00 | 0.00 | 0.00 | 1 | 1016.5 |
| 20260830054104 | 84 | 39 | 2.6 | 7.8 | 0.00 | 0.00 | 0.00 | 1 | 1016.5 |
| 20260830054004 | 84 | 39 | 2.6 | 7.8 | 0.00 | 0.00 | 0.00 | 1 | 1016.5 |
| 20260830053925 | 84 | 40 | 2.6 | 7.8 | 0.00 | 0.00 | 0.00 | 1 | 1016.4 |
| 20260830053804 | 84 | 42 | 2.6 | 5.2 | 0.00 | 0.00 | 0.00 | 1 | 1016.5 |
| 20260830053725 | 84 | 41 | 2.6 | 5.2 | 0.00 | 0.00 | 0.00 | 1 | 1016.4 |
| 20260830053604 | 84 | 41 | 2.6 | 5.2 | 0.00 | 0.00 | 0.00 | 1 | 1016.4 |
| 20260830053504 | 84 | 40 | 2.6 | 5.2 | 0.00 | 0.00 | 0.00 | 1 | 1016.4 |
| 20260830053404 | 84 | 40 | 1.7 | 5.2 | 0.00 | 0.00 | 0.00 | 1 | 1016.4 |
| 20260830053304 | 84 | 41 | 1.7 | 5.2 | 0.00 | 0.00 | 0.00 | 1 | 1016.4 |
| 20260830053204 | 84 | 41 | 1.7 | 5.2 | 0.00 | 0.00 | 0.00 | 1 | 1016.4 |
| 20260830053104 | 84 | 42 | 1.7 | 5.2 | 0.00 | 0.00 | 0.00 | 1 | 1016.4 |
| 20260830053004 | 84 | 44 | 1.7 | 4.3 | 0.00 | 0.00 | 0.00 | 1 | 1016.4 |
| 20260830052904 | 84 | 46 | 1.7 | 4.3 | 0.00 | 0.00 | 0.00 | 1 | 1016.4 |
| 20260830052804 | 84 | 47 | 1.7 | 4.3 | 0.00 | 0.00 | 0.00 | 1 | 1016.4 |
| 20260830052704 | 84 | 48 | 1.7 | 4.3 | 0.00 | 0.00 | 0.00 | 1 | 1016.5 |
| 20260830052604 | 84 | 48 | 1.7 | 4.3 | 0.00 | 0.00 | 0.00 | 1 | 1016.5 |
| 20260830052504 | 84 | 50 | 1.7 | 4.3 | 0.00 | 0.00 | 0.00 | 1 | 1016.4 |
| 20260830052404 | 84 | 50 | 1.7 | 4.3 | 0.00 | 0.00 | 0.00 | 1 | 1016.4 |
| 20260830052306 | 84 | 52 | 1.7 | 4.3 | 0.00 | 0.00 | 0.00 | 1 | 1016.5 |
| 20260830052204 | 84 | 52 | 1.7 | 4.3 | 0.00 | 0.00 | 0.00 | 1 | 1016.4 |
| 20260830052104 | 84 | 51 | 1.7 | 4.3 | 0.00 | 0.00 | 0.00 | 1 | 1016.4 |
| 20260830052004 | 84 | 50 | 1.7 | 4.3 | 0.00 | 0.00 | 0.00 | 1 | 1016.4 |
| 20260830051904 | 84 | 49 | 1.7 | 4.3 | 0.00 | 0.00 | 0.00 | 1 | 1016.4 |
| 20260830051804 | 84 | 49 | 1.7 | 3.5 | 0.00 | 0.00 | 0.00 | 1 | 1016.4 |
| 20260830051704 | 84 | 49 | 1.7 | 3.5 | 0.00 | 0.00 | 0.00 | 1 | 1016.4 |
| 20260830051604 | 84 | 49 | 1.7 | 3.5 | 0.00 | 0.00 | 0.00 | 1 | 1016.4 |
| 20260830051525 | 84 | 49 | 1.7 | 3.5 | 0.00 | 0.00 | 0.00 | 1 | 1016.4 |
| 20260830051404 | 84 | 49 | 1.7 | 5.2 | 0.00 | 0.00 | 0.00 | 1 | 1016.4 |
| 20260830051304 | 84 | 50 | 1.7 | 5.2 | 0.00 | 0.00 | 0.00 | 1 | 1016.4 |
| 20260830051204 | 84 | 52 | 1.7 | 5.2 | 0.00 | 0.00 | 0.00 | 1 | 1016.4 |
| 20260830051104 | 84 | 52 | 1.7 | 5.2 | 0.00 | 0.00 | 0.00 | 1 | 1016.4 |
| 20260830051025 | 84 | 52 | 1.7 | 5.2 | 0.00 | 0.00 | 0.00 | 1 | 1016.4 |
| 20260830050904 | 84 | 51 | 2.6 | 5.2 | 0.00 | 0.00 | 0.00 | 1 | 1016.4 |
| 20260830050805 | 84 | 51 | 2.6 | 5.2 | 0.00 | 0.00 | 0.00 | 1 | 1016.4 |
| 20260830050704 | 84 | 51 | 2.6 | 5.2 | 0.00 | 0.00 | 0.00 | 1 | 1016.4 |
| 20260830050604 | 84 | 51 | 2.6 | 6.1 | 0.00 | 0.00 | 0.00 | 1 | 1016.4 |